<?xml version='1.0' encoding='UTF-8'?><gpx version="1.1" creator="JPX - https://github.com/jenetics/jpx" xmlns="http://www.topografix.com/GPX/1/1"><trk><trkseg><trkpt lat="44.47971708710531" lon="7.8729449498803366"><ele>363.0</ele><time>2026-03-24T17:20:29.016Z</time></trkpt><trkpt lat="44.479828444361935" lon="7.87288024805215"><ele>363.0</ele><time>2026-03-24T17:20:29.781Z</time></trkpt><trkpt lat="44.48009480652709" lon="7.872760822021732"><ele>363.0</ele><time>2026-03-24T17:20:35.999Z</time></trkpt><trkpt lat="44.480098698434716" lon="7.872651774466236"><ele>363.0</ele><time>2026-03-24T17:20:37.999Z</time></trkpt><trkpt lat="44.480148663072356" lon="7.8725657434570655"><ele>363.0</ele><time>2026-03-24T17:20:41.999Z</time></trkpt><trkpt lat="44.48023573095426" lon="7.872507447503994"><ele>363.0</ele><time>2026-03-24T17:20:43.999Z</time></trkpt><trkpt lat="44.48038067154851" lon="7.872436064517367"><ele>363.0</ele><time>2026-03-24T17:20:45.999Z</time></trkpt><trkpt lat="44.480444543240374" lon="7.872370252170322"><ele>363.0</ele><time>2026-03-24T17:20:46.999Z</time></trkpt><trkpt lat="44.48051528883618" lon="7.872379654558379"><ele>363.0</ele><time>2026-03-24T17:20:47.999Z</time></trkpt><trkpt lat="44.48057521727322" lon="7.872347512771517"><ele>363.0</ele><time>2026-03-24T17:20:48.999Z</time></trkpt><trkpt lat="44.48064125996467" lon="7.8723138788442135"><ele>363.0</ele><time>2026-03-24T17:20:49.999Z</time></trkpt><trkpt lat="44.48074697694783" lon="7.872273928607221"><ele>363.0</ele><time>2026-03-24T17:20:50.999Z</time></trkpt><trkpt lat="44.48081566547015" lon="7.87212812619063"><ele>363.0</ele><time>2026-03-24T17:20:51.999Z</time></trkpt><trkpt lat="44.48080315143575" lon="7.871990520213018"><ele>363.0</ele><time>2026-03-24T17:20:52.999Z</time></trkpt><trkpt lat="44.48073228543322" lon="7.8718691669199785"><ele>363.0</ele><time>2026-03-24T17:20:53.999Z</time></trkpt><trkpt lat="44.480686701732516" lon="7.871752073948343"><ele>363.0</ele><time>2026-03-24T17:20:54.999Z</time></trkpt><trkpt lat="44.48062896371862" lon="7.871644902431812"><ele>363.0</ele><time>2026-03-24T17:20:55.999Z</time></trkpt><trkpt lat="44.48059462831867" lon="7.871511722475996"><ele>363.0</ele><time>2026-03-24T17:20:56.999Z</time></trkpt><trkpt lat="44.4805336204693" lon="7.871387879072905"><ele>363.0</ele><time>2026-03-24T17:20:57.999Z</time></trkpt><trkpt lat="44.48046571636471" lon="7.871274282287177"><ele>363.0</ele><time>2026-03-24T17:20:58.999Z</time></trkpt><trkpt lat="44.480375397692086" lon="7.871176998025422"><ele>363.0</ele><time>2026-03-24T17:20:59.999Z</time></trkpt><trkpt lat="44.48030179564019" lon="7.871086513195453"><ele>363.0</ele><time>2026-03-24T17:21:00.999Z</time></trkpt><trkpt lat="44.48021896032155" lon="7.871004328543586"><ele>363.0</ele><time>2026-03-24T17:21:01.999Z</time></trkpt><trkpt lat="44.48013375280122" lon="7.870920284809871"><ele>363.0</ele><time>2026-03-24T17:21:02.999Z</time></trkpt><trkpt lat="44.480044632725935" lon="7.870819042570426"><ele>363.0</ele><time>2026-03-24T17:21:03.999Z</time></trkpt><trkpt lat="44.47995954769753" lon="7.870725613572554"><ele>363.0</ele><time>2026-03-24T17:21:04.999Z</time></trkpt><trkpt lat="44.479888961393335" lon="7.870650449401671"><ele>363.0</ele><time>2026-03-24T17:21:05.999Z</time></trkpt><trkpt lat="44.47983488015231" lon="7.870596547242493"><ele>363.0</ele><time>2026-03-24T17:21:06.998Z</time></trkpt><trkpt lat="44.479757048303796" lon="7.870516647051803"><ele>363.0</ele><time>2026-03-24T17:21:07.998Z</time></trkpt><trkpt lat="44.47968103513224" lon="7.87043747800599"><ele>363.0</ele><time>2026-03-24T17:21:08.998Z</time></trkpt><trkpt lat="44.47959937630905" lon="7.870361472642545"><ele>363.0</ele><time>2026-03-24T17:21:09.998Z</time></trkpt><trkpt lat="44.479510579589515" lon="7.870272545648408"><ele>363.0</ele><time>2026-03-24T17:21:10.998Z</time></trkpt><trkpt lat="44.4794167260885" lon="7.870184107136254"><ele>363.0</ele><time>2026-03-24T17:21:11.998Z</time></trkpt><trkpt lat="44.47933558613545" lon="7.870107963773496"><ele>363.0</ele><time>2026-03-24T17:21:12.998Z</time></trkpt><trkpt lat="44.47927025455735" lon="7.870046610915057"><ele>363.0</ele><time>2026-03-24T17:21:13.998Z</time></trkpt><trkpt lat="44.479204528283205" lon="7.869984706177324"><ele>363.0</ele><time>2026-03-24T17:21:14.998Z</time></trkpt><trkpt lat="44.47912614170425" lon="7.869913293790682"><ele>363.0</ele><time>2026-03-24T17:21:16.998Z</time></trkpt><trkpt lat="44.47908532742124" lon="7.869839745403171"><ele>363.0</ele><time>2026-03-24T17:21:20.998Z</time></trkpt><trkpt lat="44.47916716138974" lon="7.869668953222846"><ele>363.0</ele><time>2026-03-24T17:21:23.998Z</time></trkpt><trkpt lat="44.479212272074975" lon="7.869569218947197"><ele>363.0</ele><time>2026-03-24T17:21:24.998Z</time></trkpt><trkpt lat="44.4792696602517" lon="7.869484099081511"><ele>363.0</ele><time>2026-03-24T17:21:25.998Z</time></trkpt><trkpt lat="44.47932576773788" lon="7.869367688399703"><ele>363.0</ele><time>2026-03-24T17:21:26.998Z</time></trkpt><trkpt lat="44.479374996469666" lon="7.869264315033378"><ele>363.0</ele><time>2026-03-24T17:21:27.998Z</time></trkpt><trkpt lat="44.47941773189575" lon="7.869173115291337"><ele>363.0</ele><time>2026-03-24T17:21:28.998Z</time></trkpt><trkpt lat="44.47944308562142" lon="7.8690789120484546"><ele>363.0</ele><time>2026-03-24T17:21:29.998Z</time></trkpt><trkpt lat="44.47950017002248" lon="7.868970254195347"><ele>363.0</ele><time>2026-03-24T17:21:30.998Z</time></trkpt><trkpt lat="44.47955129617404" lon="7.868861170515283"><ele>363.0</ele><time>2026-03-24T17:21:32Z</time></trkpt><trkpt lat="44.47959296264702" lon="7.868771559655894"><ele>363.0</ele><time>2026-03-24T17:21:33Z</time></trkpt><trkpt lat="44.47967266084498" lon="7.868666625957525"><ele>363.0</ele><time>2026-03-24T17:21:35Z</time></trkpt><trkpt lat="44.479767199066345" lon="7.868640403913213"><ele>363.0</ele><time>2026-03-24T17:21:37Z</time></trkpt><trkpt lat="44.47982972361235" lon="7.868660459633038"><ele>363.0</ele><time>2026-03-24T17:21:38Z</time></trkpt><trkpt lat="44.47990363622889" lon="7.8687173451786885"><ele>363.0</ele><time>2026-03-24T17:21:39Z</time></trkpt><trkpt lat="44.47997898904458" lon="7.868783773273998"><ele>363.0</ele><time>2026-03-24T17:21:40Z</time></trkpt><trkpt lat="44.48005737675638" lon="7.868869974251041"><ele>363.0</ele><time>2026-03-24T17:21:41Z</time></trkpt><trkpt lat="44.480130712367455" lon="7.868956842661725"><ele>363.0</ele><time>2026-03-24T17:21:42Z</time></trkpt><trkpt lat="44.4802171180677" lon="7.869076094311082"><ele>363.0</ele><time>2026-03-24T17:21:43Z</time></trkpt><trkpt lat="44.48031084587767" lon="7.869191445446202"><ele>363.0</ele><time>2026-03-24T17:21:44Z</time></trkpt><trkpt lat="44.480402124101325" lon="7.8693030421378305"><ele>363.0</ele><time>2026-03-24T17:21:45Z</time></trkpt><trkpt lat="44.48050419879914" lon="7.869432268099324"><ele>363.0</ele><time>2026-03-24T17:21:46Z</time></trkpt><trkpt lat="44.48060847007251" lon="7.869572450936793"><ele>363.25</ele><time>2026-03-24T17:21:47Z</time></trkpt><trkpt lat="44.48069596448402" lon="7.869690013147598"><ele>363.5</ele><time>2026-03-24T17:21:48Z</time></trkpt><trkpt lat="44.48077867553046" lon="7.869795921952145"><ele>363.75</ele><time>2026-03-24T17:21:49Z</time></trkpt><trkpt lat="44.48085982840953" lon="7.8699187121743215"><ele>364.0</ele><time>2026-03-24T17:21:50Z</time></trkpt><trkpt lat="44.48093593798371" lon="7.870029568070001"><ele>363.8333333333333</ele><time>2026-03-24T17:21:51Z</time></trkpt><trkpt lat="44.481002571388444" lon="7.870123663764218"><ele>363.66666666666663</ele><time>2026-03-24T17:21:52Z</time></trkpt><trkpt lat="44.48106221976864" lon="7.8702241196009215"><ele>363.5</ele><time>2026-03-24T17:21:53Z</time></trkpt><trkpt lat="44.48111664547641" lon="7.870313860411482"><ele>363.3333333333333</ele><time>2026-03-24T17:21:54Z</time></trkpt><trkpt lat="44.48117414132413" lon="7.8704026123903255"><ele>363.1666666666667</ele><time>2026-03-24T17:21:55Z</time></trkpt><trkpt lat="44.4812212515315" lon="7.870484557357606"><ele>363.0</ele><time>2026-03-24T17:21:56Z</time></trkpt><trkpt lat="44.48125990874825" lon="7.870560753479768"><ele>363.0</ele><time>2026-03-24T17:21:57Z</time></trkpt><trkpt lat="44.48132059144934" lon="7.8706752607131545"><ele>363.0</ele><time>2026-03-24T17:21:59Z</time></trkpt><trkpt lat="44.481353011221394" lon="7.870802831858648"><ele>363.0</ele><time>2026-03-24T17:22:01Z</time></trkpt><trkpt lat="44.481325688602894" lon="7.870913075301907"><ele>363.0</ele><time>2026-03-24T17:22:03Z</time></trkpt><trkpt lat="44.481380962831594" lon="7.870853949468708"><ele>363.0</ele><time>2026-03-24T17:22:04Z</time></trkpt><trkpt lat="44.48126444153868" lon="7.870924180333818"><ele>363.0</ele><time>2026-03-24T17:22:05Z</time></trkpt><trkpt lat="44.48121731938697" lon="7.870982849404097"><ele>363.0</ele><time>2026-03-24T17:22:09Z</time></trkpt><trkpt lat="44.48120947736502" lon="7.871135193072643"><ele>363.0</ele><time>2026-03-24T17:25:38.998Z</time></trkpt><trkpt lat="44.481256836092435" lon="7.871203870922603"><ele>363.0</ele><time>2026-03-24T17:25:47Z</time></trkpt><trkpt lat="44.48132816507684" lon="7.871250983681974"><ele>363.0</ele><time>2026-03-24T17:26:03Z</time></trkpt><trkpt lat="44.481296135710615" lon="7.871361785752726"><ele>363.0</ele><time>2026-03-24T17:30:58.999Z</time></trkpt><trkpt lat="44.4813594644666" lon="7.8714712224325"><ele>363.1666666666667</ele><time>2026-03-24T17:31:01.999Z</time></trkpt><trkpt lat="44.481391725534834" lon="7.871579434077404"><ele>363.3333333333333</ele><time>2026-03-24T17:31:03.999Z</time></trkpt><trkpt lat="44.481453245354" lon="7.871631011594326"><ele>363.5</ele><time>2026-03-24T17:31:05.999Z</time></trkpt><trkpt lat="44.48154075571121" lon="7.871625636686359"><ele>363.66666666666663</ele><time>2026-03-24T17:31:07.999Z</time></trkpt><trkpt lat="44.4816113539883" lon="7.87157109457636"><ele>363.8333333333333</ele><time>2026-03-24T17:31:09.999Z</time></trkpt><trkpt lat="44.48163574083787" lon="7.871447042058764"><ele>364.0</ele><time>2026-03-24T17:31:11.999Z</time></trkpt><trkpt lat="44.481598242510266" lon="7.87133366823151"><ele>364.0</ele><time>2026-03-24T17:31:13.999Z</time></trkpt><trkpt lat="44.48163187028522" lon="7.871241708589815"><ele>364.0</ele><time>2026-03-24T17:31:17.999Z</time></trkpt><trkpt lat="44.48170338925181" lon="7.871306379378077"><ele>364.0</ele><time>2026-03-24T17:31:24.999Z</time></trkpt><trkpt lat="44.48176725823608" lon="7.871416928424774"><ele>364.0</ele><time>2026-03-24T17:31:26.999Z</time></trkpt><trkpt lat="44.48180643887839" lon="7.871489094319385"><ele>364.0</ele><time>2026-03-24T17:31:27.999Z</time></trkpt><trkpt lat="44.48185656050979" lon="7.871570319767735"><ele>364.0</ele><time>2026-03-24T17:31:28.999Z</time></trkpt><trkpt lat="44.481909747553836" lon="7.871664848253325"><ele>364.0</ele><time>2026-03-24T17:31:29.999Z</time></trkpt><trkpt lat="44.48196728347008" lon="7.871760931230396"><ele>364.0</ele><time>2026-03-24T17:31:30.999Z</time></trkpt><trkpt lat="44.4820279777647" lon="7.87187048523347"><ele>364.0</ele><time>2026-03-24T17:31:31.999Z</time></trkpt><trkpt lat="44.48209139105309" lon="7.871982893000572"><ele>364.0</ele><time>2026-03-24T17:31:32.999Z</time></trkpt><trkpt lat="44.48214977420785" lon="7.872081534490688"><ele>364.0</ele><time>2026-03-24T17:31:33.999Z</time></trkpt><trkpt lat="44.48219571330848" lon="7.87216893100079"><ele>363.4</ele><time>2026-03-24T17:31:34.999Z</time></trkpt><trkpt lat="44.48224777485692" lon="7.872261599031677"><ele>362.79999999999995</ele><time>2026-03-24T17:31:35.999Z</time></trkpt><trkpt lat="44.48230879116227" lon="7.872371388580859"><ele>362.20000000000005</ele><time>2026-03-24T17:31:36.998Z</time></trkpt><trkpt lat="44.48237535638948" lon="7.872493905711861"><ele>361.6</ele><time>2026-03-24T17:31:37.998Z</time></trkpt><trkpt lat="44.48245206066952" lon="7.87262298639584"><ele>361.0</ele><time>2026-03-24T17:31:38.998Z</time></trkpt><trkpt lat="44.48253294358825" lon="7.872762286215564"><ele>360.75</ele><time>2026-03-24T17:31:39.998Z</time></trkpt><trkpt lat="44.48261262453793" lon="7.872903842817141"><ele>360.5</ele><time>2026-03-24T17:31:40.998Z</time></trkpt><trkpt lat="44.4826948058139" lon="7.8730498724521185"><ele>360.25</ele><time>2026-03-24T17:31:41.998Z</time></trkpt><trkpt lat="44.48278301872441" lon="7.8732043054003995"><ele>360.0</ele><time>2026-03-24T17:31:42.998Z</time></trkpt><trkpt lat="44.48288325357139" lon="7.873373861621482"><ele>360.3333333333333</ele><time>2026-03-24T17:31:43.998Z</time></trkpt><trkpt lat="44.48297276513368" lon="7.87352787321366"><ele>360.66666666666663</ele><time>2026-03-24T17:31:44.998Z</time></trkpt><trkpt lat="44.48307328456076" lon="7.873700040235268"><ele>361.0</ele><time>2026-03-24T17:31:45.998Z</time></trkpt><trkpt lat="44.48317922263381" lon="7.873874522424395"><ele>361.0</ele><time>2026-03-24T17:31:46.998Z</time></trkpt><trkpt lat="44.48327500789057" lon="7.874040128122586"><ele>361.0</ele><time>2026-03-24T17:31:47.998Z</time></trkpt><trkpt lat="44.48335993653366" lon="7.8741952743442996"><ele>361.0</ele><time>2026-03-24T17:31:48.998Z</time></trkpt><trkpt lat="44.483451701941604" lon="7.874353177883901"><ele>361.0</ele><time>2026-03-24T17:31:49.998Z</time></trkpt><trkpt lat="44.4835396941686" lon="7.874516966030736"><ele>360.5</ele><time>2026-03-24T17:31:50.998Z</time></trkpt><trkpt lat="44.48362458753119" lon="7.874678862798828"><ele>360.0</ele><time>2026-03-24T17:31:51.998Z</time></trkpt><trkpt lat="44.48370598034094" lon="7.874842340445831"><ele>359.5</ele><time>2026-03-24T17:31:52.998Z</time></trkpt><trkpt lat="44.4837788104642" lon="7.875006354309122"><ele>359.0</ele><time>2026-03-24T17:31:53.998Z</time></trkpt><trkpt lat="44.48384490989752" lon="7.875165401250819"><ele>359.0</ele><time>2026-03-24T17:31:54.998Z</time></trkpt><trkpt lat="44.4839102680088" lon="7.875327514394264"><ele>359.0</ele><time>2026-03-24T17:31:55.998Z</time></trkpt><trkpt lat="44.483969346877096" lon="7.875486328703992"><ele>359.0</ele><time>2026-03-24T17:31:56.998Z</time></trkpt><trkpt lat="44.48402899001035" lon="7.875662623225995"><ele>359.0</ele><time>2026-03-24T17:31:57.998Z</time></trkpt><trkpt lat="44.48407923965274" lon="7.875825476802323"><ele>359.0</ele><time>2026-03-24T17:31:58.998Z</time></trkpt><trkpt lat="44.48412242369442" lon="7.875990521096652"><ele>359.0</ele><time>2026-03-24T17:31:59.998Z</time></trkpt><trkpt lat="44.48415873084396" lon="7.876143289226822"><ele>359.0</ele><time>2026-03-24T17:32:00.998Z</time></trkpt><trkpt lat="44.48419402543919" lon="7.876296718406759"><ele>359.0</ele><time>2026-03-24T17:32:02Z</time></trkpt><trkpt lat="44.484224511136645" lon="7.876435235937775"><ele>359.0</ele><time>2026-03-24T17:32:03Z</time></trkpt><trkpt lat="44.484248205897096" lon="7.876562712069703"><ele>359.0</ele><time>2026-03-24T17:32:04Z</time></trkpt><trkpt lat="44.48426647090708" lon="7.87667785024301"><ele>359.0</ele><time>2026-03-24T17:32:05Z</time></trkpt><trkpt lat="44.484277420151386" lon="7.876791759249285"><ele>359.0</ele><time>2026-03-24T17:32:06Z</time></trkpt><trkpt lat="44.48427742870702" lon="7.87689841539934"><ele>359.0</ele><time>2026-03-24T17:32:07Z</time></trkpt><trkpt lat="44.48427366372433" lon="7.876990867244822"><ele>359.0</ele><time>2026-03-24T17:32:08Z</time></trkpt><trkpt lat="44.48427583169136" lon="7.877149185869045"><ele>358.79999999999995</ele><time>2026-03-24T17:32:10Z</time></trkpt><trkpt lat="44.4843307764413" lon="7.877277823464403"><ele>358.59999999999997</ele><time>2026-03-24T17:32:12Z</time></trkpt><trkpt lat="44.48444768333458" lon="7.8773201833480515"><ele>358.4</ele><time>2026-03-24T17:32:14Z</time></trkpt><trkpt lat="44.48451923730634" lon="7.877292218998261"><ele>358.2</ele><time>2026-03-24T17:32:15Z</time></trkpt><trkpt lat="44.48459704605106" lon="7.877221379298366"><ele>358.0</ele><time>2026-03-24T17:32:16Z</time></trkpt><trkpt lat="44.48469195970175" lon="7.877213537396064"><ele>358.4</ele><time>2026-03-24T17:32:17Z</time></trkpt><trkpt lat="44.4847802427677" lon="7.877218013971251"><ele>358.79999999999995</ele><time>2026-03-24T17:32:18Z</time></trkpt><trkpt lat="44.48487350304514" lon="7.877219867912689"><ele>359.2</ele><time>2026-03-24T17:32:19Z</time></trkpt><trkpt lat="44.48498032176246" lon="7.877329386080306"><ele>359.6</ele><time>2026-03-24T17:32:20Z</time></trkpt><trkpt lat="44.48508553440867" lon="7.877393299626216"><ele>360.0</ele><time>2026-03-24T17:32:21Z</time></trkpt><trkpt lat="44.48518935634373" lon="7.877447893232409"><ele>360.0</ele><time>2026-03-24T17:32:22Z</time></trkpt><trkpt lat="44.48531089908946" lon="7.87752111286767"><ele>360.0</ele><time>2026-03-24T17:32:23Z</time></trkpt><trkpt lat="44.48544225499016" lon="7.877589256758607"><ele>360.0</ele><time>2026-03-24T17:32:24Z</time></trkpt><trkpt lat="44.48557130984078" lon="7.8776683478176"><ele>360.0</ele><time>2026-03-24T17:32:25Z</time></trkpt><trkpt lat="44.48570261960022" lon="7.877745653792944"><ele>359.25</ele><time>2026-03-24T17:32:26Z</time></trkpt><trkpt lat="44.48582992220302" lon="7.877818001747224"><ele>358.5</ele><time>2026-03-24T17:32:27Z</time></trkpt><trkpt lat="44.48595058954618" lon="7.877886010927356"><ele>357.75</ele><time>2026-03-24T17:32:28Z</time></trkpt><trkpt lat="44.4860604165429" lon="7.877948671105133"><ele>357.0</ele><time>2026-03-24T17:32:29Z</time></trkpt><trkpt lat="44.486186195108615" lon="7.878023220913638"><ele>356.75</ele><time>2026-03-24T17:32:30Z</time></trkpt><trkpt lat="44.486302623404434" lon="7.878093666257581"><ele>356.5</ele><time>2026-03-24T17:32:31Z</time></trkpt><trkpt lat="44.48643357649189" lon="7.8781848280172815"><ele>356.25</ele><time>2026-03-24T17:32:32Z</time></trkpt><trkpt lat="44.48655692956334" lon="7.878257985292679"><ele>356.0</ele><time>2026-03-24T17:32:33Z</time></trkpt><trkpt lat="44.48667683186886" lon="7.878330532491794"><ele>356.0</ele><time>2026-03-24T17:32:34Z</time></trkpt><trkpt lat="44.48679254311487" lon="7.878402646261416"><ele>356.0</ele><time>2026-03-24T17:32:35Z</time></trkpt><trkpt lat="44.48690685095549" lon="7.878479223738458"><ele>356.0</ele><time>2026-03-24T17:32:36Z</time></trkpt><trkpt lat="44.48701969870101" lon="7.878561866947715"><ele>356.0</ele><time>2026-03-24T17:32:37Z</time></trkpt><trkpt lat="44.48712385628123" lon="7.8786574092876815"><ele>356.0</ele><time>2026-03-24T17:32:38Z</time></trkpt><trkpt lat="44.48723157530741" lon="7.8787686287510175"><ele>356.0</ele><time>2026-03-24T17:32:39Z</time></trkpt><trkpt lat="44.48734228922206" lon="7.878879930352293"><ele>356.0</ele><time>2026-03-24T17:32:40Z</time></trkpt><trkpt lat="44.48744827746564" lon="7.8789909910180995"><ele>356.0</ele><time>2026-03-24T17:32:41Z</time></trkpt><trkpt lat="44.48754893644573" lon="7.879107829832405"><ele>356.0</ele><time>2026-03-24T17:32:42Z</time></trkpt><trkpt lat="44.487650134987405" lon="7.879233473285837"><ele>356.0</ele><time>2026-03-24T17:32:43Z</time></trkpt><trkpt lat="44.4877569167754" lon="7.87936868405677"><ele>356.0</ele><time>2026-03-24T17:32:44Z</time></trkpt><trkpt lat="44.487861482391516" lon="7.879496780430237"><ele>356.0</ele><time>2026-03-24T17:32:44.999Z</time></trkpt><trkpt lat="44.48796494458555" lon="7.879630335984793"><ele>356.0</ele><time>2026-03-24T17:32:45.999Z</time></trkpt><trkpt lat="44.48807224096904" lon="7.879768479634219"><ele>356.0</ele><time>2026-03-24T17:32:46.999Z</time></trkpt><trkpt lat="44.48818066056231" lon="7.879904865166893"><ele>356.0</ele><time>2026-03-24T17:32:47.999Z</time></trkpt><trkpt lat="44.488286105315446" lon="7.880042932989739"><ele>356.0</ele><time>2026-03-24T17:32:48.999Z</time></trkpt><trkpt lat="44.48839222070527" lon="7.880177661528499"><ele>356.0</ele><time>2026-03-24T17:32:49.999Z</time></trkpt><trkpt lat="44.48849787403402" lon="7.880315003970474"><ele>356.0</ele><time>2026-03-24T17:32:50.999Z</time></trkpt><trkpt lat="44.48860607101859" lon="7.880451716600367"><ele>356.0</ele><time>2026-03-24T17:32:51.999Z</time></trkpt><trkpt lat="44.48870781735069" lon="7.880581152954071"><ele>356.0</ele><time>2026-03-24T17:32:52.999Z</time></trkpt><trkpt lat="44.488805468889716" lon="7.880699548513201"><ele>356.0</ele><time>2026-03-24T17:32:53.999Z</time></trkpt><trkpt lat="44.48890061705797" lon="7.880817894999864"><ele>356.0</ele><time>2026-03-24T17:32:54.999Z</time></trkpt><trkpt lat="44.48899600778503" lon="7.880935514965865"><ele>356.0</ele><time>2026-03-24T17:32:55.999Z</time></trkpt><trkpt lat="44.48909413781895" lon="7.88104724801517"><ele>356.0</ele><time>2026-03-24T17:32:56.999Z</time></trkpt><trkpt lat="44.48919419522676" lon="7.8811449191349725"><ele>356.25</ele><time>2026-03-24T17:32:57.999Z</time></trkpt><trkpt lat="44.48929807153338" lon="7.881221805032275"><ele>356.5</ele><time>2026-03-24T17:32:58.999Z</time></trkpt><trkpt lat="44.48940823901788" lon="7.881282727265411"><ele>356.75</ele><time>2026-03-24T17:32:59.999Z</time></trkpt><trkpt lat="44.48952422320379" lon="7.881329996180514"><ele>357.0</ele><time>2026-03-24T17:33:00.999Z</time></trkpt><trkpt lat="44.489642199733375" lon="7.88137093297225"><ele>356.5</ele><time>2026-03-24T17:33:01.999Z</time></trkpt><trkpt lat="44.489765391278425" lon="7.881404036824231"><ele>356.0</ele><time>2026-03-24T17:33:02.999Z</time></trkpt><trkpt lat="44.48989342053697" lon="7.881428169098394"><ele>355.5</ele><time>2026-03-24T17:33:03.999Z</time></trkpt><trkpt lat="44.49001579407324" lon="7.881428615370687"><ele>355.0</ele><time>2026-03-24T17:33:04.999Z</time></trkpt><trkpt lat="44.4901343026366" lon="7.8814164736782875"><ele>355.0</ele><time>2026-03-24T17:33:05.999Z</time></trkpt><trkpt lat="44.49025833954761" lon="7.881397449668822"><ele>355.0</ele><time>2026-03-24T17:33:06.999Z</time></trkpt><trkpt lat="44.490377272110045" lon="7.881384382202341"><ele>355.0</ele><time>2026-03-24T17:33:07.999Z</time></trkpt><trkpt lat="44.4904884384897" lon="7.881375467049977"><ele>355.0</ele><time>2026-03-24T17:33:08.999Z</time></trkpt><trkpt lat="44.490598559469106" lon="7.88137381702149"><ele>355.25</ele><time>2026-03-24T17:33:09.999Z</time></trkpt><trkpt lat="44.490712313851354" lon="7.8813827930198"><ele>355.5</ele><time>2026-03-24T17:33:10.999Z</time></trkpt><trkpt lat="44.49083116348363" lon="7.881396470196428"><ele>355.75</ele><time>2026-03-24T17:33:11.999Z</time></trkpt><trkpt lat="44.49095113628711" lon="7.881413883887518"><ele>356.0</ele><time>2026-03-24T17:33:12.999Z</time></trkpt><trkpt lat="44.4910733267245" lon="7.881440638169166"><ele>356.0</ele><time>2026-03-24T17:33:13.999Z</time></trkpt><trkpt lat="44.491196263822566" lon="7.881461592769078"><ele>356.0</ele><time>2026-03-24T17:33:14.999Z</time></trkpt><trkpt lat="44.49131340085072" lon="7.8815057163854645"><ele>356.0</ele><time>2026-03-24T17:33:15.999Z</time></trkpt><trkpt lat="44.49142693695635" lon="7.881567792239924"><ele>356.0</ele><time>2026-03-24T17:33:16.999Z</time></trkpt><trkpt lat="44.49154559077576" lon="7.881636193223395"><ele>355.75</ele><time>2026-03-24T17:33:17.999Z</time></trkpt><trkpt lat="44.49166037902631" lon="7.881701301780972"><ele>355.5</ele><time>2026-03-24T17:33:18.999Z</time></trkpt><trkpt lat="44.49177687876324" lon="7.881768484080088"><ele>355.25</ele><time>2026-03-24T17:33:19.999Z</time></trkpt><trkpt lat="44.491890055031384" lon="7.881840592990012"><ele>355.0</ele><time>2026-03-24T17:33:20.999Z</time></trkpt><trkpt lat="44.49199836892681" lon="7.88190835979157"><ele>355.0</ele><time>2026-03-24T17:33:21.999Z</time></trkpt><trkpt lat="44.4921100886742" lon="7.881983194275093"><ele>355.0</ele><time>2026-03-24T17:33:22.999Z</time></trkpt><trkpt lat="44.49222111531192" lon="7.882054598004505"><ele>355.0</ele><time>2026-03-24T17:33:23.999Z</time></trkpt><trkpt lat="44.492331967546924" lon="7.882123263534045"><ele>355.0</ele><time>2026-03-24T17:33:24.999Z</time></trkpt><trkpt lat="44.492446256924126" lon="7.882193764116296"><ele>355.0</ele><time>2026-03-24T17:33:25.999Z</time></trkpt><trkpt lat="44.492563854930815" lon="7.882234152882426"><ele>355.0</ele><time>2026-03-24T17:33:26.999Z</time></trkpt><trkpt lat="44.492670897081226" lon="7.882293700777085"><ele>355.0</ele><time>2026-03-24T17:33:27.999Z</time></trkpt><trkpt lat="44.49277809850988" lon="7.882353337352622"><ele>355.0</ele><time>2026-03-24T17:33:28.999Z</time></trkpt><trkpt lat="44.492892984765454" lon="7.882417252897965"><ele>355.0</ele><time>2026-03-24T17:33:29.999Z</time></trkpt><trkpt lat="44.49300008214017" lon="7.882475643692085"><ele>355.0</ele><time>2026-03-24T17:33:30.999Z</time></trkpt><trkpt lat="44.49310401414143" lon="7.8825547130122"><ele>355.0</ele><time>2026-03-24T17:33:31.999Z</time></trkpt><trkpt lat="44.49321412672799" lon="7.882614985194794"><ele>355.0</ele><time>2026-03-24T17:33:32.999Z</time></trkpt><trkpt lat="44.49333061382166" lon="7.882677835725617"><ele>355.0</ele><time>2026-03-24T17:33:33.999Z</time></trkpt><trkpt lat="44.493447697373114" lon="7.882736072188705"><ele>355.0</ele><time>2026-03-24T17:33:34.999Z</time></trkpt><trkpt lat="44.493562514973576" lon="7.8827927731638425"><ele>355.0</ele><time>2026-03-24T17:33:35.999Z</time></trkpt><trkpt lat="44.49367976128842" lon="7.882857352829607"><ele>355.0</ele><time>2026-03-24T17:33:36.999Z</time></trkpt><trkpt lat="44.4937988329957" lon="7.882930040616348"><ele>354.5</ele><time>2026-03-24T17:33:37.999Z</time></trkpt><trkpt lat="44.493914551408295" lon="7.8830064088122365"><ele>354.0</ele><time>2026-03-24T17:33:38.999Z</time></trkpt><trkpt lat="44.494027600960464" lon="7.883095352666345"><ele>353.5</ele><time>2026-03-24T17:33:39.999Z</time></trkpt><trkpt lat="44.4941396092933" lon="7.88319128927297"><ele>353.0</ele><time>2026-03-24T17:33:40.999Z</time></trkpt><trkpt lat="44.494253084414524" lon="7.883290924404499"><ele>353.0</ele><time>2026-03-24T17:33:41.999Z</time></trkpt><trkpt lat="44.49436658540078" lon="7.883392530779231"><ele>353.0</ele><time>2026-03-24T17:33:42.999Z</time></trkpt><trkpt lat="44.4944766651926" lon="7.883494716026978"><ele>353.0</ele><time>2026-03-24T17:33:43.999Z</time></trkpt><trkpt lat="44.49459558661296" lon="7.883596818793841"><ele>353.0</ele><time>2026-03-24T17:33:44.999Z</time></trkpt><trkpt lat="44.49471337463765" lon="7.883706101741284"><ele>353.0</ele><time>2026-03-24T17:33:45.998Z</time></trkpt><trkpt lat="44.49482821230028" lon="7.883806756616355"><ele>353.0</ele><time>2026-03-24T17:33:46.998Z</time></trkpt><trkpt lat="44.494941233787955" lon="7.8839044887433944"><ele>353.0</ele><time>2026-03-24T17:33:47.998Z</time></trkpt><trkpt lat="44.495055656029876" lon="7.884002245679136"><ele>353.0</ele><time>2026-03-24T17:33:48.998Z</time></trkpt><trkpt lat="44.495174937564" lon="7.884091963475173"><ele>353.0</ele><time>2026-03-24T17:33:49.998Z</time></trkpt><trkpt lat="44.495300016365206" lon="7.8841751093644765"><ele>353.0</ele><time>2026-03-24T17:33:50.998Z</time></trkpt><trkpt lat="44.4954287863158" lon="7.8842443833362275"><ele>353.0</ele><time>2026-03-24T17:33:51.998Z</time></trkpt><trkpt lat="44.49555910133289" lon="7.884307192412839"><ele>353.0</ele><time>2026-03-24T17:33:52.998Z</time></trkpt><trkpt lat="44.49569229960324" lon="7.884363622391271"><ele>352.75</ele><time>2026-03-24T17:33:53.998Z</time></trkpt><trkpt lat="44.49582758564056" lon="7.884404378930565"><ele>352.5</ele><time>2026-03-24T17:33:54.998Z</time></trkpt><trkpt lat="44.49596713685622" lon="7.884432707281501"><ele>352.25</ele><time>2026-03-24T17:33:55.998Z</time></trkpt><trkpt lat="44.4961087879978" lon="7.8844535151904225"><ele>352.0</ele><time>2026-03-24T17:33:56.998Z</time></trkpt><trkpt lat="44.49625041442693" lon="7.884465589144558"><ele>352.0</ele><time>2026-03-24T17:33:57.998Z</time></trkpt><trkpt lat="44.49639246661009" lon="7.884465508532598"><ele>352.0</ele><time>2026-03-24T17:33:58.998Z</time></trkpt><trkpt lat="44.496534114078116" lon="7.884459058803143"><ele>352.0</ele><time>2026-03-24T17:33:59.998Z</time></trkpt><trkpt lat="44.49667905404909" lon="7.8844524489697845"><ele>352.0</ele><time>2026-03-24T17:34:00.998Z</time></trkpt><trkpt lat="44.49682223654949" lon="7.884446883549703"><ele>352.0</ele><time>2026-03-24T17:34:01.998Z</time></trkpt><trkpt lat="44.49695808929936" lon="7.8844423607296354"><ele>352.0</ele><time>2026-03-24T17:34:02.998Z</time></trkpt><trkpt lat="44.4970868438998" lon="7.884444867717383"><ele>352.0</ele><time>2026-03-24T17:34:03.998Z</time></trkpt><trkpt lat="44.49722154894813" lon="7.884442869241961"><ele>352.0</ele><time>2026-03-24T17:34:04.998Z</time></trkpt><trkpt lat="44.49735392771609" lon="7.884432668293122"><ele>352.25</ele><time>2026-03-24T17:34:05.998Z</time></trkpt><trkpt lat="44.49749010424781" lon="7.884423657433014"><ele>352.5</ele><time>2026-03-24T17:34:06.998Z</time></trkpt><trkpt lat="44.49762861614487" lon="7.884419088894172"><ele>352.75</ele><time>2026-03-24T17:34:08Z</time></trkpt><trkpt lat="44.49776478357297" lon="7.884411833595515"><ele>353.0</ele><time>2026-03-24T17:34:09Z</time></trkpt><trkpt lat="44.49789927530096" lon="7.8844079147909785"><ele>352.5</ele><time>2026-03-24T17:34:10Z</time></trkpt><trkpt lat="44.49802776756411" lon="7.884404193010378"><ele>352.0</ele><time>2026-03-24T17:34:11Z</time></trkpt><trkpt lat="44.49816032132266" lon="7.884398606363089"><ele>351.5</ele><time>2026-03-24T17:34:12Z</time></trkpt><trkpt lat="44.49829455752593" lon="7.884395232174632"><ele>351.0</ele><time>2026-03-24T17:34:13Z</time></trkpt><trkpt lat="44.49842965662127" lon="7.884389931020766"><ele>351.0</ele><time>2026-03-24T17:34:14Z</time></trkpt><trkpt lat="44.498567710758316" lon="7.884383777796645"><ele>351.0</ele><time>2026-03-24T17:34:15Z</time></trkpt><trkpt lat="44.49870544855357" lon="7.884377009908084"><ele>351.0</ele><time>2026-03-24T17:34:16Z</time></trkpt><trkpt lat="44.49883595190097" lon="7.8843661750695215"><ele>351.0</ele><time>2026-03-24T17:34:17Z</time></trkpt><trkpt lat="44.49896841645601" lon="7.884356800205708"><ele>350.75</ele><time>2026-03-24T17:34:18Z</time></trkpt><trkpt lat="44.49910249447223" lon="7.884347962974268"><ele>350.5</ele><time>2026-03-24T17:34:19Z</time></trkpt><trkpt lat="44.49923669268943" lon="7.8843407385437985"><ele>350.25</ele><time>2026-03-24T17:34:20Z</time></trkpt><trkpt lat="44.49937300616293" lon="7.884335926468553"><ele>350.0</ele><time>2026-03-24T17:34:21Z</time></trkpt><trkpt lat="44.49950989240681" lon="7.884329890844883"><ele>350.25</ele><time>2026-03-24T17:34:22Z</time></trkpt><trkpt lat="44.499649771549045" lon="7.884321519682636"><ele>350.5</ele><time>2026-03-24T17:34:23Z</time></trkpt><trkpt lat="44.49979193254666" lon="7.884312211266785"><ele>350.75</ele><time>2026-03-24T17:34:24Z</time></trkpt><trkpt lat="44.49993601591679" lon="7.884304058936182"><ele>351.0</ele><time>2026-03-24T17:34:25Z</time></trkpt><trkpt lat="44.500078663839375" lon="7.88429781111634"><ele>351.0</ele><time>2026-03-24T17:34:26Z</time></trkpt><trkpt lat="44.500223529163755" lon="7.8842903789006265"><ele>351.0</ele><time>2026-03-24T17:34:27Z</time></trkpt><trkpt lat="44.500367399353266" lon="7.884281760410001"><ele>351.0</ele><time>2026-03-24T17:34:28Z</time></trkpt><trkpt lat="44.50051062476012" lon="7.884272950973626"><ele>351.0</ele><time>2026-03-24T17:34:29Z</time></trkpt><trkpt lat="44.5006536939337" lon="7.884262135917035"><ele>350.75</ele><time>2026-03-24T17:34:30Z</time></trkpt><trkpt lat="44.50079878488777" lon="7.884256663330651"><ele>350.5</ele><time>2026-03-24T17:34:31Z</time></trkpt><trkpt lat="44.50094504575231" lon="7.884245479444911"><ele>350.25</ele><time>2026-03-24T17:34:32Z</time></trkpt><trkpt lat="44.501092003315755" lon="7.884236589313518"><ele>350.0</ele><time>2026-03-24T17:34:33Z</time></trkpt><trkpt lat="44.50122966111635" lon="7.884229549156322"><ele>350.0</ele><time>2026-03-24T17:34:34Z</time></trkpt><trkpt lat="44.501366207721304" lon="7.884218018733364"><ele>350.0</ele><time>2026-03-24T17:34:35Z</time></trkpt><trkpt lat="44.50150516661677" lon="7.884203360876227"><ele>350.0</ele><time>2026-03-24T17:34:36Z</time></trkpt><trkpt lat="44.50164588465885" lon="7.884189112560688"><ele>350.0</ele><time>2026-03-24T17:34:37Z</time></trkpt><trkpt lat="44.50178834487794" lon="7.884165760072116"><ele>350.0</ele><time>2026-03-24T17:34:38Z</time></trkpt><trkpt lat="44.50193485899464" lon="7.884142582273873"><ele>350.0</ele><time>2026-03-24T17:34:39Z</time></trkpt><trkpt lat="44.50207984728851" lon="7.88412166500133"><ele>350.0</ele><time>2026-03-24T17:34:40Z</time></trkpt><trkpt lat="44.5022256955033" lon="7.884093380653241"><ele>350.0</ele><time>2026-03-24T17:34:41Z</time></trkpt><trkpt lat="44.50237035632146" lon="7.884063796471251"><ele>350.0</ele><time>2026-03-24T17:34:42Z</time></trkpt><trkpt lat="44.50251746945847" lon="7.8840310393993045"><ele>350.0</ele><time>2026-03-24T17:34:43Z</time></trkpt><trkpt lat="44.50266250483788" lon="7.884000276680199"><ele>350.0</ele><time>2026-03-24T17:34:44Z</time></trkpt><trkpt lat="44.50281144501765" lon="7.883970959669866"><ele>350.0</ele><time>2026-03-24T17:34:45Z</time></trkpt><trkpt lat="44.50295522343339" lon="7.88394311513955"><ele>350.25</ele><time>2026-03-24T17:34:46Z</time></trkpt><trkpt lat="44.50309961276247" lon="7.8839197584288385"><ele>350.5</ele><time>2026-03-24T17:34:47Z</time></trkpt><trkpt lat="44.50324311668559" lon="7.883902315330368"><ele>350.75</ele><time>2026-03-24T17:34:48Z</time></trkpt><trkpt lat="44.503386936331744" lon="7.88389046151212"><ele>351.0</ele><time>2026-03-24T17:34:49Z</time></trkpt><trkpt lat="44.50353114973443" lon="7.883885413237028"><ele>351.0</ele><time>2026-03-24T17:34:50Z</time></trkpt><trkpt lat="44.50367637320935" lon="7.883884030089025"><ele>351.0</ele><time>2026-03-24T17:34:51Z</time></trkpt><trkpt lat="44.50382037253259" lon="7.883892191230696"><ele>351.0</ele><time>2026-03-24T17:34:52Z</time></trkpt><trkpt lat="44.50396401309012" lon="7.883905818208053"><ele>351.0</ele><time>2026-03-24T17:34:53Z</time></trkpt><trkpt lat="44.504106972881495" lon="7.883917152119874"><ele>351.25</ele><time>2026-03-24T17:34:53.999Z</time></trkpt><trkpt lat="44.50424903456471" lon="7.883923997803743"><ele>351.5</ele><time>2026-03-24T17:34:54.999Z</time></trkpt><trkpt lat="44.50438498917062" lon="7.883937124181114"><ele>351.75</ele><time>2026-03-24T17:34:55.999Z</time></trkpt><trkpt lat="44.5045239138762" lon="7.8839505580200555"><ele>352.0</ele><time>2026-03-24T17:34:56.999Z</time></trkpt><trkpt lat="44.504662920898376" lon="7.883968629274394"><ele>351.25</ele><time>2026-03-24T17:34:57.999Z</time></trkpt><trkpt lat="44.50479881237005" lon="7.883993894847881"><ele>350.5</ele><time>2026-03-24T17:34:58.999Z</time></trkpt><trkpt lat="44.504927682880236" lon="7.884031009317382"><ele>349.75</ele><time>2026-03-24T17:34:59.999Z</time></trkpt><trkpt lat="44.50505309719283" lon="7.884060450938619"><ele>349.0</ele><time>2026-03-24T17:35:00.999Z</time></trkpt><trkpt lat="44.50517954607994" lon="7.884079234634799"><ele>349.0</ele><time>2026-03-24T17:35:01.999Z</time></trkpt><trkpt lat="44.505307599803125" lon="7.884086296707951"><ele>349.0</ele><time>2026-03-24T17:35:02.999Z</time></trkpt><trkpt lat="44.50544042297559" lon="7.884079373649017"><ele>349.0</ele><time>2026-03-24T17:35:03.999Z</time></trkpt><trkpt lat="44.50557612662207" lon="7.884057275857033"><ele>349.0</ele><time>2026-03-24T17:35:04.999Z</time></trkpt><trkpt lat="44.505716072855996" lon="7.884033182033179"><ele>349.0</ele><time>2026-03-24T17:35:05.999Z</time></trkpt><trkpt lat="44.50585336496146" lon="7.8840024486730345"><ele>349.0</ele><time>2026-03-24T17:35:06.999Z</time></trkpt><trkpt lat="44.50598743509546" lon="7.883976903165999"><ele>349.0</ele><time>2026-03-24T17:35:07.999Z</time></trkpt><trkpt lat="44.506122157267285" lon="7.883947812577421"><ele>349.0</ele><time>2026-03-24T17:35:08.999Z</time></trkpt><trkpt lat="44.506247157659125" lon="7.883918705037391"><ele>349.2</ele><time>2026-03-24T17:35:09.999Z</time></trkpt><trkpt lat="44.506362961591975" lon="7.883893531011848"><ele>349.4</ele><time>2026-03-24T17:35:10.999Z</time></trkpt><trkpt lat="44.50647101556069" lon="7.883870424206096"><ele>349.6</ele><time>2026-03-24T17:35:11.999Z</time></trkpt><trkpt lat="44.5065801776724" lon="7.883844853785609"><ele>349.8</ele><time>2026-03-24T17:35:12.999Z</time></trkpt><trkpt lat="44.50668814608582" lon="7.883823685421415"><ele>350.0</ele><time>2026-03-24T17:35:13.999Z</time></trkpt><trkpt lat="44.50678897548158" lon="7.883808634343788"><ele>350.0</ele><time>2026-03-24T17:35:14.999Z</time></trkpt><trkpt lat="44.50688339244825" lon="7.8838003083140045"><ele>350.0</ele><time>2026-03-24T17:35:15.999Z</time></trkpt><trkpt lat="44.50697666322377" lon="7.8838015023569366"><ele>350.0</ele><time>2026-03-24T17:35:16.999Z</time></trkpt><trkpt lat="44.50706165652497" lon="7.883836892898709"><ele>350.0</ele><time>2026-03-24T17:35:17.999Z</time></trkpt><trkpt lat="44.50714596173882" lon="7.883891396973893"><ele>350.0</ele><time>2026-03-24T17:35:18.999Z</time></trkpt><trkpt lat="44.50722519487273" lon="7.8839587083097005"><ele>349.8</ele><time>2026-03-24T17:35:19.999Z</time></trkpt><trkpt lat="44.50729907336167" lon="7.884043421050212"><ele>349.6</ele><time>2026-03-24T17:35:20.999Z</time></trkpt><trkpt lat="44.50736002294199" lon="7.88414030532963"><ele>349.4</ele><time>2026-03-24T17:35:21.999Z</time></trkpt><trkpt lat="44.50741652772523" lon="7.884254731509024"><ele>349.2</ele><time>2026-03-24T17:35:22.999Z</time></trkpt><trkpt lat="44.50745613499092" lon="7.884383628639183"><ele>349.0</ele><time>2026-03-24T17:35:23.999Z</time></trkpt><trkpt lat="44.50748289837036" lon="7.8845263194679305"><ele>348.79999999999995</ele><time>2026-03-24T17:35:24.999Z</time></trkpt><trkpt lat="44.507509798446584" lon="7.884660396372669"><ele>348.59999999999997</ele><time>2026-03-24T17:35:25.999Z</time></trkpt><trkpt lat="44.50753209357066" lon="7.884785424693484"><ele>348.4</ele><time>2026-03-24T17:35:26.999Z</time></trkpt><trkpt lat="44.50755962143467" lon="7.884917781587127"><ele>348.2</ele><time>2026-03-24T17:35:27.999Z</time></trkpt><trkpt lat="44.50759333409579" lon="7.88506370726954"><ele>348.0</ele><time>2026-03-24T17:35:28.999Z</time></trkpt><trkpt lat="44.50762294872495" lon="7.885204209297733"><ele>347.79999999999995</ele><time>2026-03-24T17:35:29.999Z</time></trkpt><trkpt lat="44.507649412928615" lon="7.885339799069725"><ele>347.6</ele><time>2026-03-24T17:35:30.999Z</time></trkpt><trkpt lat="44.50767428505078" lon="7.885487253849711"><ele>347.4</ele><time>2026-03-24T17:35:31.999Z</time></trkpt><trkpt lat="44.507678715505186" lon="7.885616321957297"><ele>347.20000000000005</ele><time>2026-03-24T17:35:32.999Z</time></trkpt><trkpt lat="44.50769421455289" lon="7.885757481820239"><ele>347.0</ele><time>2026-03-24T17:35:33.999Z</time></trkpt><trkpt lat="44.50770196988934" lon="7.885903338685865"><ele>347.0</ele><time>2026-03-24T17:35:34.999Z</time></trkpt><trkpt lat="44.507705867663205" lon="7.8860551326021415"><ele>347.0</ele><time>2026-03-24T17:35:35.999Z</time></trkpt><trkpt lat="44.507704967070495" lon="7.886208571065364"><ele>347.0</ele><time>2026-03-24T17:35:36.999Z</time></trkpt><trkpt lat="44.50769950102476" lon="7.886358065333076"><ele>347.0</ele><time>2026-03-24T17:35:37.999Z</time></trkpt><trkpt lat="44.50769578094742" lon="7.886498579906871"><ele>347.0</ele><time>2026-03-24T17:35:38.999Z</time></trkpt><trkpt lat="44.507689587457016" lon="7.886636090963416"><ele>345.40000000000003</ele><time>2026-03-24T17:35:39.999Z</time></trkpt><trkpt lat="44.50768972203825" lon="7.886781591240197"><ele>343.8</ele><time>2026-03-24T17:35:40.999Z</time></trkpt><trkpt lat="44.507686211833" lon="7.8869343013076945"><ele>342.2</ele><time>2026-03-24T17:35:41.999Z</time></trkpt><trkpt lat="44.50768377809907" lon="7.887086502670819"><ele>340.6</ele><time>2026-03-24T17:35:42.999Z</time></trkpt><trkpt lat="44.50768229412757" lon="7.887246795096062"><ele>339.0</ele><time>2026-03-24T17:35:43.999Z</time></trkpt><trkpt lat="44.507678513214074" lon="7.887408918746761"><ele>339.0</ele><time>2026-03-24T17:35:44.999Z</time></trkpt><trkpt lat="44.50767562941077" lon="7.887539130598083"><ele>339.0</ele><time>2026-03-24T17:35:45.999Z</time></trkpt><trkpt lat="44.507671804756264" lon="7.88767407248682"><ele>339.0</ele><time>2026-03-24T17:35:46.999Z</time></trkpt><trkpt lat="44.507678611899436" lon="7.887806986557665"><ele>339.0</ele><time>2026-03-24T17:35:47.999Z</time></trkpt><trkpt lat="44.5076943724071" lon="7.887928756025878"><ele>339.0</ele><time>2026-03-24T17:35:48.999Z</time></trkpt><trkpt lat="44.507723985836726" lon="7.88804744397828"><ele>338.2</ele><time>2026-03-24T17:35:49.999Z</time></trkpt><trkpt lat="44.507757094820725" lon="7.888164599175628"><ele>337.4</ele><time>2026-03-24T17:35:50.999Z</time></trkpt><trkpt lat="44.50779996355234" lon="7.88827227287958"><ele>336.6</ele><time>2026-03-24T17:35:51.999Z</time></trkpt><trkpt lat="44.507858734836475" lon="7.8883723434752735"><ele>335.8</ele><time>2026-03-24T17:35:52.999Z</time></trkpt><trkpt lat="44.50793742615217" lon="7.88845393633192"><ele>335.0</ele><time>2026-03-24T17:35:53.998Z</time></trkpt><trkpt lat="44.508028941386755" lon="7.8885299042233274"><ele>335.0</ele><time>2026-03-24T17:35:54.998Z</time></trkpt><trkpt lat="44.50812173004655" lon="7.888590779530547"><ele>335.0</ele><time>2026-03-24T17:35:55.998Z</time></trkpt><trkpt lat="44.50822769481915" lon="7.888638128546696"><ele>335.0</ele><time>2026-03-24T17:35:56.998Z</time></trkpt><trkpt lat="44.508333568939655" lon="7.888668035419949"><ele>335.0</ele><time>2026-03-24T17:35:57.998Z</time></trkpt><trkpt lat="44.50843887177504" lon="7.888701341463849"><ele>335.0</ele><time>2026-03-24T17:35:58.998Z</time></trkpt><trkpt lat="44.50854615964943" lon="7.8887395572769465"><ele>335.0</ele><time>2026-03-24T17:35:59.998Z</time></trkpt><trkpt lat="44.50864411790837" lon="7.888774469623999"><ele>335.0</ele><time>2026-03-24T17:36:00.998Z</time></trkpt><trkpt lat="44.50874715069239" lon="7.888809833086549"><ele>335.0</ele><time>2026-03-24T17:36:01.998Z</time></trkpt><trkpt lat="44.508851242183" lon="7.888855904472299"><ele>335.0</ele><time>2026-03-24T17:36:02.998Z</time></trkpt><trkpt lat="44.50895523055996" lon="7.888903476394678"><ele>335.0</ele><time>2026-03-24T17:36:03.998Z</time></trkpt><trkpt lat="44.509053578635275" lon="7.888945247421006"><ele>336.4</ele><time>2026-03-24T17:36:04.998Z</time></trkpt><trkpt lat="44.5091532029112" lon="7.88898965891217"><ele>337.8</ele><time>2026-03-24T17:36:05.998Z</time></trkpt><trkpt lat="44.509254134325275" lon="7.889046343854381"><ele>339.20000000000005</ele><time>2026-03-24T17:36:06.998Z</time></trkpt><trkpt lat="44.50935458912633" lon="7.889113021628089"><ele>340.6</ele><time>2026-03-24T17:36:07.998Z</time></trkpt><trkpt lat="44.50944488230053" lon="7.889174465530578"><ele>342.0</ele><time>2026-03-24T17:36:08.998Z</time></trkpt><trkpt lat="44.50953868454289" lon="7.88924378975027"><ele>341.40000000000003</ele><time>2026-03-24T17:36:09.998Z</time></trkpt><trkpt lat="44.50963267981304" lon="7.88931165403956"><ele>340.8</ele><time>2026-03-24T17:36:10.998Z</time></trkpt><trkpt lat="44.5097194603657" lon="7.889380992622441"><ele>340.2</ele><time>2026-03-24T17:36:11.998Z</time></trkpt><trkpt lat="44.50980659787978" lon="7.889450101150405"><ele>339.6</ele><time>2026-03-24T17:36:12.998Z</time></trkpt><trkpt lat="44.50989403173173" lon="7.889524835682598"><ele>339.0</ele><time>2026-03-24T17:36:14Z</time></trkpt><trkpt lat="44.509975156245396" lon="7.889591954346353"><ele>339.0</ele><time>2026-03-24T17:36:15Z</time></trkpt><trkpt lat="44.51005111839204" lon="7.889657365384647"><ele>339.0</ele><time>2026-03-24T17:36:16Z</time></trkpt><trkpt lat="44.51012423889051" lon="7.889718594941457"><ele>339.0</ele><time>2026-03-24T17:36:17Z</time></trkpt><trkpt lat="44.51019729953827" lon="7.889784837641449"><ele>339.0</ele><time>2026-03-24T17:36:18Z</time></trkpt><trkpt lat="44.510266992492674" lon="7.889845111737854"><ele>339.0</ele><time>2026-03-24T17:36:19Z</time></trkpt><trkpt lat="44.5103315768334" lon="7.889902678134886"><ele>339.0</ele><time>2026-03-24T17:36:20Z</time></trkpt><trkpt lat="44.51044167932416" lon="7.88999648613847"><ele>338.57142857142856</ele><time>2026-03-24T17:36:22Z</time></trkpt><trkpt lat="44.51049678450254" lon="7.890042029429121"><ele>338.14285714285717</ele><time>2026-03-24T17:36:23Z</time></trkpt><trkpt lat="44.510551294822676" lon="7.890092757149042"><ele>337.7142857142857</ele><time>2026-03-24T17:36:24Z</time></trkpt><trkpt lat="44.51061472460565" lon="7.890147369405072"><ele>337.2857142857143</ele><time>2026-03-24T17:36:25Z</time></trkpt><trkpt lat="44.51067596867182" lon="7.890194652947265"><ele>336.8571428571429</ele><time>2026-03-24T17:36:26Z</time></trkpt><trkpt lat="44.51074204165834" lon="7.890247921688585"><ele>336.42857142857144</ele><time>2026-03-24T17:36:27Z</time></trkpt><trkpt lat="44.510808200667576" lon="7.890305459611626"><ele>336.0</ele><time>2026-03-24T17:36:28Z</time></trkpt><trkpt lat="44.51086835721259" lon="7.890360906131416"><ele>336.0</ele><time>2026-03-24T17:36:29Z</time></trkpt><trkpt lat="44.51092796044147" lon="7.890409719385399"><ele>336.0</ele><time>2026-03-24T17:36:30Z</time></trkpt><trkpt lat="44.51099648056087" lon="7.890468563256669"><ele>336.0</ele><time>2026-03-24T17:36:31Z</time></trkpt><trkpt lat="44.511064447089204" lon="7.890525357640397"><ele>336.0</ele><time>2026-03-24T17:36:32Z</time></trkpt><trkpt lat="44.511128157807455" lon="7.890592587297813"><ele>336.0</ele><time>2026-03-24T17:36:33Z</time></trkpt><trkpt lat="44.51119655423179" lon="7.8906653295844"><ele>336.0</ele><time>2026-03-24T17:36:34Z</time></trkpt><trkpt lat="44.511257836784" lon="7.890736345267753"><ele>336.8333333333333</ele><time>2026-03-24T17:36:35Z</time></trkpt><trkpt lat="44.511316800491414" lon="7.890806210205802"><ele>337.6666666666667</ele><time>2026-03-24T17:36:36Z</time></trkpt><trkpt lat="44.511370447380585" lon="7.890868377975936"><ele>338.5</ele><time>2026-03-24T17:36:37Z</time></trkpt><trkpt lat="44.511427479798954" lon="7.890923467994163"><ele>339.33333333333337</ele><time>2026-03-24T17:36:38Z</time></trkpt><trkpt lat="44.51149161429762" lon="7.8909840290565745"><ele>340.1666666666667</ele><time>2026-03-24T17:36:39Z</time></trkpt><trkpt lat="44.51156528610214" lon="7.891034916879174"><ele>341.0</ele><time>2026-03-24T17:36:40Z</time></trkpt><trkpt lat="44.511644615908104" lon="7.891076238278663"><ele>339.1666666666667</ele><time>2026-03-24T17:36:41Z</time></trkpt><trkpt lat="44.51171705759916" lon="7.891093821462872"><ele>337.33333333333337</ele><time>2026-03-24T17:36:42Z</time></trkpt><trkpt lat="44.51178591225348" lon="7.891114222817736"><ele>335.5</ele><time>2026-03-24T17:36:43Z</time></trkpt><trkpt lat="44.511866223358105" lon="7.8911187739677455"><ele>333.6666666666667</ele><time>2026-03-24T17:36:44Z</time></trkpt><trkpt lat="44.51194997875336" lon="7.8911127231030305"><ele>331.8333333333333</ele><time>2026-03-24T17:36:45Z</time></trkpt><trkpt lat="44.512029707685954" lon="7.891101506715978"><ele>330.0</ele><time>2026-03-24T17:36:46Z</time></trkpt><trkpt lat="44.512105987585144" lon="7.8910780459630665"><ele>330.0</ele><time>2026-03-24T17:36:47Z</time></trkpt><trkpt lat="44.512185384672264" lon="7.891065123548898"><ele>330.0</ele><time>2026-03-24T17:36:48Z</time></trkpt><trkpt lat="44.51226794365894" lon="7.891053372411179"><ele>330.0</ele><time>2026-03-24T17:36:49Z</time></trkpt><trkpt lat="44.512342211615135" lon="7.891054097696034"><ele>330.0</ele><time>2026-03-24T17:36:50Z</time></trkpt><trkpt lat="44.5124210214844" lon="7.8910590946312205"><ele>330.0</ele><time>2026-03-24T17:36:51Z</time></trkpt><trkpt lat="44.51250160368837" lon="7.8910732970643895"><ele>330.0</ele><time>2026-03-24T17:36:52Z</time></trkpt><trkpt lat="44.51258087008428" lon="7.8910870752459985"><ele>330.0</ele><time>2026-03-24T17:36:53Z</time></trkpt><trkpt lat="44.51264933997211" lon="7.891107840108631"><ele>330.0</ele><time>2026-03-24T17:36:54Z</time></trkpt><trkpt lat="44.51271590488084" lon="7.89111959403293"><ele>330.0</ele><time>2026-03-24T17:36:55Z</time></trkpt><trkpt lat="44.512781821076885" lon="7.891186347482124"><ele>330.0</ele><time>2026-03-24T17:36:56Z</time></trkpt><trkpt lat="44.512842794447366" lon="7.89123894032384"><ele>330.0</ele><time>2026-03-24T17:36:57Z</time></trkpt><trkpt lat="44.51293864391513" lon="7.891326800417652"><ele>330.0</ele><time>2026-03-24T17:36:58.999Z</time></trkpt><trkpt lat="44.51299547196332" lon="7.891384344387554"><ele>329.8571428571429</ele><time>2026-03-24T17:36:59.999Z</time></trkpt><trkpt lat="44.51306123235562" lon="7.891443497505775"><ele>329.7142857142857</ele><time>2026-03-24T17:37:00.999Z</time></trkpt><trkpt lat="44.51311256587576" lon="7.891496360762307"><ele>329.57142857142856</ele><time>2026-03-24T17:37:01.999Z</time></trkpt><trkpt lat="44.513165833152776" lon="7.891549051801867"><ele>329.42857142857144</ele><time>2026-03-24T17:37:02.999Z</time></trkpt><trkpt lat="44.51322626676714" lon="7.891605908102193"><ele>329.2857142857143</ele><time>2026-03-24T17:37:03.999Z</time></trkpt><trkpt lat="44.5132899902939" lon="7.8916605061262475"><ele>329.14285714285717</ele><time>2026-03-24T17:37:04.999Z</time></trkpt><trkpt lat="44.513344536395984" lon="7.891713630243014"><ele>329.0</ele><time>2026-03-24T17:37:05.999Z</time></trkpt><trkpt lat="44.513399031984314" lon="7.891768344016242"><ele>329.0</ele><time>2026-03-24T17:37:06.999Z</time></trkpt><trkpt lat="44.51345938779921" lon="7.891830343365242"><ele>329.0</ele><time>2026-03-24T17:37:07.999Z</time></trkpt><trkpt lat="44.51351336000617" lon="7.891877247973475"><ele>329.0</ele><time>2026-03-24T17:37:08.999Z</time></trkpt><trkpt lat="44.51357629552989" lon="7.891933123477301"><ele>329.0</ele><time>2026-03-24T17:37:10.999Z</time></trkpt><trkpt lat="44.51363928785308" lon="7.891987012202578"><ele>329.0</ele><time>2026-03-24T17:37:12.999Z</time></trkpt><trkpt lat="44.51368940106754" lon="7.89204191591565"><ele>329.0</ele><time>2026-03-24T17:37:13.999Z</time></trkpt><trkpt lat="44.513773381925546" lon="7.892112410318793"><ele>329.0</ele><time>2026-03-24T17:37:14.999Z</time></trkpt><trkpt lat="44.513836960338466" lon="7.892179589607294"><ele>329.0</ele><time>2026-03-24T17:37:15.999Z</time></trkpt><trkpt lat="44.513910006469445" lon="7.89224825870779"><ele>329.0</ele><time>2026-03-24T17:37:16.999Z</time></trkpt><trkpt lat="44.513977988131295" lon="7.89230601930362"><ele>329.0</ele><time>2026-03-24T17:37:17.999Z</time></trkpt><trkpt lat="44.514051898224665" lon="7.8923614356447915"><ele>329.0</ele><time>2026-03-24T17:37:18.999Z</time></trkpt><trkpt lat="44.514123866146925" lon="7.892410855719933"><ele>329.0</ele><time>2026-03-24T17:37:19.999Z</time></trkpt><trkpt lat="44.514188182166976" lon="7.892456711361511"><ele>329.0</ele><time>2026-03-24T17:37:20.999Z</time></trkpt><trkpt lat="44.5142527599686" lon="7.8925056808469325"><ele>329.0</ele><time>2026-03-24T17:37:21.999Z</time></trkpt><trkpt lat="44.51431357862687" lon="7.892554473812378"><ele>329.0</ele><time>2026-03-24T17:37:22.999Z</time></trkpt><trkpt lat="44.514371028211315" lon="7.892599813310594"><ele>329.0</ele><time>2026-03-24T17:37:23.999Z</time></trkpt><trkpt lat="44.51445672920151" lon="7.892662958653115"><ele>329.0</ele><time>2026-03-24T17:37:25.999Z</time></trkpt><trkpt lat="44.51452011406872" lon="7.8927258082469045"><ele>329.0</ele><time>2026-03-24T17:37:27.999Z</time></trkpt><trkpt lat="44.51462061921064" lon="7.8927653087198"><ele>329.0</ele><time>2026-03-24T17:37:29.999Z</time></trkpt><trkpt lat="44.51468253788621" lon="7.892727937190687"><ele>328.6666666666667</ele><time>2026-03-24T17:37:30.999Z</time></trkpt><trkpt lat="44.51479167423526" lon="7.892711597991146"><ele>328.33333333333337</ele><time>2026-03-24T17:37:32.999Z</time></trkpt><trkpt lat="44.51485867024479" lon="7.892683718168083"><ele>328.0</ele><time>2026-03-24T17:37:33.999Z</time></trkpt><trkpt lat="44.51492320843262" lon="7.892638674883432"><ele>327.6666666666667</ele><time>2026-03-24T17:37:34.999Z</time></trkpt><trkpt lat="44.51498216693095" lon="7.89257875027914"><ele>327.3333333333333</ele><time>2026-03-24T17:37:35.999Z</time></trkpt><trkpt lat="44.51503558321374" lon="7.892515973806386"><ele>327.0</ele><time>2026-03-24T17:37:36.999Z</time></trkpt><trkpt lat="44.51512907253838" lon="7.892408146404832"><ele>327.0</ele><time>2026-03-24T17:37:38.999Z</time></trkpt><trkpt lat="44.51522176117209" lon="7.892304064434607"><ele>327.0</ele><time>2026-03-24T17:37:40.999Z</time></trkpt><trkpt lat="44.51529875040966" lon="7.892226520080399"><ele>327.0</ele><time>2026-03-24T17:37:42.999Z</time></trkpt><trkpt lat="44.515389385269444" lon="7.892156171269961"><ele>327.0</ele><time>2026-03-24T17:37:44.999Z</time></trkpt><trkpt lat="44.51544912424037" lon="7.892127178766568"><ele>327.0</ele><time>2026-03-24T17:37:45.999Z</time></trkpt><trkpt lat="44.515560803168285" lon="7.892087223633968"><ele>327.0</ele><time>2026-03-24T17:37:47.999Z</time></trkpt><trkpt lat="44.515680194968525" lon="7.892113684903795"><ele>327.0</ele><time>2026-03-24T17:37:49.999Z</time></trkpt><trkpt lat="44.51574964134633" lon="7.892130685672231"><ele>327.0</ele><time>2026-03-24T17:37:50.999Z</time></trkpt><trkpt lat="44.5158641155883" lon="7.89213622422791"><ele>327.0</ele><time>2026-03-24T17:37:52.999Z</time></trkpt><trkpt lat="44.515945504635724" lon="7.8921276670397615"><ele>327.0</ele><time>2026-03-24T17:37:54.999Z</time></trkpt><trkpt lat="44.516027422115435" lon="7.8921391046821165"><ele>327.0</ele><time>2026-03-24T17:37:56.999Z</time></trkpt><trkpt lat="44.51611452296209" lon="7.89214142297731"><ele>327.0</ele><time>2026-03-24T17:37:58.998Z</time></trkpt><trkpt lat="44.516238447624026" lon="7.892115103140168"><ele>327.0</ele><time>2026-03-24T17:38:01.998Z</time></trkpt><trkpt lat="44.51634381088754" lon="7.89209875030181"><ele>327.0</ele><time>2026-03-24T17:38:03.998Z</time></trkpt><trkpt lat="44.51645629119874" lon="7.892083819010108"><ele>327.0</ele><time>2026-03-24T17:38:05.998Z</time></trkpt><trkpt lat="44.516551061905204" lon="7.892095501620641"><ele>327.6</ele><time>2026-03-24T17:38:07.998Z</time></trkpt><trkpt lat="44.516655809041616" lon="7.892079880203673"><ele>328.20000000000005</ele><time>2026-03-24T17:38:09.998Z</time></trkpt><trkpt lat="44.51676068128452" lon="7.892094958490863"><ele>328.8</ele><time>2026-03-24T17:38:11.998Z</time></trkpt><trkpt lat="44.51682487400022" lon="7.892101205183586"><ele>329.4</ele><time>2026-03-24T17:38:12.998Z</time></trkpt><trkpt lat="44.51693663260805" lon="7.8921090559816"><ele>330.0</ele><time>2026-03-24T17:38:14.998Z</time></trkpt><trkpt lat="44.516999547048954" lon="7.8921228551716345"><ele>329.0</ele><time>2026-03-24T17:38:15.998Z</time></trkpt><trkpt lat="44.51709424106134" lon="7.892116364384987"><ele>328.0</ele><time>2026-03-24T17:38:17.998Z</time></trkpt><trkpt lat="44.517180573138795" lon="7.892150949045602"><ele>327.0</ele><time>2026-03-24T17:38:20Z</time></trkpt><trkpt lat="44.51737043637871" lon="7.892165264287483"><ele>326.0</ele><time>2026-03-24T17:38:23Z</time></trkpt><trkpt lat="44.51748546391905" lon="7.892191081527493"><ele>326.0</ele><time>2026-03-24T17:38:25Z</time></trkpt><trkpt lat="44.517579491941284" lon="7.892197539638937"><ele>326.0</ele><time>2026-03-24T17:38:27Z</time></trkpt><trkpt lat="44.51767192569022" lon="7.892250608950865"><ele>326.0</ele><time>2026-03-24T17:38:29Z</time></trkpt><trkpt lat="44.51771657456622" lon="7.892397409248156"><ele>326.0</ele><time>2026-03-24T17:38:31Z</time></trkpt><trkpt lat="44.51775683534217" lon="7.892468090016973"><ele>326.0</ele><time>2026-03-24T17:38:32Z</time></trkpt><trkpt lat="44.517783011339006" lon="7.892601523325052"><ele>324.0</ele><time>2026-03-24T17:38:34Z</time></trkpt><trkpt lat="44.517795836672995" lon="7.8927366299619335"><ele>322.0</ele><time>2026-03-24T17:38:36Z</time></trkpt><trkpt lat="44.517746791823626" lon="7.89291210441843"><ele>320.0</ele><time>2026-03-24T17:38:38Z</time></trkpt><trkpt lat="44.517697719290275" lon="7.893000239623534"><ele>318.0</ele><time>2026-03-24T17:38:39Z</time></trkpt><trkpt lat="44.517624606716595" lon="7.8930676200730945"><ele>316.0</ele><time>2026-03-24T17:38:40Z</time></trkpt><trkpt lat="44.5175571940354" lon="7.893130248885517"><ele>316.0</ele><time>2026-03-24T17:38:41Z</time></trkpt><trkpt lat="44.51746489294256" lon="7.8931989788928485"><ele>316.0</ele><time>2026-03-24T17:38:42Z</time></trkpt><trkpt lat="44.51735735484301" lon="7.8932862893978095"><ele>316.0</ele><time>2026-03-24T17:38:43Z</time></trkpt><trkpt lat="44.51724513662527" lon="7.893379729258196"><ele>316.0</ele><time>2026-03-24T17:38:44Z</time></trkpt><trkpt lat="44.51714776333784" lon="7.893458054078971"><ele>314.0</ele><time>2026-03-24T17:38:45Z</time></trkpt><trkpt lat="44.517064415617845" lon="7.893523663560126"><ele>312.0</ele><time>2026-03-24T17:38:46Z</time></trkpt><trkpt lat="44.516994150128696" lon="7.893590487352328"><ele>310.0</ele><time>2026-03-24T17:38:47Z</time></trkpt><trkpt lat="44.516918634473036" lon="7.8936689305378245"><ele>308.0</ele><time>2026-03-24T17:38:48Z</time></trkpt><trkpt lat="44.51683496061344" lon="7.893734161795595"><ele>306.0</ele><time>2026-03-24T17:38:49Z</time></trkpt><trkpt lat="44.51676297574928" lon="7.893806417285564"><ele>306.0</ele><time>2026-03-24T17:38:50Z</time></trkpt><trkpt lat="44.51663321279364" lon="7.893893570539862"><ele>306.0</ele><time>2026-03-24T17:38:52Z</time></trkpt><trkpt lat="44.516574075053484" lon="7.893936327731919"><ele>306.0</ele><time>2026-03-24T17:38:53Z</time></trkpt><trkpt lat="44.51646861671761" lon="7.894039290780181"><ele>306.0</ele><time>2026-03-24T17:38:55Z</time></trkpt><trkpt lat="44.516406986789946" lon="7.894074690406411"><ele>306.0</ele><time>2026-03-24T17:38:56Z</time></trkpt><trkpt lat="44.51629908879735" lon="7.8941367662534265"><ele>307.40000000000003</ele><time>2026-03-24T17:38:58Z</time></trkpt><trkpt lat="44.516222859093276" lon="7.894196643531705"><ele>308.8</ele><time>2026-03-24T17:39:01Z</time></trkpt><trkpt lat="44.51626274498474" lon="7.89430636706517"><ele>310.20000000000005</ele><time>2026-03-24T17:39:03.999Z</time></trkpt><trkpt lat="44.516426833471954" lon="7.8943189303463965"><ele>311.6</ele><time>2026-03-24T17:39:05.999Z</time></trkpt><trkpt lat="44.51651981614079" lon="7.894290970488417"><ele>313.0</ele><time>2026-03-24T17:39:06.999Z</time></trkpt><trkpt lat="44.51660439098875" lon="7.894268470046385"><ele>311.25</ele><time>2026-03-24T17:39:07.999Z</time></trkpt><trkpt lat="44.5167131147804" lon="7.894243863434997"><ele>309.5</ele><time>2026-03-24T17:39:08.999Z</time></trkpt><trkpt lat="44.51684363795996" lon="7.894192564768476"><ele>307.75</ele><time>2026-03-24T17:39:09.999Z</time></trkpt><trkpt lat="44.51697590969353" lon="7.894164970885663"><ele>306.0</ele><time>2026-03-24T17:39:10.999Z</time></trkpt><trkpt lat="44.51710395381565" lon="7.894134998009929"><ele>303.75</ele><time>2026-03-24T17:39:11.999Z</time></trkpt><trkpt lat="44.517222484298784" lon="7.894108978519922"><ele>301.5</ele><time>2026-03-24T17:39:12.999Z</time></trkpt><trkpt lat="44.51733722128404" lon="7.894102221894256"><ele>299.25</ele><time>2026-03-24T17:39:13.999Z</time></trkpt><trkpt lat="44.517443529859634" lon="7.8940777292543185"><ele>297.0</ele><time>2026-03-24T17:39:14.999Z</time></trkpt><trkpt lat="44.51756242166518" lon="7.894050929931578"><ele>297.0</ele><time>2026-03-24T17:39:15.999Z</time></trkpt><trkpt lat="44.51768268282371" lon="7.894025837299785"><ele>297.0</ele><time>2026-03-24T17:39:16.999Z</time></trkpt><trkpt lat="44.517793883424055" lon="7.89400132647656"><ele>297.0</ele><time>2026-03-24T17:39:17.999Z</time></trkpt><trkpt lat="44.517906170023544" lon="7.894000120124461"><ele>297.0</ele><time>2026-03-24T17:39:18.999Z</time></trkpt><trkpt lat="44.51802392496951" lon="7.893956544732758"><ele>295.6</ele><time>2026-03-24T17:39:19.999Z</time></trkpt><trkpt lat="44.518139257856674" lon="7.893933696863968"><ele>294.2</ele><time>2026-03-24T17:39:20.999Z</time></trkpt><trkpt lat="44.51824527421027" lon="7.893917404855667"><ele>292.8</ele><time>2026-03-24T17:39:21.999Z</time></trkpt><trkpt lat="44.51834993051329" lon="7.893898913155828"><ele>291.4</ele><time>2026-03-24T17:39:22.999Z</time></trkpt><trkpt lat="44.518462287542455" lon="7.8938701679148915"><ele>290.0</ele><time>2026-03-24T17:39:23.999Z</time></trkpt><trkpt lat="44.518576935082756" lon="7.8938486583891905"><ele>290.0</ele><time>2026-03-24T17:39:24.999Z</time></trkpt><trkpt lat="44.518691871021026" lon="7.893827392592097"><ele>290.0</ele><time>2026-03-24T17:39:25.999Z</time></trkpt><trkpt lat="44.5187876214289" lon="7.893800328168211"><ele>290.0</ele><time>2026-03-24T17:39:26.999Z</time></trkpt><trkpt lat="44.51888709623671" lon="7.893779134758534"><ele>290.0</ele><time>2026-03-24T17:39:27.999Z</time></trkpt><trkpt lat="44.5189733504528" lon="7.893765450331058"><ele>290.0</ele><time>2026-03-24T17:39:28.999Z</time></trkpt><trkpt lat="44.51908201139604" lon="7.893738600947259"><ele>288.2</ele><time>2026-03-24T17:39:29.999Z</time></trkpt><trkpt lat="44.519173050173976" lon="7.893714067259102"><ele>286.4</ele><time>2026-03-24T17:39:30.999Z</time></trkpt><trkpt lat="44.519263254039515" lon="7.893700463693604"><ele>284.6</ele><time>2026-03-24T17:39:31.999Z</time></trkpt><trkpt lat="44.51934919877225" lon="7.893692242916753"><ele>282.8</ele><time>2026-03-24T17:39:32.999Z</time></trkpt><trkpt lat="44.5194396219713" lon="7.893683311201612"><ele>281.0</ele><time>2026-03-24T17:39:33.999Z</time></trkpt><trkpt lat="44.519529223627636" lon="7.893673724835139"><ele>281.0</ele><time>2026-03-24T17:39:34.999Z</time></trkpt><trkpt lat="44.519623103418034" lon="7.893664964861027"><ele>281.0</ele><time>2026-03-24T17:39:35.999Z</time></trkpt><trkpt lat="44.51973053095442" lon="7.8936534870145545"><ele>281.0</ele><time>2026-03-24T17:39:36.999Z</time></trkpt><trkpt lat="44.51985206715592" lon="7.893636581258473"><ele>281.0</ele><time>2026-03-24T17:39:37.999Z</time></trkpt><trkpt lat="44.519976311382436" lon="7.8936253695540675"><ele>281.0</ele><time>2026-03-24T17:39:38.999Z</time></trkpt><trkpt lat="44.52010382897795" lon="7.89363122710114"><ele>281.0</ele><time>2026-03-24T17:39:39.999Z</time></trkpt><trkpt lat="44.520229786966574" lon="7.893655041324192"><ele>281.0</ele><time>2026-03-24T17:39:40.999Z</time></trkpt><trkpt lat="44.52036270802379" lon="7.893687146194222"><ele>281.0</ele><time>2026-03-24T17:39:41.999Z</time></trkpt><trkpt lat="44.52048227433463" lon="7.893743759008156"><ele>281.0</ele><time>2026-03-24T17:39:42.999Z</time></trkpt><trkpt lat="44.520599300483795" lon="7.8938104197393555"><ele>280.25</ele><time>2026-03-24T17:39:43.999Z</time></trkpt><trkpt lat="44.52072126602525" lon="7.89388084902803"><ele>279.5</ele><time>2026-03-24T17:39:44.999Z</time></trkpt><trkpt lat="44.52084485678008" lon="7.893977513063021"><ele>278.75</ele><time>2026-03-24T17:39:45.999Z</time></trkpt><trkpt lat="44.520973656994116" lon="7.894082279560758"><ele>278.0</ele><time>2026-03-24T17:39:46.999Z</time></trkpt><trkpt lat="44.521105265814626" lon="7.894204587001093"><ele>276.33333333333337</ele><time>2026-03-24T17:39:47.999Z</time></trkpt><trkpt lat="44.521237680429785" lon="7.894332062242423"><ele>274.6666666666667</ele><time>2026-03-24T17:39:48.999Z</time></trkpt><trkpt lat="44.52136573802105" lon="7.894454714456664"><ele>273.0</ele><time>2026-03-24T17:39:49.999Z</time></trkpt><trkpt lat="44.52148250640438" lon="7.894554904125434"><ele>273.0</ele><time>2026-03-24T17:39:50.999Z</time></trkpt><trkpt lat="44.521595791274414" lon="7.894656131735427"><ele>273.0</ele><time>2026-03-24T17:39:51.999Z</time></trkpt><trkpt lat="44.521697416514236" lon="7.894758611676314"><ele>273.0</ele><time>2026-03-24T17:39:52.999Z</time></trkpt><trkpt lat="44.521790149983914" lon="7.894857278816294"><ele>273.0</ele><time>2026-03-24T17:39:53.999Z</time></trkpt><trkpt lat="44.52186927103054" lon="7.894991314857606"><ele>272.5</ele><time>2026-03-24T17:39:54.999Z</time></trkpt><trkpt lat="44.52195500534348" lon="7.895100396388872"><ele>272.0</ele><time>2026-03-24T17:39:55.999Z</time></trkpt><trkpt lat="44.52203027914981" lon="7.895236254257641"><ele>271.5</ele><time>2026-03-24T17:39:56.999Z</time></trkpt><trkpt lat="44.522095411349774" lon="7.895370384948061"><ele>271.0</ele><time>2026-03-24T17:39:57.999Z</time></trkpt><trkpt lat="44.52213764506325" lon="7.895528371098002"><ele>268.75</ele><time>2026-03-24T17:39:58.999Z</time></trkpt><trkpt lat="44.52218869359294" lon="7.895676262218183"><ele>266.5</ele><time>2026-03-24T17:39:59.999Z</time></trkpt><trkpt lat="44.52222791002674" lon="7.895824466269549"><ele>264.25</ele><time>2026-03-24T17:40:00.999Z</time></trkpt><trkpt lat="44.52227680867438" lon="7.895970373252471"><ele>262.0</ele><time>2026-03-24T17:40:01.999Z</time></trkpt><trkpt lat="44.52230052498093" lon="7.896119736975796"><ele>260.0</ele><time>2026-03-24T17:40:02.998Z</time></trkpt><trkpt lat="44.52232032564672" lon="7.896279777491309"><ele>258.0</ele><time>2026-03-24T17:40:03.998Z</time></trkpt><trkpt lat="44.52232062564644" lon="7.896455198996042"><ele>256.0</ele><time>2026-03-24T17:40:04.998Z</time></trkpt><trkpt lat="44.52232944710984" lon="7.896654784542914"><ele>254.0</ele><time>2026-03-24T17:40:05.998Z</time></trkpt><trkpt lat="44.52232141609248" lon="7.896853404044227"><ele>253.0</ele><time>2026-03-24T17:40:06.998Z</time></trkpt><trkpt lat="44.52230711592402" lon="7.897049269174118"><ele>252.0</ele><time>2026-03-24T17:40:07.998Z</time></trkpt><trkpt lat="44.522304193499735" lon="7.8972565520259765"><ele>251.0</ele><time>2026-03-24T17:40:08.998Z</time></trkpt><trkpt lat="44.52230018435676" lon="7.897436977194727"><ele>250.0</ele><time>2026-03-24T17:40:09.998Z</time></trkpt><trkpt lat="44.52231041865812" lon="7.897631384802391"><ele>249.5</ele><time>2026-03-24T17:40:10.998Z</time></trkpt><trkpt lat="44.52231343024682" lon="7.897812667310163"><ele>249.0</ele><time>2026-03-24T17:40:11.998Z</time></trkpt><trkpt lat="44.522316916481024" lon="7.897990434094886"><ele>248.5</ele><time>2026-03-24T17:40:12.998Z</time></trkpt><trkpt lat="44.52232820225326" lon="7.898180989407355"><ele>248.0</ele><time>2026-03-24T17:40:13.998Z</time></trkpt><trkpt lat="44.52232519993034" lon="7.89835436546976"><ele>247.4</ele><time>2026-03-24T17:40:14.998Z</time></trkpt><trkpt lat="44.522307465648325" lon="7.898517422553276"><ele>246.8</ele><time>2026-03-24T17:40:15.998Z</time></trkpt><trkpt lat="44.522284895968816" lon="7.898689820091811"><ele>246.2</ele><time>2026-03-24T17:40:16.998Z</time></trkpt><trkpt lat="44.52231125701529" lon="7.898825791288691"><ele>245.6</ele><time>2026-03-24T17:40:17.998Z</time></trkpt><trkpt lat="44.52231566707601" lon="7.89897383612805"><ele>245.0</ele><time>2026-03-24T17:40:18.998Z</time></trkpt><trkpt lat="44.52232221743204" lon="7.899124631715399"><ele>244.4</ele><time>2026-03-24T17:40:19.998Z</time></trkpt><trkpt lat="44.52231267054424" lon="7.8992620115821985"><ele>243.8</ele><time>2026-03-24T17:40:20.998Z</time></trkpt><trkpt lat="44.52230710309497" lon="7.899354948608437"><ele>243.2</ele><time>2026-03-24T17:40:21.998Z</time></trkpt><trkpt lat="44.52229834427621" lon="7.899453521976167"><ele>242.6</ele><time>2026-03-24T17:40:22.998Z</time></trkpt><trkpt lat="44.522253605802916" lon="7.8996273135191295"><ele>242.0</ele><time>2026-03-24T17:40:24.998Z</time></trkpt><trkpt lat="44.52223826047377" lon="7.899769156608844"><ele>242.0</ele><time>2026-03-24T17:40:27Z</time></trkpt><trkpt lat="44.52224797990486" lon="7.899883840970136"><ele>242.0</ele><time>2026-03-24T17:40:29Z</time></trkpt><trkpt lat="44.5223003200747" lon="7.900025625996911"><ele>242.0</ele><time>2026-03-24T17:40:31Z</time></trkpt><trkpt lat="44.52232483605719" lon="7.900125047954218"><ele>242.0</ele><time>2026-03-24T17:40:34Z</time></trkpt><trkpt lat="44.522451611317656" lon="7.900177720998729"><ele>242.0</ele><time>2026-03-24T17:40:36Z</time></trkpt><trkpt lat="44.52254941216556" lon="7.900189416843363"><ele>242.0</ele><time>2026-03-24T17:40:37Z</time></trkpt><trkpt lat="44.522644906560906" lon="7.900193573924424"><ele>242.0</ele><time>2026-03-24T17:40:38Z</time></trkpt><trkpt lat="44.522755199425134" lon="7.900178696279337"><ele>242.0</ele><time>2026-03-24T17:40:39Z</time></trkpt><trkpt lat="44.52288445679306" lon="7.9001701202943675"><ele>242.0</ele><time>2026-03-24T17:40:40Z</time></trkpt><trkpt lat="44.52301220938052" lon="7.900155321461967"><ele>242.0</ele><time>2026-03-24T17:40:41Z</time></trkpt><trkpt lat="44.523165436105664" lon="7.900152015988609"><ele>242.0</ele><time>2026-03-24T17:40:42Z</time></trkpt><trkpt lat="44.52331098798085" lon="7.900151586411887"><ele>242.0</ele><time>2026-03-24T17:40:43Z</time></trkpt><trkpt lat="44.52344511120476" lon="7.90015486284316"><ele>242.0</ele><time>2026-03-24T17:40:44Z</time></trkpt><trkpt lat="44.52362616703186" lon="7.900147646557812"><ele>242.33333333333334</ele><time>2026-03-24T17:40:45Z</time></trkpt><trkpt lat="44.52377575145788" lon="7.900135848148635"><ele>242.66666666666669</ele><time>2026-03-24T17:40:46Z</time></trkpt><trkpt lat="44.52394695574387" lon="7.900130359828643"><ele>243.0</ele><time>2026-03-24T17:40:47Z</time></trkpt><trkpt lat="44.524103676787895" lon="7.900126921582141"><ele>243.0</ele><time>2026-03-24T17:40:48Z</time></trkpt><trkpt lat="44.5242603595298" lon="7.900119099733131"><ele>243.0</ele><time>2026-03-24T17:40:49Z</time></trkpt><trkpt lat="44.52440912993327" lon="7.90011151484681"><ele>243.0</ele><time>2026-03-24T17:40:50Z</time></trkpt><trkpt lat="44.524563078186326" lon="7.900098264023431"><ele>242.33333333333331</ele><time>2026-03-24T17:40:51Z</time></trkpt><trkpt lat="44.524710685098285" lon="7.900103859283143"><ele>241.66666666666666</ele><time>2026-03-24T17:40:52Z</time></trkpt><trkpt lat="44.52486469720353" lon="7.90010246361517"><ele>241.0</ele><time>2026-03-24T17:40:53Z</time></trkpt><trkpt lat="44.52501503998413" lon="7.900090662254307"><ele>241.0</ele><time>2026-03-24T17:40:54Z</time></trkpt><trkpt lat="44.52516212105672" lon="7.900087961704547"><ele>241.0</ele><time>2026-03-24T17:40:55Z</time></trkpt><trkpt lat="44.52530469772272" lon="7.900085277198763"><ele>241.0</ele><time>2026-03-24T17:40:56Z</time></trkpt><trkpt lat="44.52544657951809" lon="7.900074068145251"><ele>241.0</ele><time>2026-03-24T17:40:57Z</time></trkpt><trkpt lat="44.52559644182276" lon="7.900075312912595"><ele>241.75</ele><time>2026-03-24T17:40:58Z</time></trkpt><trkpt lat="44.525730769033636" lon="7.900081435573526"><ele>242.5</ele><time>2026-03-24T17:40:59Z</time></trkpt><trkpt lat="44.52586200534731" lon="7.900081256388233"><ele>243.25</ele><time>2026-03-24T17:41:00Z</time></trkpt><trkpt lat="44.52600148946044" lon="7.900095381445532"><ele>244.0</ele><time>2026-03-24T17:41:01Z</time></trkpt><trkpt lat="44.52615613549062" lon="7.900093790435331"><ele>243.66666666666666</ele><time>2026-03-24T17:41:02Z</time></trkpt><trkpt lat="44.52631162907904" lon="7.900065472775153"><ele>243.33333333333331</ele><time>2026-03-24T17:41:03Z</time></trkpt><trkpt lat="44.52646297623397" lon="7.900062519244794"><ele>243.0</ele><time>2026-03-24T17:41:04Z</time></trkpt><trkpt lat="44.526607938235514" lon="7.900051889199248"><ele>243.0</ele><time>2026-03-24T17:41:05Z</time></trkpt><trkpt lat="44.526762823777595" lon="7.900045842627707"><ele>243.0</ele><time>2026-03-24T17:41:06Z</time></trkpt><trkpt lat="44.526904316674205" lon="7.90003468939771"><ele>243.0</ele><time>2026-03-24T17:41:07Z</time></trkpt><trkpt lat="44.527041009809246" lon="7.9000291431083935"><ele>243.0</ele><time>2026-03-24T17:41:08Z</time></trkpt><trkpt lat="44.527183876633735" lon="7.900042427894109"><ele>244.5</ele><time>2026-03-24T17:41:08.999Z</time></trkpt><trkpt lat="44.527328551641766" lon="7.900034215529129"><ele>246.0</ele><time>2026-03-24T17:41:09.999Z</time></trkpt><trkpt lat="44.52746160010732" lon="7.900027618251867"><ele>247.5</ele><time>2026-03-24T17:41:10.999Z</time></trkpt><trkpt lat="44.52759044635833" lon="7.900038470956469"><ele>249.0</ele><time>2026-03-24T17:41:11.999Z</time></trkpt><trkpt lat="44.527709463122676" lon="7.900036808984025"><ele>249.0</ele><time>2026-03-24T17:41:12.999Z</time></trkpt><trkpt lat="44.52782789628626" lon="7.900037957665585"><ele>249.0</ele><time>2026-03-24T17:41:13.999Z</time></trkpt><trkpt lat="44.52795070583294" lon="7.90004415686526"><ele>249.0</ele><time>2026-03-24T17:41:14.999Z</time></trkpt><trkpt lat="44.528073014369994" lon="7.900039424198092"><ele>249.0</ele><time>2026-03-24T17:41:15.999Z</time></trkpt><trkpt lat="44.528193674153904" lon="7.900038748413492"><ele>250.25</ele><time>2026-03-24T17:41:16.999Z</time></trkpt><trkpt lat="44.52831672727957" lon="7.900041361997377"><ele>251.5</ele><time>2026-03-24T17:41:17.999Z</time></trkpt><trkpt lat="44.528448695809196" lon="7.900036336325662"><ele>252.75</ele><time>2026-03-24T17:41:18.999Z</time></trkpt><trkpt lat="44.52855861213644" lon="7.900040366969927"><ele>254.0</ele><time>2026-03-24T17:41:19.999Z</time></trkpt><trkpt lat="44.52870638434723" lon="7.900036739605115"><ele>252.75</ele><time>2026-03-24T17:41:20.999Z</time></trkpt><trkpt lat="44.528834690166164" lon="7.900014607654535"><ele>251.5</ele><time>2026-03-24T17:41:21.999Z</time></trkpt><trkpt lat="44.52895538467466" lon="7.900018791548655"><ele>250.25</ele><time>2026-03-24T17:41:22.999Z</time></trkpt><trkpt lat="44.52908519563672" lon="7.900029832496614"><ele>249.0</ele><time>2026-03-24T17:41:23.999Z</time></trkpt><trkpt lat="44.529203530693565" lon="7.900005881636147"><ele>249.0</ele><time>2026-03-24T17:41:24.999Z</time></trkpt><trkpt lat="44.529351796005216" lon="7.900022377250797"><ele>249.0</ele><time>2026-03-24T17:41:25.999Z</time></trkpt><trkpt lat="44.52946149295899" lon="7.900023792825646"><ele>249.0</ele><time>2026-03-24T17:41:26.999Z</time></trkpt><trkpt lat="44.52961221673989" lon="7.90000680999863"><ele>249.0</ele><time>2026-03-24T17:41:27.999Z</time></trkpt><trkpt lat="44.52976414283405" lon="7.900011101171864"><ele>249.5</ele><time>2026-03-24T17:41:28.999Z</time></trkpt><trkpt lat="44.529911757483255" lon="7.90000670376486"><ele>250.0</ele><time>2026-03-24T17:41:29.999Z</time></trkpt><trkpt lat="44.5300553643247" lon="7.900002877120218"><ele>250.5</ele><time>2026-03-24T17:41:30.999Z</time></trkpt><trkpt lat="44.530206360108586" lon="7.900001771572657"><ele>251.0</ele><time>2026-03-24T17:41:31.999Z</time></trkpt><trkpt lat="44.53035131597896" lon="7.8999954332202185"><ele>251.0</ele><time>2026-03-24T17:41:32.999Z</time></trkpt><trkpt lat="44.5305085205453" lon="7.899992251011372"><ele>251.0</ele><time>2026-03-24T17:41:33.999Z</time></trkpt><trkpt lat="44.53067271179873" lon="7.899983560687251"><ele>251.0</ele><time>2026-03-24T17:41:34.999Z</time></trkpt><trkpt lat="44.53083140815002" lon="7.899980967163435"><ele>251.0</ele><time>2026-03-24T17:41:35.999Z</time></trkpt><trkpt lat="44.530994653679365" lon="7.899992577066098"><ele>251.0</ele><time>2026-03-24T17:41:36.999Z</time></trkpt><trkpt lat="44.531149821587306" lon="7.89998355978201"><ele>251.0</ele><time>2026-03-24T17:41:37.999Z</time></trkpt><trkpt lat="44.53130227187683" lon="7.900003133438099"><ele>251.0</ele><time>2026-03-24T17:41:38.999Z</time></trkpt><trkpt lat="44.5314556795353" lon="7.899969396668823"><ele>251.0</ele><time>2026-03-24T17:41:39.999Z</time></trkpt><trkpt lat="44.53160788719776" lon="7.899976551701322"><ele>251.0</ele><time>2026-03-24T17:41:40.999Z</time></trkpt><trkpt lat="44.531761591517224" lon="7.899968660875749"><ele>251.0</ele><time>2026-03-24T17:41:41.999Z</time></trkpt><trkpt lat="44.53190018684961" lon="7.899978290772435"><ele>251.0</ele><time>2026-03-24T17:41:42.999Z</time></trkpt><trkpt lat="44.532058278981076" lon="7.899970493415127"><ele>251.0</ele><time>2026-03-24T17:41:43.999Z</time></trkpt><trkpt lat="44.53221771529072" lon="7.899963580047816"><ele>251.0</ele><time>2026-03-24T17:41:44.999Z</time></trkpt><trkpt lat="44.53237265435937" lon="7.899959980882924"><ele>251.0</ele><time>2026-03-24T17:41:45.999Z</time></trkpt><trkpt lat="44.53252862163548" lon="7.899955703828021"><ele>251.0</ele><time>2026-03-24T17:41:46.999Z</time></trkpt><trkpt lat="44.532686006006166" lon="7.899952418545288"><ele>251.0</ele><time>2026-03-24T17:41:47.999Z</time></trkpt><trkpt lat="44.53285050403423" lon="7.899947862757713"><ele>251.0</ele><time>2026-03-24T17:41:48.999Z</time></trkpt><trkpt lat="44.53300536707268" lon="7.899946886357559"><ele>251.0</ele><time>2026-03-24T17:41:49.999Z</time></trkpt><trkpt lat="44.53317731132916" lon="7.899938202539477"><ele>250.33333333333334</ele><time>2026-03-24T17:41:50.999Z</time></trkpt><trkpt lat="44.53333960301084" lon="7.899947768520973"><ele>249.66666666666669</ele><time>2026-03-24T17:41:51.999Z</time></trkpt><trkpt lat="44.533509333310015" lon="7.899937284596281"><ele>249.0</ele><time>2026-03-24T17:41:52.999Z</time></trkpt><trkpt lat="44.5336649021422" lon="7.899941533040487"><ele>248.66666666666669</ele><time>2026-03-24T17:41:53.999Z</time></trkpt><trkpt lat="44.53384358935825" lon="7.8999322933441185"><ele>248.33333333333334</ele><time>2026-03-24T17:41:54.999Z</time></trkpt><trkpt lat="44.53400996110967" lon="7.899930590196086"><ele>248.0</ele><time>2026-03-24T17:41:55.999Z</time></trkpt><trkpt lat="44.534185996571935" lon="7.899925601414649"><ele>248.0</ele><time>2026-03-24T17:41:56.999Z</time></trkpt><trkpt lat="44.53434870075941" lon="7.899920069313444"><ele>248.0</ele><time>2026-03-24T17:41:57.999Z</time></trkpt><trkpt lat="44.53452889670052" lon="7.899921865435009"><ele>248.0</ele><time>2026-03-24T17:41:58.999Z</time></trkpt><trkpt lat="44.534694513452564" lon="7.899928362387297"><ele>248.66666666666669</ele><time>2026-03-24T17:41:59.999Z</time></trkpt><trkpt lat="44.534855431835304" lon="7.899899826388123"><ele>249.33333333333331</ele><time>2026-03-24T17:42:00.999Z</time></trkpt><trkpt lat="44.535024263072465" lon="7.8999079244072465"><ele>250.0</ele><time>2026-03-24T17:42:01.999Z</time></trkpt><trkpt lat="44.53518999441165" lon="7.8999140764320135"><ele>250.0</ele><time>2026-03-24T17:42:02.999Z</time></trkpt><trkpt lat="44.53535690301627" lon="7.899909045508559"><ele>250.0</ele><time>2026-03-24T17:42:03.999Z</time></trkpt><trkpt lat="44.5355315420985" lon="7.899911591662679"><ele>250.0</ele><time>2026-03-24T17:42:04.999Z</time></trkpt><trkpt lat="44.53569267780948" lon="7.899901233437962"><ele>250.25</ele><time>2026-03-24T17:42:05.999Z</time></trkpt><trkpt lat="44.53582978047302" lon="7.899900590677755"><ele>250.5</ele><time>2026-03-24T17:42:06.999Z</time></trkpt><trkpt lat="44.535985052609945" lon="7.899901513015541"><ele>250.75</ele><time>2026-03-24T17:42:07.999Z</time></trkpt><trkpt lat="44.53613330176658" lon="7.899900647276325"><ele>251.0</ele><time>2026-03-24T17:42:08.998Z</time></trkpt><trkpt lat="44.53628118745894" lon="7.8998945264061735"><ele>250.0</ele><time>2026-03-24T17:42:09.998Z</time></trkpt><trkpt lat="44.53643224638802" lon="7.899890283782429"><ele>249.0</ele><time>2026-03-24T17:42:10.998Z</time></trkpt><trkpt lat="44.536584261581375" lon="7.89988356481842"><ele>248.0</ele><time>2026-03-24T17:42:11.998Z</time></trkpt><trkpt lat="44.536737382310676" lon="7.899884308107251"><ele>248.0</ele><time>2026-03-24T17:42:12.998Z</time></trkpt><trkpt lat="44.53689452226315" lon="7.899881141910229"><ele>248.0</ele><time>2026-03-24T17:42:13.998Z</time></trkpt><trkpt lat="44.53703783382953" lon="7.899879308126028"><ele>248.0</ele><time>2026-03-24T17:42:14.998Z</time></trkpt><trkpt lat="44.537208884650404" lon="7.899863430338323"><ele>247.66666666666669</ele><time>2026-03-24T17:42:15.998Z</time></trkpt><trkpt lat="44.53737241083368" lon="7.899838637759167"><ele>247.33333333333331</ele><time>2026-03-24T17:42:16.998Z</time></trkpt><trkpt lat="44.53753827827977" lon="7.899827761907566"><ele>247.0</ele><time>2026-03-24T17:42:17.998Z</time></trkpt><trkpt lat="44.53768687868728" lon="7.8998016601203505"><ele>247.0</ele><time>2026-03-24T17:42:18.998Z</time></trkpt><trkpt lat="44.53783584224269" lon="7.899766525286728"><ele>247.0</ele><time>2026-03-24T17:42:19.998Z</time></trkpt><trkpt lat="44.538010188078395" lon="7.899736341383876"><ele>247.0</ele><time>2026-03-24T17:42:20.998Z</time></trkpt><trkpt lat="44.5381641472502" lon="7.89969238828824"><ele>247.0</ele><time>2026-03-24T17:42:21.998Z</time></trkpt><trkpt lat="44.53834163563442" lon="7.899639404911729"><ele>247.0</ele><time>2026-03-24T17:42:22.998Z</time></trkpt><trkpt lat="44.538524988784395" lon="7.899588105667525"><ele>247.0</ele><time>2026-03-24T17:42:23.998Z</time></trkpt><trkpt lat="44.53870164778109" lon="7.899537978541981"><ele>245.33333333333331</ele><time>2026-03-24T17:42:24.998Z</time></trkpt><trkpt lat="44.53887917184734" lon="7.899488416538943"><ele>243.66666666666669</ele><time>2026-03-24T17:42:25.998Z</time></trkpt><trkpt lat="44.53904887795277" lon="7.899450102966341"><ele>242.0</ele><time>2026-03-24T17:42:26.998Z</time></trkpt><trkpt lat="44.53923292263141" lon="7.899391786360838"><ele>242.0</ele><time>2026-03-24T17:42:27.998Z</time></trkpt><trkpt lat="44.53942757199819" lon="7.8993241564239955"><ele>242.0</ele><time>2026-03-24T17:42:28.998Z</time></trkpt><trkpt lat="44.53962651287128" lon="7.89925476110846"><ele>242.0</ele><time>2026-03-24T17:42:29.998Z</time></trkpt><trkpt lat="44.53982169908652" lon="7.899200758373284"><ele>240.33333333333334</ele><time>2026-03-24T17:42:30.998Z</time></trkpt><trkpt lat="44.540014625069404" lon="7.899138347198587"><ele>238.66666666666669</ele><time>2026-03-24T17:42:32Z</time></trkpt><trkpt lat="44.54022598175416" lon="7.8990656330749776"><ele>237.0</ele><time>2026-03-24T17:42:33Z</time></trkpt><trkpt lat="44.54044046111279" lon="7.898993756697738"><ele>234.5</ele><time>2026-03-24T17:42:34Z</time></trkpt><trkpt lat="44.54066227269493" lon="7.8989278945042765"><ele>232.0</ele><time>2026-03-24T17:42:35Z</time></trkpt><trkpt lat="44.54089156068769" lon="7.898855713685072"><ele>232.0</ele><time>2026-03-24T17:42:36Z</time></trkpt><trkpt lat="44.5411337663499" lon="7.898783998537269"><ele>232.0</ele><time>2026-03-24T17:42:37Z</time></trkpt><trkpt lat="44.541372442702645" lon="7.898713151269933"><ele>231.5</ele><time>2026-03-24T17:42:38Z</time></trkpt><trkpt lat="44.54162062338497" lon="7.8986359973176725"><ele>231.0</ele><time>2026-03-24T17:42:39Z</time></trkpt><trkpt lat="44.541862392495545" lon="7.898571035129111"><ele>231.0</ele><time>2026-03-24T17:42:40Z</time></trkpt><trkpt lat="44.54210866067093" lon="7.898488025006716"><ele>231.0</ele><time>2026-03-24T17:42:41Z</time></trkpt><trkpt lat="44.54236522285534" lon="7.898405573844316"><ele>231.0</ele><time>2026-03-24T17:42:42Z</time></trkpt><trkpt lat="44.542602089835" lon="7.898313917110939"><ele>231.0</ele><time>2026-03-24T17:42:43Z</time></trkpt><trkpt lat="44.54283043384892" lon="7.898227462179035"><ele>231.5</ele><time>2026-03-24T17:42:44Z</time></trkpt><trkpt lat="44.54305817520382" lon="7.898164662461375"><ele>232.0</ele><time>2026-03-24T17:42:45Z</time></trkpt><trkpt lat="44.54328800694452" lon="7.898092577175841"><ele>232.0</ele><time>2026-03-24T17:42:46Z</time></trkpt><trkpt lat="44.543525315446345" lon="7.898030950577526"><ele>232.0</ele><time>2026-03-24T17:42:47Z</time></trkpt><trkpt lat="44.543752425599806" lon="7.897943485770726"><ele>230.5</ele><time>2026-03-24T17:42:48Z</time></trkpt><trkpt lat="44.543981335825784" lon="7.897872257980128"><ele>229.0</ele><time>2026-03-24T17:42:49Z</time></trkpt><trkpt lat="44.5442117805366" lon="7.897824496583873"><ele>229.0</ele><time>2026-03-24T17:42:50Z</time></trkpt><trkpt lat="44.54445267518024" lon="7.897749950798754"><ele>229.0</ele><time>2026-03-24T17:42:51Z</time></trkpt><trkpt lat="44.54466901476757" lon="7.897672589939386"><ele>229.0</ele><time>2026-03-24T17:42:52Z</time></trkpt><trkpt lat="44.544894927463865" lon="7.897608444064203"><ele>229.0</ele><time>2026-03-24T17:42:53Z</time></trkpt><trkpt lat="44.54513006895139" lon="7.897531527373513"><ele>229.0</ele><time>2026-03-24T17:42:54Z</time></trkpt><trkpt lat="44.545348743231685" lon="7.89746873098736"><ele>229.0</ele><time>2026-03-24T17:42:55Z</time></trkpt><trkpt lat="44.5455746075923" lon="7.897396909115135"><ele>229.0</ele><time>2026-03-24T17:42:56Z</time></trkpt><trkpt lat="44.54580545417272" lon="7.897337380316513"><ele>229.0</ele><time>2026-03-24T17:42:57Z</time></trkpt><trkpt lat="44.546004426446075" lon="7.897263324451718"><ele>229.0</ele><time>2026-03-24T17:42:58Z</time></trkpt><trkpt lat="44.54619818188328" lon="7.8972098011058804"><ele>229.0</ele><time>2026-03-24T17:42:59Z</time></trkpt><trkpt lat="44.546413040074505" lon="7.897140840967432"><ele>229.0</ele><time>2026-03-24T17:43:00Z</time></trkpt><trkpt lat="44.546618139950105" lon="7.897081513721844"><ele>229.0</ele><time>2026-03-24T17:43:01Z</time></trkpt><trkpt lat="44.54682130466564" lon="7.897024925952051"><ele>229.0</ele><time>2026-03-24T17:43:02Z</time></trkpt><trkpt lat="44.54704250109847" lon="7.896956865357205"><ele>229.0</ele><time>2026-03-24T17:43:03Z</time></trkpt><trkpt lat="44.54725528202933" lon="7.896895344426409"><ele>229.0</ele><time>2026-03-24T17:43:04Z</time></trkpt><trkpt lat="44.54744330791021" lon="7.896848431317555"><ele>229.0</ele><time>2026-03-24T17:43:05Z</time></trkpt><trkpt lat="44.54763759045556" lon="7.896816579160082"><ele>229.0</ele><time>2026-03-24T17:43:06Z</time></trkpt><trkpt lat="44.54784319798071" lon="7.896770071803402"><ele>229.0</ele><time>2026-03-24T17:43:07Z</time></trkpt><trkpt lat="44.548037784000506" lon="7.896752058775228"><ele>230.0</ele><time>2026-03-24T17:43:08Z</time></trkpt><trkpt lat="44.54824082897351" lon="7.8967319844861645"><ele>231.0</ele><time>2026-03-24T17:43:09Z</time></trkpt><trkpt lat="44.54844435053586" lon="7.89671603438158"><ele>232.0</ele><time>2026-03-24T17:43:10Z</time></trkpt><trkpt lat="44.54864021753879" lon="7.896714117606407"><ele>232.66666666666666</ele><time>2026-03-24T17:43:11Z</time></trkpt><trkpt lat="44.54883755251244" lon="7.896714644193331"><ele>233.33333333333331</ele><time>2026-03-24T17:43:12Z</time></trkpt><trkpt lat="44.54903210772332" lon="7.896724518824619"><ele>234.0</ele><time>2026-03-24T17:43:12.999Z</time></trkpt><trkpt lat="44.549227421428355" lon="7.896741369074836"><ele>234.0</ele><time>2026-03-24T17:43:13.999Z</time></trkpt><trkpt lat="44.54943079585695" lon="7.896751097492319"><ele>234.0</ele><time>2026-03-24T17:43:14.999Z</time></trkpt><trkpt lat="44.54963401998035" lon="7.896776795899697"><ele>234.0</ele><time>2026-03-24T17:43:15.999Z</time></trkpt><trkpt lat="44.549826995799144" lon="7.8968195171292574"><ele>234.0</ele><time>2026-03-24T17:43:16.999Z</time></trkpt><trkpt lat="44.5500152703246" lon="7.896873321112139"><ele>234.0</ele><time>2026-03-24T17:43:17.999Z</time></trkpt><trkpt lat="44.5502135866622" lon="7.896912996575716"><ele>234.0</ele><time>2026-03-24T17:43:18.999Z</time></trkpt><trkpt lat="44.55040374254404" lon="7.896942618833759"><ele>234.0</ele><time>2026-03-24T17:43:19.999Z</time></trkpt><trkpt lat="44.55058733855545" lon="7.896981351488983"><ele>234.0</ele><time>2026-03-24T17:43:20.999Z</time></trkpt><trkpt lat="44.55077016398271" lon="7.8970130666200955"><ele>234.0</ele><time>2026-03-24T17:43:21.999Z</time></trkpt><trkpt lat="44.550949713322005" lon="7.897047722424557"><ele>234.0</ele><time>2026-03-24T17:43:22.999Z</time></trkpt><trkpt lat="44.55113079979741" lon="7.897075593833374"><ele>234.0</ele><time>2026-03-24T17:43:23.999Z</time></trkpt><trkpt lat="44.55131928033669" lon="7.897089627262118"><ele>234.0</ele><time>2026-03-24T17:43:24.999Z</time></trkpt><trkpt lat="44.55149240942202" lon="7.8971188514223485"><ele>236.33333333333331</ele><time>2026-03-24T17:43:25.999Z</time></trkpt><trkpt lat="44.551670177550996" lon="7.897151591225451"><ele>238.66666666666666</ele><time>2026-03-24T17:43:26.999Z</time></trkpt><trkpt lat="44.55184349912522" lon="7.897187899048168"><ele>241.0</ele><time>2026-03-24T17:43:27.999Z</time></trkpt><trkpt lat="44.55201978182083" lon="7.897220612507255"><ele>241.66666666666666</ele><time>2026-03-24T17:43:28.999Z</time></trkpt><trkpt lat="44.55219397782365" lon="7.897254882849891"><ele>242.33333333333331</ele><time>2026-03-24T17:43:29.999Z</time></trkpt><trkpt lat="44.55236627591201" lon="7.897283306851579"><ele>243.0</ele><time>2026-03-24T17:43:30.999Z</time></trkpt><trkpt lat="44.55255113592748" lon="7.897309088998026"><ele>243.0</ele><time>2026-03-24T17:43:31.999Z</time></trkpt><trkpt lat="44.552731276010135" lon="7.897338141645348"><ele>243.0</ele><time>2026-03-24T17:43:32.999Z</time></trkpt><trkpt lat="44.55290671018454" lon="7.897371491378203"><ele>243.0</ele><time>2026-03-24T17:43:33.999Z</time></trkpt><trkpt lat="44.55308703747443" lon="7.897402232314593"><ele>245.0</ele><time>2026-03-24T17:43:34.999Z</time></trkpt><trkpt lat="44.553269647720455" lon="7.897437476031713"><ele>247.0</ele><time>2026-03-24T17:43:35.999Z</time></trkpt><trkpt lat="44.55345413082348" lon="7.897472693604781"><ele>249.0</ele><time>2026-03-24T17:43:36.999Z</time></trkpt><trkpt lat="44.5536403631654" lon="7.897504752363524"><ele>249.33333333333331</ele><time>2026-03-24T17:43:37.999Z</time></trkpt><trkpt lat="44.55382931767598" lon="7.897535334341107"><ele>249.66666666666666</ele><time>2026-03-24T17:43:38.999Z</time></trkpt><trkpt lat="44.55401628393166" lon="7.897567657384015"><ele>250.0</ele><time>2026-03-24T17:43:39.999Z</time></trkpt><trkpt lat="44.55420635920778" lon="7.897598690181172"><ele>248.0</ele><time>2026-03-24T17:43:40.999Z</time></trkpt><trkpt lat="44.55438943583867" lon="7.897626956439592"><ele>246.0</ele><time>2026-03-24T17:43:41.999Z</time></trkpt><trkpt lat="44.55456268531696" lon="7.897661853984108"><ele>244.0</ele><time>2026-03-24T17:43:42.999Z</time></trkpt><trkpt lat="44.55474161605843" lon="7.897692541655883"><ele>244.0</ele><time>2026-03-24T17:43:43.999Z</time></trkpt><trkpt lat="44.554923833972346" lon="7.897721721470387"><ele>244.0</ele><time>2026-03-24T17:43:44.999Z</time></trkpt><trkpt lat="44.55510891653578" lon="7.8977428952523265"><ele>244.0</ele><time>2026-03-24T17:43:45.999Z</time></trkpt><trkpt lat="44.55529188308015" lon="7.897765460495455"><ele>243.33333333333331</ele><time>2026-03-24T17:43:46.999Z</time></trkpt><trkpt lat="44.55548031016131" lon="7.89777802407925"><ele>242.66666666666669</ele><time>2026-03-24T17:43:47.999Z</time></trkpt><trkpt lat="44.55566908810093" lon="7.897783422995561"><ele>242.0</ele><time>2026-03-24T17:43:48.999Z</time></trkpt><trkpt lat="44.55585918580544" lon="7.897783761787369"><ele>242.0</ele><time>2026-03-24T17:43:49.999Z</time></trkpt><trkpt lat="44.55605449390456" lon="7.897779626017703"><ele>242.0</ele><time>2026-03-24T17:43:50.999Z</time></trkpt><trkpt lat="44.55625184047783" lon="7.897769912051722"><ele>242.0</ele><time>2026-03-24T17:43:51.999Z</time></trkpt><trkpt lat="44.55645475985348" lon="7.897755066251522"><ele>241.66666666666669</ele><time>2026-03-24T17:43:52.999Z</time></trkpt><trkpt lat="44.55666290033724" lon="7.897734825406774"><ele>241.33333333333331</ele><time>2026-03-24T17:43:53.999Z</time></trkpt><trkpt lat="44.55687286152396" lon="7.897703451741924"><ele>241.0</ele><time>2026-03-24T17:43:54.999Z</time></trkpt><trkpt lat="44.557082719930904" lon="7.8976675824678955"><ele>240.66666666666666</ele><time>2026-03-24T17:43:55.999Z</time></trkpt><trkpt lat="44.557284759845956" lon="7.897629576771348"><ele>240.33333333333331</ele><time>2026-03-24T17:43:56.999Z</time></trkpt><trkpt lat="44.55748729800611" lon="7.897593932182437"><ele>240.0</ele><time>2026-03-24T17:43:57.999Z</time></trkpt><trkpt lat="44.55768696525473" lon="7.89756032420079"><ele>239.66666666666669</ele><time>2026-03-24T17:43:58.999Z</time></trkpt><trkpt lat="44.55788716608534" lon="7.897525938144466"><ele>239.33333333333334</ele><time>2026-03-24T17:43:59.999Z</time></trkpt><trkpt lat="44.55808473072356" lon="7.897490205070109"><ele>239.0</ele><time>2026-03-24T17:44:00.999Z</time></trkpt><trkpt lat="44.558282617097404" lon="7.897457828957946"><ele>239.0</ele><time>2026-03-24T17:44:01.999Z</time></trkpt><trkpt lat="44.55848182116682" lon="7.897426239489756"><ele>239.0</ele><time>2026-03-24T17:44:02.999Z</time></trkpt><trkpt lat="44.55868065118778" lon="7.89739358670052"><ele>239.0</ele><time>2026-03-24T17:44:03.999Z</time></trkpt><trkpt lat="44.55888206425349" lon="7.8973556956633315"><ele>238.33333333333334</ele><time>2026-03-24T17:44:04.999Z</time></trkpt><trkpt lat="44.559076454757346" lon="7.897331252983242"><ele>237.66666666666669</ele><time>2026-03-24T17:44:05.999Z</time></trkpt><trkpt lat="44.55927206770987" lon="7.897286721342422"><ele>237.0</ele><time>2026-03-24T17:44:06.999Z</time></trkpt><trkpt lat="44.55946328028988" lon="7.897260388856015"><ele>235.0</ele><time>2026-03-24T17:44:07.999Z</time></trkpt><trkpt lat="44.55965266259273" lon="7.8972301675232"><ele>233.0</ele><time>2026-03-24T17:44:08.999Z</time></trkpt><trkpt lat="44.5598348293008" lon="7.897200037500023"><ele>231.0</ele><time>2026-03-24T17:44:09.999Z</time></trkpt><trkpt lat="44.56001514588753" lon="7.897168796693356"><ele>231.0</ele><time>2026-03-24T17:44:10.999Z</time></trkpt><trkpt lat="44.56019451458138" lon="7.897139224176478"><ele>231.0</ele><time>2026-03-24T17:44:11.999Z</time></trkpt><trkpt lat="44.560371670822086" lon="7.89710426380099"><ele>231.0</ele><time>2026-03-24T17:44:12.999Z</time></trkpt><trkpt lat="44.56054806581146" lon="7.897075484634697"><ele>230.66666666666669</ele><time>2026-03-24T17:44:13.999Z</time></trkpt><trkpt lat="44.560713573253096" lon="7.897050355637337"><ele>230.33333333333334</ele><time>2026-03-24T17:44:14.998Z</time></trkpt><trkpt lat="44.56088724773343" lon="7.897018665958679"><ele>230.0</ele><time>2026-03-24T17:44:15.998Z</time></trkpt><trkpt lat="44.56105894135501" lon="7.896987720612873"><ele>229.0</ele><time>2026-03-24T17:44:16.998Z</time></trkpt><trkpt lat="44.561241334921505" lon="7.896957815102532"><ele>228.0</ele><time>2026-03-24T17:44:17.998Z</time></trkpt><trkpt lat="44.56141486322049" lon="7.896926213199469"><ele>227.0</ele><time>2026-03-24T17:44:18.998Z</time></trkpt><trkpt lat="44.56158108590769" lon="7.896891448181902"><ele>227.0</ele><time>2026-03-24T17:44:19.998Z</time></trkpt><trkpt lat="44.561749932830516" lon="7.896860938701506"><ele>227.0</ele><time>2026-03-24T17:44:20.998Z</time></trkpt><trkpt lat="44.56191932714201" lon="7.896831036754647"><ele>227.0</ele><time>2026-03-24T17:44:21.998Z</time></trkpt><trkpt lat="44.562088238655235" lon="7.89680113104361"><ele>227.66666666666669</ele><time>2026-03-24T17:44:22.998Z</time></trkpt><trkpt lat="44.56224697227071" lon="7.896777106566234"><ele>228.33333333333331</ele><time>2026-03-24T17:44:23.998Z</time></trkpt><trkpt lat="44.562400579800325" lon="7.8967567963734435"><ele>229.0</ele><time>2026-03-24T17:44:24.998Z</time></trkpt><trkpt lat="44.562552128797606" lon="7.896738479260776"><ele>229.0</ele><time>2026-03-24T17:44:25.998Z</time></trkpt><trkpt lat="44.56269106953611" lon="7.896723830145005"><ele>229.0</ele><time>2026-03-24T17:44:26.998Z</time></trkpt><trkpt lat="44.562819310867944" lon="7.896711351673199"><ele>229.0</ele><time>2026-03-24T17:44:27.998Z</time></trkpt><trkpt lat="44.56294672667033" lon="7.8967024176210385"><ele>229.0</ele><time>2026-03-24T17:44:28.998Z</time></trkpt><trkpt lat="44.563066591922855" lon="7.896700748018395"><ele>228.39999999999998</ele><time>2026-03-24T17:44:29.998Z</time></trkpt><trkpt lat="44.56317299385088" lon="7.89670009789932"><ele>227.79999999999998</ele><time>2026-03-24T17:44:30.998Z</time></trkpt><trkpt lat="44.56327950428682" lon="7.89670516141552"><ele>227.20000000000002</ele><time>2026-03-24T17:44:31.998Z</time></trkpt><trkpt lat="44.56337818115595" lon="7.896719434589154"><ele>226.60000000000002</ele><time>2026-03-24T17:44:32.998Z</time></trkpt><trkpt lat="44.56347656611256" lon="7.896725574434315"><ele>226.0</ele><time>2026-03-24T17:44:33.998Z</time></trkpt><trkpt lat="44.56356379023553" lon="7.896735824879897"><ele>225.99999999999997</ele><time>2026-03-24T17:44:34.998Z</time></trkpt><trkpt lat="44.563640684700495" lon="7.896747941619761"><ele>226.0</ele><time>2026-03-24T17:44:35.998Z</time></trkpt><trkpt lat="44.56371614254129" lon="7.896760104272351"><ele>226.0</ele><time>2026-03-24T17:44:36.998Z</time></trkpt><trkpt lat="44.563797222644716" lon="7.89678063402893"><ele>226.0</ele><time>2026-03-24T17:44:38Z</time></trkpt><trkpt lat="44.56387197657247" lon="7.896832063511032"><ele>225.99999999999997</ele><time>2026-03-24T17:44:39Z</time></trkpt><trkpt lat="44.56394336925148" lon="7.896900507902771"><ele>226.0</ele><time>2026-03-24T17:44:40Z</time></trkpt><trkpt lat="44.564006038667806" lon="7.896967552681291"><ele>225.99999999999997</ele><time>2026-03-24T17:44:41Z</time></trkpt><trkpt lat="44.56407083805819" lon="7.897019552320664"><ele>226.0</ele><time>2026-03-24T17:44:42Z</time></trkpt><trkpt lat="44.564144456250915" lon="7.897065077659738"><ele>226.0</ele><time>2026-03-24T17:44:43Z</time></trkpt><trkpt lat="44.56420982618837" lon="7.897112115635361"><ele>226.0</ele><time>2026-03-24T17:44:44Z</time></trkpt><trkpt lat="44.564292948466274" lon="7.897102187655414"><ele>225.99999999999997</ele><time>2026-03-24T17:44:45Z</time></trkpt><trkpt lat="44.5643721350527" lon="7.897060479910996"><ele>226.0</ele><time>2026-03-24T17:44:46Z</time></trkpt><trkpt lat="44.56444462319442" lon="7.896982603079203"><ele>226.20000000000002</ele><time>2026-03-24T17:44:47Z</time></trkpt><trkpt lat="44.564533417229555" lon="7.896914639164752"><ele>226.40000000000003</ele><time>2026-03-24T17:44:48Z</time></trkpt><trkpt lat="44.56462203334785" lon="7.89685654450358"><ele>226.6</ele><time>2026-03-24T17:44:49Z</time></trkpt><trkpt lat="44.56470433246512" lon="7.896827206116893"><ele>226.8</ele><time>2026-03-24T17:44:50Z</time></trkpt><trkpt lat="44.5647930514784" lon="7.896835612115365"><ele>227.0</ele><time>2026-03-24T17:44:51Z</time></trkpt><trkpt lat="44.56488489541569" lon="7.896882631478868"><ele>227.0</ele><time>2026-03-24T17:44:52Z</time></trkpt><trkpt lat="44.56498211627962" lon="7.8969560263673815"><ele>227.0</ele><time>2026-03-24T17:44:53Z</time></trkpt><trkpt lat="44.56508471822682" lon="7.8970278702542105"><ele>227.0</ele><time>2026-03-24T17:44:54Z</time></trkpt><trkpt lat="44.56517609257431" lon="7.897092054811755"><ele>227.0</ele><time>2026-03-24T17:44:55Z</time></trkpt><trkpt lat="44.56528474437564" lon="7.897110877627937"><ele>227.0</ele><time>2026-03-24T17:44:56Z</time></trkpt><trkpt lat="44.565393145969345" lon="7.8972373566569285"><ele>226.5</ele><time>2026-03-24T17:44:57Z</time></trkpt><trkpt lat="44.56551874173521" lon="7.897320150965953"><ele>226.0</ele><time>2026-03-24T17:44:58Z</time></trkpt><trkpt lat="44.56565295308499" lon="7.8974057962207365"><ele>225.5</ele><time>2026-03-24T17:44:59Z</time></trkpt><trkpt lat="44.565787130417164" lon="7.8975072924530485"><ele>225.0</ele><time>2026-03-24T17:45:00Z</time></trkpt><trkpt lat="44.56592980591182" lon="7.897619033349811"><ele>225.0</ele><time>2026-03-24T17:45:01Z</time></trkpt><trkpt lat="44.56608470065439" lon="7.897730663993356"><ele>225.0</ele><time>2026-03-24T17:45:02Z</time></trkpt><trkpt lat="44.56623052042226" lon="7.897853696108988"><ele>225.0</ele><time>2026-03-24T17:45:03Z</time></trkpt><trkpt lat="44.566371708804326" lon="7.89798345930228"><ele>225.0</ele><time>2026-03-24T17:45:04Z</time></trkpt><trkpt lat="44.566526428737575" lon="7.898142299713811"><ele>225.0</ele><time>2026-03-24T17:45:05Z</time></trkpt><trkpt lat="44.56668912669085" lon="7.898304074664619"><ele>225.0</ele><time>2026-03-24T17:45:06Z</time></trkpt><trkpt lat="44.566849364428705" lon="7.898481588935428"><ele>224.33333333333331</ele><time>2026-03-24T17:45:07Z</time></trkpt><trkpt lat="44.567004959094966" lon="7.898689276913989"><ele>223.66666666666666</ele><time>2026-03-24T17:45:08Z</time></trkpt><trkpt lat="44.567161414115255" lon="7.8989075892697445"><ele>223.0</ele><time>2026-03-24T17:45:09Z</time></trkpt><trkpt lat="44.56730260238986" lon="7.899120472346633"><ele>222.66666666666666</ele><time>2026-03-24T17:45:10Z</time></trkpt><trkpt lat="44.56743512603264" lon="7.899327707574353"><ele>222.33333333333331</ele><time>2026-03-24T17:45:11Z</time></trkpt><trkpt lat="44.56756152839095" lon="7.8995304826771955"><ele>222.0</ele><time>2026-03-24T17:45:12Z</time></trkpt><trkpt lat="44.56769674411427" lon="7.899740563147996"><ele>222.0</ele><time>2026-03-24T17:45:13Z</time></trkpt><trkpt lat="44.56783368704127" lon="7.8999438523965635"><ele>222.0</ele><time>2026-03-24T17:45:14Z</time></trkpt><trkpt lat="44.567966760199894" lon="7.900146084800941"><ele>222.0</ele><time>2026-03-24T17:45:15Z</time></trkpt><trkpt lat="44.56809535552428" lon="7.900344890721274"><ele>222.66666666666669</ele><time>2026-03-24T17:45:16Z</time></trkpt><trkpt lat="44.56821742064034" lon="7.9005363605858365"><ele>223.33333333333334</ele><time>2026-03-24T17:45:17Z</time></trkpt><trkpt lat="44.56834126602847" lon="7.900729088316297"><ele>224.0</ele><time>2026-03-24T17:45:18Z</time></trkpt><trkpt lat="44.568468729885055" lon="7.900922685409021"><ele>224.0</ele><time>2026-03-24T17:45:19Z</time></trkpt><trkpt lat="44.568587690299" lon="7.901104839193898"><ele>224.0</ele><time>2026-03-24T17:45:19.999Z</time></trkpt><trkpt lat="44.568707380493" lon="7.901290175179228"><ele>224.0</ele><time>2026-03-24T17:45:20.999Z</time></trkpt><trkpt lat="44.56882762854803" lon="7.901475743762055"><ele>224.0</ele><time>2026-03-24T17:45:21.999Z</time></trkpt><trkpt lat="44.56895443720467" lon="7.901670804506401"><ele>224.0</ele><time>2026-03-24T17:45:22.999Z</time></trkpt><trkpt lat="44.56907955297849" lon="7.901866234262444"><ele>224.0</ele><time>2026-03-24T17:45:23.999Z</time></trkpt><trkpt lat="44.56922314622367" lon="7.9020912010980915"><ele>223.0</ele><time>2026-03-24T17:45:24.999Z</time></trkpt><trkpt lat="44.56935869825165" lon="7.902295648533999"><ele>222.0</ele><time>2026-03-24T17:45:25.999Z</time></trkpt><trkpt lat="44.56950468389533" lon="7.902520294215367"><ele>221.0</ele><time>2026-03-24T17:45:26.999Z</time></trkpt><trkpt lat="44.56965577444964" lon="7.90275168415085"><ele>221.0</ele><time>2026-03-24T17:45:27.999Z</time></trkpt><trkpt lat="44.569808410929745" lon="7.902986004240187"><ele>221.0</ele><time>2026-03-24T17:45:28.999Z</time></trkpt><trkpt lat="44.56996699849958" lon="7.903225019908519"><ele>219.0</ele><time>2026-03-24T17:45:29.999Z</time></trkpt><trkpt lat="44.5701238320281" lon="7.903469412431396"><ele>217.0</ele><time>2026-03-24T17:45:30.999Z</time></trkpt><trkpt lat="44.57028206438468" lon="7.903712795375774"><ele>218.5</ele><time>2026-03-24T17:45:31.999Z</time></trkpt><trkpt lat="44.570446367060946" lon="7.903962059687916"><ele>220.0</ele><time>2026-03-24T17:45:32.999Z</time></trkpt><trkpt lat="44.57060138638606" lon="7.904201334355147"><ele>219.0</ele><time>2026-03-24T17:45:33.999Z</time></trkpt><trkpt lat="44.570745658535124" lon="7.904422795813895"><ele>218.0</ele><time>2026-03-24T17:45:34.999Z</time></trkpt><trkpt lat="44.57088280583808" lon="7.9046377309798554"><ele>217.0</ele><time>2026-03-24T17:45:35.999Z</time></trkpt><trkpt lat="44.57102598633063" lon="7.904866375016829"><ele>217.0</ele><time>2026-03-24T17:45:36.999Z</time></trkpt><trkpt lat="44.571171929750356" lon="7.905096286370117"><ele>217.0</ele><time>2026-03-24T17:45:37.999Z</time></trkpt><trkpt lat="44.571323645411184" lon="7.905324409415121"><ele>217.0</ele><time>2026-03-24T17:45:38.999Z</time></trkpt><trkpt lat="44.571471622955194" lon="7.905548647241766"><ele>217.33333333333331</ele><time>2026-03-24T17:45:39.999Z</time></trkpt><trkpt lat="44.57160370782943" lon="7.905758723194219"><ele>217.66666666666669</ele><time>2026-03-24T17:45:40.999Z</time></trkpt><trkpt lat="44.57172748976595" lon="7.9059503495339944"><ele>218.0</ele><time>2026-03-24T17:45:41.999Z</time></trkpt><trkpt lat="44.5718635866166" lon="7.9061660984423305"><ele>218.0</ele><time>2026-03-24T17:45:42.999Z</time></trkpt><trkpt lat="44.57199341092992" lon="7.906365230881931"><ele>218.0</ele><time>2026-03-24T17:45:43.999Z</time></trkpt><trkpt lat="44.572114569341245" lon="7.90655892119928"><ele>218.0</ele><time>2026-03-24T17:45:44.999Z</time></trkpt><trkpt lat="44.572236555683986" lon="7.906752049688435"><ele>218.0</ele><time>2026-03-24T17:45:45.999Z</time></trkpt><trkpt lat="44.57235584316293" lon="7.9069373955680105"><ele>218.0</ele><time>2026-03-24T17:45:46.999Z</time></trkpt><trkpt lat="44.5724705772146" lon="7.907116553981661"><ele>218.0</ele><time>2026-03-24T17:45:47.999Z</time></trkpt><trkpt lat="44.57258965759847" lon="7.907300465354914"><ele>218.0</ele><time>2026-03-24T17:45:48.999Z</time></trkpt><trkpt lat="44.57271636813125" lon="7.9074861506476255"><ele>218.0</ele><time>2026-03-24T17:45:49.999Z</time></trkpt><trkpt lat="44.57284555953761" lon="7.907671254570059"><ele>218.0</ele><time>2026-03-24T17:45:50.999Z</time></trkpt><trkpt lat="44.572978849215446" lon="7.907853596002037"><ele>218.33333333333334</ele><time>2026-03-24T17:45:51.999Z</time></trkpt><trkpt lat="44.57312021242945" lon="7.908021818113515"><ele>218.66666666666669</ele><time>2026-03-24T17:45:52.999Z</time></trkpt><trkpt lat="44.573272805894035" lon="7.908187422687241"><ele>219.0</ele><time>2026-03-24T17:45:53.999Z</time></trkpt><trkpt lat="44.573407961842605" lon="7.908366264022415"><ele>218.66666666666669</ele><time>2026-03-24T17:45:54.999Z</time></trkpt><trkpt lat="44.573552088057255" lon="7.908540736267424"><ele>218.33333333333334</ele><time>2026-03-24T17:45:55.999Z</time></trkpt><trkpt lat="44.573740571918364" lon="7.908638726977083"><ele>218.0</ele><time>2026-03-24T17:45:56.999Z</time></trkpt><trkpt lat="44.5739130260008" lon="7.908775538901738"><ele>217.66666666666669</ele><time>2026-03-24T17:45:57.999Z</time></trkpt><trkpt lat="44.57407926274873" lon="7.908894850586565"><ele>217.33333333333331</ele><time>2026-03-24T17:45:58.999Z</time></trkpt><trkpt lat="44.574245040693526" lon="7.909003271807934"><ele>217.0</ele><time>2026-03-24T17:45:59.999Z</time></trkpt><trkpt lat="44.574419049947856" lon="7.909106291071897"><ele>217.33333333333331</ele><time>2026-03-24T17:46:00.999Z</time></trkpt><trkpt lat="44.574600308077294" lon="7.909203884103614"><ele>217.66666666666669</ele><time>2026-03-24T17:46:01.999Z</time></trkpt><trkpt lat="44.574777742590626" lon="7.909286909875031"><ele>218.0</ele><time>2026-03-24T17:46:02.999Z</time></trkpt><trkpt lat="44.5749599291663" lon="7.9093546815771285"><ele>218.0</ele><time>2026-03-24T17:46:03.999Z</time></trkpt><trkpt lat="44.575146940349924" lon="7.909415968029722"><ele>218.0</ele><time>2026-03-24T17:46:04.999Z</time></trkpt><trkpt lat="44.57533910889269" lon="7.909464840320489"><ele>218.0</ele><time>2026-03-24T17:46:05.999Z</time></trkpt><trkpt lat="44.57553482798018" lon="7.9095055323964765"><ele>218.0</ele><time>2026-03-24T17:46:06.999Z</time></trkpt><trkpt lat="44.57571905772658" lon="7.909537127198655"><ele>218.0</ele><time>2026-03-24T17:46:07.999Z</time></trkpt><trkpt lat="44.575912301002525" lon="7.90955315842497"><ele>218.0</ele><time>2026-03-24T17:46:08.999Z</time></trkpt><trkpt lat="44.57611338446924" lon="7.909550272086474"><ele>218.0</ele><time>2026-03-24T17:46:09.999Z</time></trkpt><trkpt lat="44.57630899087451" lon="7.9095498512020255"><ele>218.0</ele><time>2026-03-24T17:46:10.999Z</time></trkpt><trkpt lat="44.57649013856641" lon="7.909540505977081"><ele>218.0</ele><time>2026-03-24T17:46:11.999Z</time></trkpt><trkpt lat="44.576683397033094" lon="7.909535262559048"><ele>218.0</ele><time>2026-03-24T17:46:12.999Z</time></trkpt><trkpt lat="44.576882011273334" lon="7.909534103916436"><ele>218.0</ele><time>2026-03-24T17:46:13.999Z</time></trkpt><trkpt lat="44.577080445692914" lon="7.909525661250688"><ele>218.0</ele><time>2026-03-24T17:46:14.999Z</time></trkpt><trkpt lat="44.577259818620874" lon="7.909519491079684"><ele>217.66666666666669</ele><time>2026-03-24T17:46:15.999Z</time></trkpt><trkpt lat="44.577446042423595" lon="7.909516020100397"><ele>217.33333333333331</ele><time>2026-03-24T17:46:16.999Z</time></trkpt><trkpt lat="44.57763472895159" lon="7.909510163634682"><ele>217.0</ele><time>2026-03-24T17:46:17.999Z</time></trkpt><trkpt lat="44.57782409324156" lon="7.909504985284641"><ele>216.33333333333331</ele><time>2026-03-24T17:46:18.999Z</time></trkpt><trkpt lat="44.57799732172258" lon="7.909498824685714"><ele>215.66666666666669</ele><time>2026-03-24T17:46:19.999Z</time></trkpt><trkpt lat="44.57816135478719" lon="7.909492054164676"><ele>215.0</ele><time>2026-03-24T17:46:20.999Z</time></trkpt><trkpt lat="44.57831920172772" lon="7.909489601625611"><ele>215.0</ele><time>2026-03-24T17:46:21.998Z</time></trkpt><trkpt lat="44.57847552091834" lon="7.9094849395502775"><ele>215.0</ele><time>2026-03-24T17:46:22.998Z</time></trkpt><trkpt lat="44.57862776636813" lon="7.909475830613646"><ele>215.0</ele><time>2026-03-24T17:46:23.998Z</time></trkpt><trkpt lat="44.57876946218259" lon="7.909467853423652"><ele>217.33333333333334</ele><time>2026-03-24T17:46:24.998Z</time></trkpt><trkpt lat="44.57892132945754" lon="7.909454013143195"><ele>219.66666666666669</ele><time>2026-03-24T17:46:25.998Z</time></trkpt><trkpt lat="44.579074444839726" lon="7.909441679898726"><ele>222.0</ele><time>2026-03-24T17:46:26.998Z</time></trkpt><trkpt lat="44.57922062402781" lon="7.909421442683091"><ele>222.0</ele><time>2026-03-24T17:46:27.998Z</time></trkpt><trkpt lat="44.57937152731222" lon="7.90938960971277"><ele>222.0</ele><time>2026-03-24T17:46:28.998Z</time></trkpt><trkpt lat="44.579512593230625" lon="7.909356069778999"><ele>222.0</ele><time>2026-03-24T17:46:29.998Z</time></trkpt><trkpt lat="44.57963740045957" lon="7.90932213085613"><ele>222.0</ele><time>2026-03-24T17:46:30.998Z</time></trkpt><trkpt lat="44.57975590625908" lon="7.909286601667863"><ele>221.8</ele><time>2026-03-24T17:46:31.998Z</time></trkpt><trkpt lat="44.57986952839634" lon="7.9092455811755045"><ele>221.6</ele><time>2026-03-24T17:46:32.998Z</time></trkpt><trkpt lat="44.57997641504722" lon="7.909205563320914"><ele>221.40000000000003</ele><time>2026-03-24T17:46:33.998Z</time></trkpt><trkpt lat="44.58007819722738" lon="7.9091723693954075"><ele>221.20000000000002</ele><time>2026-03-24T17:46:34.998Z</time></trkpt><trkpt lat="44.58017472626887" lon="7.90914712989942"><ele>221.0</ele><time>2026-03-24T17:46:35.998Z</time></trkpt><trkpt lat="44.58026280636526" lon="7.909122482063537"><ele>221.0</ele><time>2026-03-24T17:46:36.998Z</time></trkpt><trkpt lat="44.58034014426136" lon="7.90910158617386"><ele>221.00000000000003</ele><time>2026-03-24T17:46:37.998Z</time></trkpt><trkpt lat="44.58041688807508" lon="7.90908046131191"><ele>221.00000000000003</ele><time>2026-03-24T17:46:38.998Z</time></trkpt><trkpt lat="44.58053415177869" lon="7.90905673868789"><ele>221.0</ele><time>2026-03-24T17:46:40.998Z</time></trkpt><trkpt lat="44.58062916120828" lon="7.909070499081652"><ele>221.0</ele><time>2026-03-24T17:46:42.998Z</time></trkpt><trkpt lat="44.58068071464744" lon="7.9091667738427525"><ele>222.0</ele><time>2026-03-24T17:46:45Z</time></trkpt><trkpt lat="44.58066754037508" lon="7.909361441815246"><ele>223.00000000000003</ele><time>2026-03-24T17:46:47Z</time></trkpt><trkpt lat="44.580641100546615" lon="7.909485374162832"><ele>224.00000000000003</ele><time>2026-03-24T17:46:48Z</time></trkpt><trkpt lat="44.580604122824866" lon="7.90961608720065"><ele>225.0</ele><time>2026-03-24T17:46:49Z</time></trkpt><trkpt lat="44.580539508776795" lon="7.909751312778909"><ele>226.0</ele><time>2026-03-24T17:46:50Z</time></trkpt><trkpt lat="44.58045963567547" lon="7.909872866302594"><ele>226.0</ele><time>2026-03-24T17:46:51Z</time></trkpt><trkpt lat="44.58037171051193" lon="7.909994122277135"><ele>226.0</ele><time>2026-03-24T17:46:52Z</time></trkpt><trkpt lat="44.580270810081885" lon="7.910107368957079"><ele>226.0</ele><time>2026-03-24T17:46:53Z</time></trkpt><trkpt lat="44.580182582797434" lon="7.910208962844641"><ele>226.0</ele><time>2026-03-24T17:46:54Z</time></trkpt><trkpt lat="44.58010768157524" lon="7.910310223205712"><ele>226.20000000000002</ele><time>2026-03-24T17:46:55Z</time></trkpt><trkpt lat="44.58003201050348" lon="7.91040043433647"><ele>226.40000000000003</ele><time>2026-03-24T17:46:56Z</time></trkpt><trkpt lat="44.57994982638326" lon="7.910502329051512"><ele>226.6</ele><time>2026-03-24T17:46:57Z</time></trkpt><trkpt lat="44.57987281009577" lon="7.910597715015018"><ele>226.8</ele><time>2026-03-24T17:46:58Z</time></trkpt><trkpt lat="44.57979907407945" lon="7.910685605539623"><ele>227.0</ele><time>2026-03-24T17:46:59Z</time></trkpt><trkpt lat="44.57972003816371" lon="7.910777842004644"><ele>227.0</ele><time>2026-03-24T17:47:00Z</time></trkpt><trkpt lat="44.57963515433164" lon="7.910853307841223"><ele>227.0</ele><time>2026-03-24T17:47:01Z</time></trkpt><trkpt lat="44.57956621900561" lon="7.91093861834155"><ele>227.0</ele><time>2026-03-24T17:47:02Z</time></trkpt><trkpt lat="44.57950703740689" lon="7.911034736975093"><ele>227.0</ele><time>2026-03-24T17:47:03Z</time></trkpt><trkpt lat="44.57943266257322" lon="7.911126250534933"><ele>227.0</ele><time>2026-03-24T17:47:04Z</time></trkpt><trkpt lat="44.57935619964133" lon="7.9112243931238035"><ele>227.2</ele><time>2026-03-24T17:47:05Z</time></trkpt><trkpt lat="44.57928568375142" lon="7.911315719810714"><ele>227.39999999999998</ele><time>2026-03-24T17:47:06Z</time></trkpt><trkpt lat="44.57921226796346" lon="7.911402859293543"><ele>227.60000000000002</ele><time>2026-03-24T17:47:07Z</time></trkpt><trkpt lat="44.57913573922208" lon="7.911490024585165"><ele>227.8</ele><time>2026-03-24T17:47:08Z</time></trkpt><trkpt lat="44.57906426433497" lon="7.911581033612346"><ele>228.0</ele><time>2026-03-24T17:47:09Z</time></trkpt><trkpt lat="44.57900049694088" lon="7.91165833377699"><ele>228.0</ele><time>2026-03-24T17:47:10Z</time></trkpt><trkpt lat="44.57894456354248" lon="7.911730770043458"><ele>228.0</ele><time>2026-03-24T17:47:11Z</time></trkpt><trkpt lat="44.57888357328381" lon="7.91180588161127"><ele>228.0</ele><time>2026-03-24T17:47:12Z</time></trkpt><trkpt lat="44.57882389599485" lon="7.911883165139571"><ele>228.0</ele><time>2026-03-24T17:47:13Z</time></trkpt><trkpt lat="44.57876310318247" lon="7.911960218116175"><ele>228.0</ele><time>2026-03-24T17:47:14Z</time></trkpt><trkpt lat="44.57869973796014" lon="7.912032004539162"><ele>228.0</ele><time>2026-03-24T17:47:15Z</time></trkpt><trkpt lat="44.57863339043524" lon="7.912111531665358"><ele>228.0</ele><time>2026-03-24T17:47:16Z</time></trkpt><trkpt lat="44.578565484142175" lon="7.912195354850573"><ele>228.0</ele><time>2026-03-24T17:47:17Z</time></trkpt><trkpt lat="44.57850470128381" lon="7.912267891280503"><ele>228.0</ele><time>2026-03-24T17:47:18Z</time></trkpt><trkpt lat="44.57844806818334" lon="7.912338507318994"><ele>228.0</ele><time>2026-03-24T17:47:19Z</time></trkpt><trkpt lat="44.57839067817851" lon="7.912408955780141"><ele>228.0</ele><time>2026-03-24T17:47:20Z</time></trkpt><trkpt lat="44.57833112913169" lon="7.912480910049996"><ele>228.0</ele><time>2026-03-24T17:47:21Z</time></trkpt><trkpt lat="44.57826778686821" lon="7.912563832113258"><ele>229.0</ele><time>2026-03-24T17:47:22Z</time></trkpt><trkpt lat="44.57820230472755" lon="7.912643856743528"><ele>230.0</ele><time>2026-03-24T17:47:23Z</time></trkpt><trkpt lat="44.57813651706974" lon="7.912732982915928"><ele>231.0</ele><time>2026-03-24T17:47:24Z</time></trkpt><trkpt lat="44.578070161953654" lon="7.912812991678257"><ele>232.0</ele><time>2026-03-24T17:47:25Z</time></trkpt><trkpt lat="44.57799829472024" lon="7.912896977403386"><ele>233.0</ele><time>2026-03-24T17:47:25.999Z</time></trkpt><trkpt lat="44.57793338380221" lon="7.912970978020693"><ele>234.0</ele><time>2026-03-24T17:47:26.999Z</time></trkpt><trkpt lat="44.57786821411278" lon="7.91304747983903"><ele>234.0</ele><time>2026-03-24T17:47:27.999Z</time></trkpt><trkpt lat="44.57779706902351" lon="7.9131353430472195"><ele>234.0</ele><time>2026-03-24T17:47:28.999Z</time></trkpt><trkpt lat="44.57773325033454" lon="7.913219961876333"><ele>234.0</ele><time>2026-03-24T17:47:29.999Z</time></trkpt><trkpt lat="44.57767122324652" lon="7.913293485728793"><ele>234.0</ele><time>2026-03-24T17:47:30.999Z</time></trkpt><trkpt lat="44.577611831430964" lon="7.913367031695188"><ele>234.0</ele><time>2026-03-24T17:47:31.999Z</time></trkpt><trkpt lat="44.577552976719566" lon="7.913461320188658"><ele>234.0</ele><time>2026-03-24T17:47:32.999Z</time></trkpt><trkpt lat="44.57748815389403" lon="7.9135569896011315"><ele>234.0</ele><time>2026-03-24T17:47:33.999Z</time></trkpt><trkpt lat="44.57741781586739" lon="7.9136464877535575"><ele>234.0</ele><time>2026-03-24T17:47:34.999Z</time></trkpt><trkpt lat="44.577353681719885" lon="7.913723048795913"><ele>234.0</ele><time>2026-03-24T17:47:35.999Z</time></trkpt><trkpt lat="44.577282347676054" lon="7.913789194691307"><ele>234.0</ele><time>2026-03-24T17:47:36.999Z</time></trkpt><trkpt lat="44.577219185763695" lon="7.913867650952719"><ele>234.0</ele><time>2026-03-24T17:47:37.999Z</time></trkpt><trkpt lat="44.57714971085173" lon="7.913953948860078"><ele>234.0</ele><time>2026-03-24T17:47:38.999Z</time></trkpt><trkpt lat="44.5770849308957" lon="7.914034414967419"><ele>234.0</ele><time>2026-03-24T17:47:39.999Z</time></trkpt><trkpt lat="44.57702974762284" lon="7.914129564881092"><ele>234.0</ele><time>2026-03-24T17:47:40.999Z</time></trkpt><trkpt lat="44.576965056702335" lon="7.914203657294696"><ele>234.0</ele><time>2026-03-24T17:47:41.999Z</time></trkpt><trkpt lat="44.576903885816144" lon="7.9142822974035605"><ele>234.0</ele><time>2026-03-24T17:47:42.999Z</time></trkpt><trkpt lat="44.57684538310688" lon="7.914354429430186"><ele>234.0</ele><time>2026-03-24T17:47:43.999Z</time></trkpt><trkpt lat="44.576789329911875" lon="7.914425671768775"><ele>234.0</ele><time>2026-03-24T17:47:44.999Z</time></trkpt><trkpt lat="44.5767265450956" lon="7.91451245644548"><ele>233.39999999999998</ele><time>2026-03-24T17:47:45.999Z</time></trkpt><trkpt lat="44.576664026669036" lon="7.914593153451657"><ele>232.79999999999998</ele><time>2026-03-24T17:47:46.999Z</time></trkpt><trkpt lat="44.57659535131807" lon="7.9146710237374345"><ele>232.20000000000002</ele><time>2026-03-24T17:47:47.999Z</time></trkpt><trkpt lat="44.5765289071395" lon="7.914753844199215"><ele>231.60000000000002</ele><time>2026-03-24T17:47:48.999Z</time></trkpt><trkpt lat="44.576457580989654" lon="7.914838058560634"><ele>231.0</ele><time>2026-03-24T17:47:49.999Z</time></trkpt><trkpt lat="44.57638728679881" lon="7.914928173213352"><ele>231.0</ele><time>2026-03-24T17:47:50.999Z</time></trkpt><trkpt lat="44.576308535712926" lon="7.915019738148257"><ele>231.0</ele><time>2026-03-24T17:47:51.999Z</time></trkpt><trkpt lat="44.57621920447649" lon="7.915125874299795"><ele>231.0</ele><time>2026-03-24T17:47:52.999Z</time></trkpt><trkpt lat="44.57612058099799" lon="7.915245179706108"><ele>231.0</ele><time>2026-03-24T17:47:53.999Z</time></trkpt><trkpt lat="44.57602863958144" lon="7.915369460868893"><ele>230.8</ele><time>2026-03-24T17:47:54.999Z</time></trkpt><trkpt lat="44.575940895967285" lon="7.915463866380674"><ele>230.60000000000002</ele><time>2026-03-24T17:47:55.999Z</time></trkpt><trkpt lat="44.57585763088254" lon="7.915566326168905"><ele>230.4</ele><time>2026-03-24T17:47:56.999Z</time></trkpt><trkpt lat="44.57577455192286" lon="7.91567030764605"><ele>230.2</ele><time>2026-03-24T17:47:57.999Z</time></trkpt><trkpt lat="44.575704473029234" lon="7.915768089565627"><ele>230.0</ele><time>2026-03-24T17:47:58.999Z</time></trkpt><trkpt lat="44.57562559111295" lon="7.9158658998258185"><ele>229.4</ele><time>2026-03-24T17:47:59.999Z</time></trkpt><trkpt lat="44.575552928808804" lon="7.915953304130545"><ele>228.8</ele><time>2026-03-24T17:48:00.999Z</time></trkpt><trkpt lat="44.57548442706845" lon="7.916040492096992"><ele>228.2</ele><time>2026-03-24T17:48:01.999Z</time></trkpt><trkpt lat="44.575413860801945" lon="7.9161304594540844"><ele>227.6</ele><time>2026-03-24T17:48:02.999Z</time></trkpt><trkpt lat="44.57534159557155" lon="7.916222667874366"><ele>227.0</ele><time>2026-03-24T17:48:03.999Z</time></trkpt><trkpt lat="44.57526723785753" lon="7.9163045586759875"><ele>227.0</ele><time>2026-03-24T17:48:04.999Z</time></trkpt><trkpt lat="44.57519221039302" lon="7.91637584256451"><ele>227.0</ele><time>2026-03-24T17:48:05.999Z</time></trkpt><trkpt lat="44.57509960161036" lon="7.916443342048076"><ele>227.0</ele><time>2026-03-24T17:48:06.999Z</time></trkpt><trkpt lat="44.5750046884801" lon="7.916493998782849"><ele>227.0</ele><time>2026-03-24T17:48:07.999Z</time></trkpt><trkpt lat="44.57489705432125" lon="7.916537628588468"><ele>227.0</ele><time>2026-03-24T17:48:08.999Z</time></trkpt><trkpt lat="44.57478578457208" lon="7.916567011879238"><ele>227.0</ele><time>2026-03-24T17:48:09.999Z</time></trkpt><trkpt lat="44.5746901934071" lon="7.916591799988931"><ele>227.0</ele><time>2026-03-24T17:48:10.999Z</time></trkpt><trkpt lat="44.574582862243716" lon="7.916611243054123"><ele>227.0</ele><time>2026-03-24T17:48:11.999Z</time></trkpt><trkpt lat="44.574478504209814" lon="7.916624518818255"><ele>227.0</ele><time>2026-03-24T17:48:12.999Z</time></trkpt><trkpt lat="44.57437332107947" lon="7.916640232110644"><ele>227.0</ele><time>2026-03-24T17:48:13.999Z</time></trkpt><trkpt lat="44.57427095898737" lon="7.916664816891034"><ele>227.0</ele><time>2026-03-24T17:48:14.999Z</time></trkpt><trkpt lat="44.574173338502675" lon="7.916684781890653"><ele>227.0</ele><time>2026-03-24T17:48:15.999Z</time></trkpt><trkpt lat="44.57407495936091" lon="7.916702137245887"><ele>227.0</ele><time>2026-03-24T17:48:16.999Z</time></trkpt><trkpt lat="44.57397848810875" lon="7.9167159653249675"><ele>227.0</ele><time>2026-03-24T17:48:17.999Z</time></trkpt><trkpt lat="44.57387278786894" lon="7.916731154635793"><ele>227.0</ele><time>2026-03-24T17:48:18.999Z</time></trkpt><trkpt lat="44.57377240868499" lon="7.916744745422963"><ele>228.0</ele><time>2026-03-24T17:48:19.999Z</time></trkpt><trkpt lat="44.57367705522689" lon="7.916761847822128"><ele>229.0</ele><time>2026-03-24T17:48:20.999Z</time></trkpt><trkpt lat="44.57358530142745" lon="7.916777256992682"><ele>230.0</ele><time>2026-03-24T17:48:21.999Z</time></trkpt><trkpt lat="44.57349015300453" lon="7.91678796726901"><ele>231.0</ele><time>2026-03-24T17:48:22.999Z</time></trkpt><trkpt lat="44.57339567377789" lon="7.916802869233163"><ele>232.0</ele><time>2026-03-24T17:48:23.999Z</time></trkpt><trkpt lat="44.57330399900861" lon="7.916819761325887"><ele>231.99999999999997</ele><time>2026-03-24T17:48:24.999Z</time></trkpt><trkpt lat="44.573213895987124" lon="7.916837925233243"><ele>232.0</ele><time>2026-03-24T17:48:25.999Z</time></trkpt><trkpt lat="44.57313405381771" lon="7.916852097451911"><ele>232.0</ele><time>2026-03-24T17:48:26.999Z</time></trkpt><trkpt lat="44.57305103469141" lon="7.916867502288108"><ele>232.0</ele><time>2026-03-24T17:48:27.999Z</time></trkpt><trkpt lat="44.57296923043361" lon="7.916883528452246"><ele>231.99999999999997</ele><time>2026-03-24T17:48:28.998Z</time></trkpt><trkpt lat="44.57288339211863" lon="7.91690089374008"><ele>232.0</ele><time>2026-03-24T17:48:29.998Z</time></trkpt><trkpt lat="44.572799626515106" lon="7.916911711542981"><ele>231.99999999999997</ele><time>2026-03-24T17:48:30.998Z</time></trkpt><trkpt lat="44.572719955566804" lon="7.916927915183867"><ele>232.0</ele><time>2026-03-24T17:48:31.998Z</time></trkpt><trkpt lat="44.57264143232426" lon="7.9169449930264655"><ele>232.0</ele><time>2026-03-24T17:48:32.998Z</time></trkpt><trkpt lat="44.57256189025811" lon="7.916962385122528"><ele>232.0</ele><time>2026-03-24T17:48:33.998Z</time></trkpt><trkpt lat="44.572478122118" lon="7.916980552866529"><ele>231.99999999999997</ele><time>2026-03-24T17:48:34.998Z</time></trkpt><trkpt lat="44.572392298508255" lon="7.917003565688056"><ele>232.0</ele><time>2026-03-24T17:48:35.998Z</time></trkpt><trkpt lat="44.57230517819304" lon="7.917027780977132"><ele>232.0</ele><time>2026-03-24T17:48:36.998Z</time></trkpt><trkpt lat="44.57221583972215" lon="7.917051822045661"><ele>232.0</ele><time>2026-03-24T17:48:37.998Z</time></trkpt><trkpt lat="44.572123606897215" lon="7.917080322239577"><ele>232.0</ele><time>2026-03-24T17:48:38.998Z</time></trkpt><trkpt lat="44.572030174850994" lon="7.917105544084422"><ele>232.0</ele><time>2026-03-24T17:48:39.998Z</time></trkpt><trkpt lat="44.571938135361165" lon="7.917127088067468"><ele>232.0</ele><time>2026-03-24T17:48:40.998Z</time></trkpt><trkpt lat="44.57184469462935" lon="7.917145085608614"><ele>231.8</ele><time>2026-03-24T17:48:41.998Z</time></trkpt><trkpt lat="44.57175160068825" lon="7.917162744018613"><ele>231.6</ele><time>2026-03-24T17:48:42.998Z</time></trkpt><trkpt lat="44.57164239296304" lon="7.917186066264447"><ele>231.40000000000003</ele><time>2026-03-24T17:48:43.998Z</time></trkpt><trkpt lat="44.57153904980796" lon="7.9172130110417465"><ele>231.20000000000002</ele><time>2026-03-24T17:48:44.998Z</time></trkpt><trkpt lat="44.57143483502269" lon="7.917226585855564"><ele>231.0</ele><time>2026-03-24T17:48:45.998Z</time></trkpt><trkpt lat="44.57131877254285" lon="7.917248393506043"><ele>231.0</ele><time>2026-03-24T17:48:46.998Z</time></trkpt><trkpt lat="44.57120924053659" lon="7.917273490134868"><ele>231.0</ele><time>2026-03-24T17:48:47.998Z</time></trkpt><trkpt lat="44.57110547228517" lon="7.917294370101717"><ele>231.0</ele><time>2026-03-24T17:48:48.998Z</time></trkpt><trkpt lat="44.57099194951918" lon="7.917316258823711"><ele>231.0</ele><time>2026-03-24T17:48:50Z</time></trkpt><trkpt lat="44.57087190254336" lon="7.917331196881871"><ele>230.4</ele><time>2026-03-24T17:48:51Z</time></trkpt><trkpt lat="44.570764518094066" lon="7.91734532268085"><ele>229.8</ele><time>2026-03-24T17:48:52Z</time></trkpt><trkpt lat="44.57066170379126" lon="7.917366208057979"><ele>229.20000000000002</ele><time>2026-03-24T17:48:53Z</time></trkpt><trkpt lat="44.57056159272857" lon="7.917392247176567"><ele>228.60000000000002</ele><time>2026-03-24T17:48:54Z</time></trkpt><trkpt lat="44.57046062913684" lon="7.917404066611118"><ele>228.0</ele><time>2026-03-24T17:48:55Z</time></trkpt><trkpt lat="44.57035526515078" lon="7.917419964550859"><ele>227.60000000000002</ele><time>2026-03-24T17:48:56Z</time></trkpt><trkpt lat="44.57025124025699" lon="7.917420272861375"><ele>227.20000000000002</ele><time>2026-03-24T17:48:57Z</time></trkpt><trkpt lat="44.57015497565983" lon="7.917428639066564"><ele>226.8</ele><time>2026-03-24T17:48:58Z</time></trkpt><trkpt lat="44.5700488316826" lon="7.917443822092175"><ele>226.4</ele><time>2026-03-24T17:48:59Z</time></trkpt><trkpt lat="44.5699449372346" lon="7.917465649425576"><ele>226.0</ele><time>2026-03-24T17:49:00Z</time></trkpt><trkpt lat="44.56983599031861" lon="7.917491520882633"><ele>226.0</ele><time>2026-03-24T17:49:01Z</time></trkpt><trkpt lat="44.56973648105242" lon="7.917505157657238"><ele>226.00000000000003</ele><time>2026-03-24T17:49:02Z</time></trkpt><trkpt lat="44.56964494396085" lon="7.917515788583262"><ele>226.00000000000003</ele><time>2026-03-24T17:49:03Z</time></trkpt><trkpt lat="44.569551203523716" lon="7.917523881903998"><ele>226.0</ele><time>2026-03-24T17:49:04Z</time></trkpt><trkpt lat="44.56946470951381" lon="7.917503874174015"><ele>226.0</ele><time>2026-03-24T17:49:05Z</time></trkpt><trkpt lat="44.56938386610739" lon="7.917508769962843"><ele>225.66666666666666</ele><time>2026-03-24T17:49:06Z</time></trkpt><trkpt lat="44.56930963693734" lon="7.917513129843957"><ele>225.33333333333331</ele><time>2026-03-24T17:49:07Z</time></trkpt><trkpt lat="44.56924527004841" lon="7.91751741556835"><ele>225.0</ele><time>2026-03-24T17:49:08Z</time></trkpt><trkpt lat="44.569121129785294" lon="7.917526188171134"><ele>224.66666666666669</ele><time>2026-03-24T17:49:10Z</time></trkpt><trkpt lat="44.56900818135049" lon="7.917545243112323"><ele>224.33333333333334</ele><time>2026-03-24T17:49:12Z</time></trkpt><trkpt lat="44.568945590360734" lon="7.917584554938103"><ele>224.0</ele><time>2026-03-24T17:49:13Z</time></trkpt><trkpt lat="44.56888910283839" lon="7.917646938624673"><ele>224.50000000000003</ele><time>2026-03-24T17:49:14Z</time></trkpt><trkpt lat="44.568822546812605" lon="7.917733394854628"><ele>225.0</ele><time>2026-03-24T17:49:15Z</time></trkpt><trkpt lat="44.56875782524419" lon="7.917818613111523"><ele>225.5</ele><time>2026-03-24T17:49:16Z</time></trkpt><trkpt lat="44.56868373453949" lon="7.917901674849016"><ele>226.0</ele><time>2026-03-24T17:49:17Z</time></trkpt><trkpt lat="44.56860241435158" lon="7.917962221562199"><ele>226.50000000000003</ele><time>2026-03-24T17:49:18Z</time></trkpt><trkpt lat="44.5685485084445" lon="7.918022293641057"><ele>227.0</ele><time>2026-03-24T17:49:19Z</time></trkpt><trkpt lat="44.56847530453714" lon="7.9181018380862325"><ele>227.0</ele><time>2026-03-24T17:49:20Z</time></trkpt><trkpt lat="44.568396075497354" lon="7.918170407916587"><ele>227.0</ele><time>2026-03-24T17:49:21Z</time></trkpt><trkpt lat="44.568313053101015" lon="7.918234154035008"><ele>227.0</ele><time>2026-03-24T17:49:22Z</time></trkpt><trkpt lat="44.56822004726803" lon="7.918285203836155"><ele>227.0</ele><time>2026-03-24T17:49:23Z</time></trkpt><trkpt lat="44.56814127440161" lon="7.91835388261702"><ele>227.0</ele><time>2026-03-24T17:49:24Z</time></trkpt><trkpt lat="44.56805386211608" lon="7.9184170503212865"><ele>227.33333333333334</ele><time>2026-03-24T17:49:25Z</time></trkpt><trkpt lat="44.56798135209259" lon="7.9184746970959194"><ele>227.66666666666669</ele><time>2026-03-24T17:49:26Z</time></trkpt><trkpt lat="44.56789988913136" lon="7.918529211800561"><ele>228.0</ele><time>2026-03-24T17:49:27Z</time></trkpt><trkpt lat="44.56783025387378" lon="7.9185959978670075"><ele>228.33333333333331</ele><time>2026-03-24T17:49:28Z</time></trkpt><trkpt lat="44.56774665492663" lon="7.918658934002344"><ele>228.66666666666666</ele><time>2026-03-24T17:49:29Z</time></trkpt><trkpt lat="44.56766953775371" lon="7.918722813215315"><ele>229.0</ele><time>2026-03-24T17:49:30Z</time></trkpt><trkpt lat="44.56758728926717" lon="7.9187838328499165"><ele>229.0</ele><time>2026-03-24T17:49:31Z</time></trkpt><trkpt lat="44.56750414846533" lon="7.918846942340237"><ele>228.99999999999997</ele><time>2026-03-24T17:49:32Z</time></trkpt><trkpt lat="44.56742082176035" lon="7.918909673848602"><ele>228.99999999999997</ele><time>2026-03-24T17:49:33Z</time></trkpt><trkpt lat="44.56733957939147" lon="7.91897022836136"><ele>229.0</ele><time>2026-03-24T17:49:33.999Z</time></trkpt><trkpt lat="44.56724923308384" lon="7.919029467474082"><ele>229.0</ele><time>2026-03-24T17:49:34.999Z</time></trkpt><trkpt lat="44.56715629754366" lon="7.919091129277896"><ele>229.0</ele><time>2026-03-24T17:49:35.999Z</time></trkpt><trkpt lat="44.5670702044668" lon="7.919158133116152"><ele>228.99999999999997</ele><time>2026-03-24T17:49:36.999Z</time></trkpt><trkpt lat="44.56698776365415" lon="7.919223361579888"><ele>228.99999999999997</ele><time>2026-03-24T17:49:37.999Z</time></trkpt><trkpt lat="44.566897365472116" lon="7.919292975655253"><ele>229.0</ele><time>2026-03-24T17:49:38.999Z</time></trkpt><trkpt lat="44.56680616380926" lon="7.919364929326834"><ele>229.0</ele><time>2026-03-24T17:49:39.999Z</time></trkpt><trkpt lat="44.56671053374994" lon="7.919438057642078"><ele>228.6</ele><time>2026-03-24T17:49:40.999Z</time></trkpt><trkpt lat="44.56662276491529" lon="7.919505659452972"><ele>228.2</ele><time>2026-03-24T17:49:41.999Z</time></trkpt><trkpt lat="44.56653744861989" lon="7.919574559417587"><ele>227.79999999999998</ele><time>2026-03-24T17:49:42.999Z</time></trkpt><trkpt lat="44.56645431224739" lon="7.919645510453278"><ele>227.39999999999998</ele><time>2026-03-24T17:49:43.999Z</time></trkpt><trkpt lat="44.566373309975276" lon="7.919708622506392"><ele>227.0</ele><time>2026-03-24T17:49:44.999Z</time></trkpt><trkpt lat="44.56628804216009" lon="7.919768740254917"><ele>227.0</ele><time>2026-03-24T17:49:45.999Z</time></trkpt><trkpt lat="44.56619655035146" lon="7.919827113514812"><ele>227.0</ele><time>2026-03-24T17:49:46.999Z</time></trkpt><trkpt lat="44.5661180811782" lon="7.919887268104433"><ele>227.0</ele><time>2026-03-24T17:49:47.999Z</time></trkpt><trkpt lat="44.56604559832527" lon="7.91994247852718"><ele>227.0</ele><time>2026-03-24T17:49:48.999Z</time></trkpt><trkpt lat="44.56596136764636" lon="7.920001555541716"><ele>227.0</ele><time>2026-03-24T17:49:49.999Z</time></trkpt><trkpt lat="44.565878676488076" lon="7.920062325144402"><ele>226.8</ele><time>2026-03-24T17:49:50.999Z</time></trkpt><trkpt lat="44.565795053694785" lon="7.920119111846704"><ele>226.6</ele><time>2026-03-24T17:49:51.999Z</time></trkpt><trkpt lat="44.56570732605319" lon="7.9201733582610085"><ele>226.40000000000003</ele><time>2026-03-24T17:49:52.999Z</time></trkpt><trkpt lat="44.56562833180776" lon="7.920234844756473"><ele>226.20000000000002</ele><time>2026-03-24T17:49:53.999Z</time></trkpt><trkpt lat="44.56554853039017" lon="7.92029415557738"><ele>226.0</ele><time>2026-03-24T17:49:54.999Z</time></trkpt><trkpt lat="44.56546778097332" lon="7.920355623430103"><ele>226.0</ele><time>2026-03-24T17:49:55.999Z</time></trkpt><trkpt lat="44.56538153245228" lon="7.920416704214071"><ele>226.00000000000003</ele><time>2026-03-24T17:49:56.999Z</time></trkpt><trkpt lat="44.565295024020614" lon="7.920480198590932"><ele>226.00000000000003</ele><time>2026-03-24T17:49:57.999Z</time></trkpt><trkpt lat="44.56520793994932" lon="7.920549677278665"><ele>226.0</ele><time>2026-03-24T17:49:58.999Z</time></trkpt><trkpt lat="44.56511550009055" lon="7.920616467390115"><ele>226.0</ele><time>2026-03-24T17:49:59.999Z</time></trkpt><trkpt lat="44.565025608104655" lon="7.920686781959874"><ele>226.4</ele><time>2026-03-24T17:50:00.999Z</time></trkpt><trkpt lat="44.564940691406015" lon="7.92075959715418"><ele>226.8</ele><time>2026-03-24T17:50:01.999Z</time></trkpt><trkpt lat="44.56485482441087" lon="7.9208326126932995"><ele>227.20000000000002</ele><time>2026-03-24T17:50:02.999Z</time></trkpt><trkpt lat="44.5647680882766" lon="7.92090584579156"><ele>227.60000000000002</ele><time>2026-03-24T17:50:03.999Z</time></trkpt><trkpt lat="44.564678904719266" lon="7.920977584301282"><ele>228.0</ele><time>2026-03-24T17:50:04.999Z</time></trkpt><trkpt lat="44.564582789330395" lon="7.92105549799136"><ele>229.0</ele><time>2026-03-24T17:50:05.999Z</time></trkpt><trkpt lat="44.564489781332405" lon="7.9211295813292235"><ele>230.0</ele><time>2026-03-24T17:50:06.999Z</time></trkpt><trkpt lat="44.564394672802955" lon="7.921202940955946"><ele>231.0</ele><time>2026-03-24T17:50:07.999Z</time></trkpt><trkpt lat="44.564295237478234" lon="7.921275766535136"><ele>232.0</ele><time>2026-03-24T17:50:08.999Z</time></trkpt><trkpt lat="44.564199822141234" lon="7.921345077760042"><ele>233.0</ele><time>2026-03-24T17:50:09.999Z</time></trkpt><trkpt lat="44.56410691924294" lon="7.921412588135515"><ele>233.0</ele><time>2026-03-24T17:50:10.999Z</time></trkpt><trkpt lat="44.564011600508096" lon="7.921479896501912"><ele>233.0</ele><time>2026-03-24T17:50:11.999Z</time></trkpt><trkpt lat="44.56391902654518" lon="7.921546842284156"><ele>233.0</ele><time>2026-03-24T17:50:12.999Z</time></trkpt><trkpt lat="44.56383097497362" lon="7.921611069398771"><ele>233.0</ele><time>2026-03-24T17:50:13.999Z</time></trkpt><trkpt lat="44.563742039841905" lon="7.92168042435425"><ele>233.0</ele><time>2026-03-24T17:50:14.999Z</time></trkpt><trkpt lat="44.56363969845439" lon="7.921746559146166"><ele>232.8</ele><time>2026-03-24T17:50:15.999Z</time></trkpt><trkpt lat="44.56354231041799" lon="7.921806291817561"><ele>232.60000000000002</ele><time>2026-03-24T17:50:16.999Z</time></trkpt><trkpt lat="44.56344359364258" lon="7.9218630974246045"><ele>232.39999999999998</ele><time>2026-03-24T17:50:17.999Z</time></trkpt><trkpt lat="44.56335215817779" lon="7.921914410713458"><ele>232.2</ele><time>2026-03-24T17:50:18.999Z</time></trkpt><trkpt lat="44.563266051142506" lon="7.921960219762769"><ele>232.0</ele><time>2026-03-24T17:50:19.999Z</time></trkpt><trkpt lat="44.56318586211593" lon="7.922000755184646"><ele>232.0</ele><time>2026-03-24T17:50:20.999Z</time></trkpt><trkpt lat="44.563095685738894" lon="7.9220483853774715"><ele>232.0</ele><time>2026-03-24T17:50:21.999Z</time></trkpt><trkpt lat="44.563004820518366" lon="7.922094545955273"><ele>232.0</ele><time>2026-03-24T17:50:22.999Z</time></trkpt><trkpt lat="44.562909664301586" lon="7.922139285580339"><ele>232.0</ele><time>2026-03-24T17:50:23.999Z</time></trkpt><trkpt lat="44.56280761773263" lon="7.922187044468607"><ele>232.0</ele><time>2026-03-24T17:50:24.999Z</time></trkpt><trkpt lat="44.562703803910836" lon="7.922231313905126"><ele>232.0</ele><time>2026-03-24T17:50:25.999Z</time></trkpt><trkpt lat="44.56260870188961" lon="7.9222758295533575"><ele>232.0</ele><time>2026-03-24T17:50:26.999Z</time></trkpt><trkpt lat="44.56251157459436" lon="7.922316229351028"><ele>232.0</ele><time>2026-03-24T17:50:27.999Z</time></trkpt><trkpt lat="44.562413025342984" lon="7.922357550156749"><ele>232.0</ele><time>2026-03-24T17:50:28.999Z</time></trkpt><trkpt lat="44.56231325403563" lon="7.922399393946943"><ele>232.0</ele><time>2026-03-24T17:50:29.999Z</time></trkpt><trkpt lat="44.562208192144084" lon="7.922433303167893"><ele>232.0</ele><time>2026-03-24T17:50:30.999Z</time></trkpt><trkpt lat="44.56210298186021" lon="7.922465782234761"><ele>232.0</ele><time>2026-03-24T17:50:31.999Z</time></trkpt><trkpt lat="44.56199732898174" lon="7.922503860175471"><ele>232.0</ele><time>2026-03-24T17:50:32.999Z</time></trkpt><trkpt lat="44.56188650117817" lon="7.922541151079537"><ele>232.0</ele><time>2026-03-24T17:50:33.999Z</time></trkpt><trkpt lat="44.561774412798435" lon="7.922573313107446"><ele>232.0</ele><time>2026-03-24T17:50:34.999Z</time></trkpt><trkpt lat="44.561660867573885" lon="7.922598855512619"><ele>231.75</ele><time>2026-03-24T17:50:35.999Z</time></trkpt><trkpt lat="44.56154579394025" lon="7.922628030239531"><ele>231.5</ele><time>2026-03-24T17:50:36.999Z</time></trkpt><trkpt lat="44.56142639226663" lon="7.922656004597766"><ele>231.25</ele><time>2026-03-24T17:50:37.998Z</time></trkpt><trkpt lat="44.56130706030253" lon="7.922686912914428"><ele>231.0</ele><time>2026-03-24T17:50:38.998Z</time></trkpt><trkpt lat="44.56118941933707" lon="7.922714475376008"><ele>230.75</ele><time>2026-03-24T17:50:39.998Z</time></trkpt><trkpt lat="44.56107224042543" lon="7.922738867724755"><ele>230.5</ele><time>2026-03-24T17:50:40.998Z</time></trkpt><trkpt lat="44.56094610527104" lon="7.922763665139069"><ele>230.25</ele><time>2026-03-24T17:50:41.998Z</time></trkpt><trkpt lat="44.56081506734375" lon="7.922780267543402"><ele>230.0</ele><time>2026-03-24T17:50:42.998Z</time></trkpt><trkpt lat="44.56067529085523" lon="7.922795457683493"><ele>230.0</ele><time>2026-03-24T17:50:43.998Z</time></trkpt><trkpt lat="44.56052695211911" lon="7.92280799152407"><ele>230.0</ele><time>2026-03-24T17:50:44.998Z</time></trkpt><trkpt lat="44.56037861243017" lon="7.9228189103157325"><ele>230.0</ele><time>2026-03-24T17:50:45.998Z</time></trkpt><trkpt lat="44.56022215970607" lon="7.922832392367185"><ele>229.66666666666669</ele><time>2026-03-24T17:50:46.998Z</time></trkpt><trkpt lat="44.560060516176335" lon="7.922837158347376"><ele>229.33333333333331</ele><time>2026-03-24T17:50:47.998Z</time></trkpt><trkpt lat="44.559892184269536" lon="7.922833788516339"><ele>229.0</ele><time>2026-03-24T17:50:48.998Z</time></trkpt><trkpt lat="44.5597177201783" lon="7.922826179537727"><ele>229.0</ele><time>2026-03-24T17:50:49.998Z</time></trkpt><trkpt lat="44.55953815532556" lon="7.922810974522563"><ele>229.0</ele><time>2026-03-24T17:50:50.998Z</time></trkpt><trkpt lat="44.5593519450298" lon="7.9227980587707"><ele>229.0</ele><time>2026-03-24T17:50:51.998Z</time></trkpt><trkpt lat="44.55915437577982" lon="7.922780782057977"><ele>229.0</ele><time>2026-03-24T17:50:52.998Z</time></trkpt><trkpt lat="44.55895626687809" lon="7.922753932136396"><ele>229.0</ele><time>2026-03-24T17:50:53.998Z</time></trkpt><trkpt lat="44.558752971778915" lon="7.92272431317703"><ele>229.0</ele><time>2026-03-24T17:50:54.998Z</time></trkpt><trkpt lat="44.5585424728506" lon="7.922688777311349"><ele>230.0</ele><time>2026-03-24T17:50:56Z</time></trkpt><trkpt lat="44.55833658232922" lon="7.9226528591281244"><ele>231.0</ele><time>2026-03-24T17:50:57Z</time></trkpt><trkpt lat="44.558135360146466" lon="7.922617582120176"><ele>232.0</ele><time>2026-03-24T17:50:58Z</time></trkpt><trkpt lat="44.55793177956368" lon="7.9225873089417265"><ele>233.0</ele><time>2026-03-24T17:50:59Z</time></trkpt><trkpt lat="44.55773137760791" lon="7.9225599593380975"><ele>234.0</ele><time>2026-03-24T17:51:00Z</time></trkpt><trkpt lat="44.55752719996171" lon="7.922519664263545"><ele>235.0</ele><time>2026-03-24T17:51:01Z</time></trkpt><trkpt lat="44.55732342154175" lon="7.92248281635066"><ele>235.0</ele><time>2026-03-24T17:51:02Z</time></trkpt><trkpt lat="44.55710746611901" lon="7.922447203225408"><ele>235.0</ele><time>2026-03-24T17:51:03Z</time></trkpt><trkpt lat="44.556892316821234" lon="7.922421897444673"><ele>235.0</ele><time>2026-03-24T17:51:04Z</time></trkpt><trkpt lat="44.55667796658246" lon="7.922370090414797"><ele>235.5</ele><time>2026-03-24T17:51:05Z</time></trkpt><trkpt lat="44.55644801207361" lon="7.922353561580034"><ele>236.0</ele><time>2026-03-24T17:51:06Z</time></trkpt><trkpt lat="44.556220231911816" lon="7.922303859874983"><ele>236.0</ele><time>2026-03-24T17:51:07Z</time></trkpt><trkpt lat="44.55598152050983" lon="7.922257798206344"><ele>236.0</ele><time>2026-03-24T17:51:08Z</time></trkpt><trkpt lat="44.55574146009883" lon="7.922206339880892"><ele>236.0</ele><time>2026-03-24T17:51:09Z</time></trkpt><trkpt lat="44.55550234558319" lon="7.922163928039455"><ele>236.0</ele><time>2026-03-24T17:51:10Z</time></trkpt><trkpt lat="44.55526528932767" lon="7.922123080053828"><ele>236.0</ele><time>2026-03-24T17:51:11Z</time></trkpt><trkpt lat="44.55502103763312" lon="7.922083545670438"><ele>236.0</ele><time>2026-03-24T17:51:12Z</time></trkpt><trkpt lat="44.55476980782762" lon="7.922055445887826"><ele>237.0</ele><time>2026-03-24T17:51:13Z</time></trkpt><trkpt lat="44.55453149072192" lon="7.922020355016991"><ele>238.0</ele><time>2026-03-24T17:51:14Z</time></trkpt><trkpt lat="44.55430350651973" lon="7.921980337259083"><ele>238.0</ele><time>2026-03-24T17:51:15Z</time></trkpt><trkpt lat="44.554078252028056" lon="7.921940817035439"><ele>238.0</ele><time>2026-03-24T17:51:16Z</time></trkpt><trkpt lat="44.55384972291253" lon="7.921901111985318"><ele>238.33333333333331</ele><time>2026-03-24T17:51:17Z</time></trkpt><trkpt lat="44.55362439838622" lon="7.9218700177930055"><ele>238.66666666666669</ele><time>2026-03-24T17:51:18Z</time></trkpt><trkpt lat="44.55341924455898" lon="7.921842188008188"><ele>239.0</ele><time>2026-03-24T17:51:19Z</time></trkpt><trkpt lat="44.55321083992146" lon="7.92181875413569"><ele>239.0</ele><time>2026-03-24T17:51:20Z</time></trkpt><trkpt lat="44.55301573991782" lon="7.921788525516553"><ele>239.0</ele><time>2026-03-24T17:51:21Z</time></trkpt><trkpt lat="44.55281114278368" lon="7.921782892000025"><ele>239.0</ele><time>2026-03-24T17:51:22Z</time></trkpt><trkpt lat="44.552619325186384" lon="7.921806336262117"><ele>240.0</ele><time>2026-03-24T17:51:23Z</time></trkpt><trkpt lat="44.552437788279846" lon="7.921811644200761"><ele>241.0</ele><time>2026-03-24T17:51:24Z</time></trkpt><trkpt lat="44.55225845488735" lon="7.9218216218839395"><ele>242.0</ele><time>2026-03-24T17:51:25Z</time></trkpt><trkpt lat="44.55208476034945" lon="7.921832072766036"><ele>242.33333333333334</ele><time>2026-03-24T17:51:26Z</time></trkpt><trkpt lat="44.551907775624315" lon="7.921847122237041"><ele>242.66666666666669</ele><time>2026-03-24T17:51:27Z</time></trkpt><trkpt lat="44.551735130536805" lon="7.921840624858506"><ele>243.0</ele><time>2026-03-24T17:51:28Z</time></trkpt><trkpt lat="44.551554479238426" lon="7.92190020831063"><ele>243.0</ele><time>2026-03-24T17:51:29Z</time></trkpt><trkpt lat="44.55137084109341" lon="7.9219355609244895"><ele>243.0</ele><time>2026-03-24T17:51:30Z</time></trkpt><trkpt lat="44.551180780277875" lon="7.921975623456436"><ele>243.0</ele><time>2026-03-24T17:51:31Z</time></trkpt><trkpt lat="44.55099370744458" lon="7.922023965939621"><ele>243.0</ele><time>2026-03-24T17:51:32Z</time></trkpt><trkpt lat="44.550826421317" lon="7.922069003561729"><ele>243.0</ele><time>2026-03-24T17:51:33Z</time></trkpt><trkpt lat="44.55064540421893" lon="7.922122526271082"><ele>243.0</ele><time>2026-03-24T17:51:34Z</time></trkpt><trkpt lat="44.55046346399786" lon="7.922193642170578"><ele>243.0</ele><time>2026-03-24T17:51:35Z</time></trkpt><trkpt lat="44.55028913231744" lon="7.922267647050297"><ele>243.0</ele><time>2026-03-24T17:51:36Z</time></trkpt><trkpt lat="44.550135141822416" lon="7.922327461862126"><ele>243.0</ele><time>2026-03-24T17:51:37Z</time></trkpt><trkpt lat="44.54997714505926" lon="7.92239862289387"><ele>243.0</ele><time>2026-03-24T17:51:38Z</time></trkpt><trkpt lat="44.549809358267105" lon="7.922475748724833"><ele>243.0</ele><time>2026-03-24T17:51:39Z</time></trkpt><trkpt lat="44.54964456466546" lon="7.922550612468673"><ele>243.0</ele><time>2026-03-24T17:51:39.999Z</time></trkpt><trkpt lat="44.549478283330174" lon="7.922642891232984"><ele>243.33333333333331</ele><time>2026-03-24T17:51:40.999Z</time></trkpt><trkpt lat="44.549324026505424" lon="7.922728137907692"><ele>243.66666666666666</ele><time>2026-03-24T17:51:41.999Z</time></trkpt><trkpt lat="44.54917279410063" lon="7.922816278539382"><ele>244.0</ele><time>2026-03-24T17:51:42.999Z</time></trkpt><trkpt lat="44.54900863172881" lon="7.9229118715373765"><ele>244.0</ele><time>2026-03-24T17:51:43.999Z</time></trkpt><trkpt lat="44.54888052031988" lon="7.923004880628745"><ele>244.0</ele><time>2026-03-24T17:51:44.999Z</time></trkpt><trkpt lat="44.54874828369982" lon="7.9230962945983"><ele>244.0</ele><time>2026-03-24T17:51:45.999Z</time></trkpt><trkpt lat="44.54862310914695" lon="7.923185894270719"><ele>244.0</ele><time>2026-03-24T17:51:46.999Z</time></trkpt><trkpt lat="44.54850716303093" lon="7.923272043562042"><ele>244.39999999999998</ele><time>2026-03-24T17:51:47.999Z</time></trkpt><trkpt lat="44.548406622869905" lon="7.923349356932306"><ele>244.79999999999998</ele><time>2026-03-24T17:51:48.999Z</time></trkpt><trkpt lat="44.548307768373334" lon="7.923424066694981"><ele>245.20000000000002</ele><time>2026-03-24T17:51:49.999Z</time></trkpt><trkpt lat="44.54821076691947" lon="7.923482243671619"><ele>245.60000000000002</ele><time>2026-03-24T17:51:50.999Z</time></trkpt><trkpt lat="44.54812160599751" lon="7.923532891358176"><ele>246.0</ele><time>2026-03-24T17:51:51.999Z</time></trkpt><trkpt lat="44.54804435933526" lon="7.923577219668893"><ele>246.60000000000002</ele><time>2026-03-24T17:51:52.999Z</time></trkpt><trkpt lat="44.54796434902038" lon="7.923618437443297"><ele>247.20000000000002</ele><time>2026-03-24T17:51:53.999Z</time></trkpt><trkpt lat="44.5478884353837" lon="7.923673416481897"><ele>247.79999999999998</ele><time>2026-03-24T17:51:54.999Z</time></trkpt><trkpt lat="44.54780579660233" lon="7.923747779559331"><ele>248.39999999999998</ele><time>2026-03-24T17:51:55.999Z</time></trkpt><trkpt lat="44.54771963809034" lon="7.923844214863474"><ele>249.0</ele><time>2026-03-24T17:51:56.999Z</time></trkpt><trkpt lat="44.547618014843714" lon="7.923935177257296"><ele>249.25</ele><time>2026-03-24T17:51:57.999Z</time></trkpt><trkpt lat="44.54751119780391" lon="7.924022764451897"><ele>249.5</ele><time>2026-03-24T17:51:58.999Z</time></trkpt><trkpt lat="44.54739217622344" lon="7.924125114254758"><ele>249.75</ele><time>2026-03-24T17:51:59.999Z</time></trkpt><trkpt lat="44.54726781287658" lon="7.9242230426001985"><ele>250.0</ele><time>2026-03-24T17:52:00.999Z</time></trkpt><trkpt lat="44.5471426163834" lon="7.924321802676157"><ele>251.66666666666666</ele><time>2026-03-24T17:52:01.999Z</time></trkpt><trkpt lat="44.54700510195439" lon="7.924426743122908"><ele>253.33333333333331</ele><time>2026-03-24T17:52:02.999Z</time></trkpt><trkpt lat="44.54686299562705" lon="7.924540797769081"><ele>255.0</ele><time>2026-03-24T17:52:03.999Z</time></trkpt><trkpt lat="44.54671672641777" lon="7.924655381775738"><ele>255.0</ele><time>2026-03-24T17:52:04.999Z</time></trkpt><trkpt lat="44.54657056207869" lon="7.924769708126204"><ele>255.0</ele><time>2026-03-24T17:52:05.999Z</time></trkpt><trkpt lat="44.54641660320409" lon="7.924887709682531"><ele>255.0</ele><time>2026-03-24T17:52:06.999Z</time></trkpt><trkpt lat="44.54626767119754" lon="7.925009460764523"><ele>259.3333333333333</ele><time>2026-03-24T17:52:07.999Z</time></trkpt><trkpt lat="44.54611341657534" lon="7.925131173385527"><ele>263.66666666666663</ele><time>2026-03-24T17:52:08.999Z</time></trkpt><trkpt lat="44.54594837998354" lon="7.9252590074399265"><ele>268.0</ele><time>2026-03-24T17:52:09.999Z</time></trkpt><trkpt lat="44.54579004332431" lon="7.925389374496736"><ele>268.0</ele><time>2026-03-24T17:52:10.999Z</time></trkpt><trkpt lat="44.5456241539731" lon="7.925514730327307"><ele>268.0</ele><time>2026-03-24T17:52:11.999Z</time></trkpt><trkpt lat="44.54545058479323" lon="7.925652978576295"><ele>268.0</ele><time>2026-03-24T17:52:12.999Z</time></trkpt><trkpt lat="44.54528120575915" lon="7.925789215136956"><ele>268.0</ele><time>2026-03-24T17:52:13.999Z</time></trkpt><trkpt lat="44.54510471371553" lon="7.925925513540099"><ele>268.0</ele><time>2026-03-24T17:52:14.999Z</time></trkpt><trkpt lat="44.544944996967715" lon="7.926050190453092"><ele>268.0</ele><time>2026-03-24T17:52:15.999Z</time></trkpt><trkpt lat="44.54478779883145" lon="7.926174397640431"><ele>268.0</ele><time>2026-03-24T17:52:16.999Z</time></trkpt><trkpt lat="44.54461742220551" lon="7.926307393109083"><ele>268.0</ele><time>2026-03-24T17:52:17.999Z</time></trkpt><trkpt lat="44.54442208293148" lon="7.926472977910932"><ele>268.0</ele><time>2026-03-24T17:52:18.999Z</time></trkpt><trkpt lat="44.54426009284126" lon="7.926600209913028"><ele>267.0</ele><time>2026-03-24T17:52:19.999Z</time></trkpt><trkpt lat="44.54411150166721" lon="7.926726152776616"><ele>266.0</ele><time>2026-03-24T17:52:20.999Z</time></trkpt><trkpt lat="44.54396818080437" lon="7.926839387078664"><ele>265.0</ele><time>2026-03-24T17:52:21.999Z</time></trkpt><trkpt lat="44.54385547642778" lon="7.926944249226111"><ele>265.0</ele><time>2026-03-24T17:52:22.999Z</time></trkpt><trkpt lat="44.543736770164244" lon="7.927039956426525"><ele>265.0</ele><time>2026-03-24T17:52:23.999Z</time></trkpt><trkpt lat="44.54362061303936" lon="7.927132791692656"><ele>265.0</ele><time>2026-03-24T17:52:24.999Z</time></trkpt><trkpt lat="44.54351389800014" lon="7.927213985035972"><ele>265.0</ele><time>2026-03-24T17:52:25.999Z</time></trkpt><trkpt lat="44.543407386942796" lon="7.927291998746732"><ele>265.0</ele><time>2026-03-24T17:52:26.999Z</time></trkpt><trkpt lat="44.54332580021986" lon="7.927355000622151"><ele>265.0</ele><time>2026-03-24T17:52:27.999Z</time></trkpt><trkpt lat="44.54323179055333" lon="7.9274322266186035"><ele>265.0</ele><time>2026-03-24T17:52:28.999Z</time></trkpt><trkpt lat="44.543128854822626" lon="7.927511569140814"><ele>265.0</ele><time>2026-03-24T17:52:29.999Z</time></trkpt><trkpt lat="44.543047001024505" lon="7.9275668859495845"><ele>265.0</ele><time>2026-03-24T17:52:30.999Z</time></trkpt><trkpt lat="44.54295029879438" lon="7.9276345176535274"><ele>264.2</ele><time>2026-03-24T17:52:31.999Z</time></trkpt><trkpt lat="44.54285982363035" lon="7.927703989915035"><ele>263.4</ele><time>2026-03-24T17:52:32.999Z</time></trkpt><trkpt lat="44.54276851480763" lon="7.927775367886413"><ele>262.6</ele><time>2026-03-24T17:52:33.999Z</time></trkpt><trkpt lat="44.542677137948544" lon="7.927838806363844"><ele>261.8</ele><time>2026-03-24T17:52:34.999Z</time></trkpt><trkpt lat="44.54258790021979" lon="7.927908365686848"><ele>261.0</ele><time>2026-03-24T17:52:35.999Z</time></trkpt><trkpt lat="44.54249681946043" lon="7.927977099740818"><ele>261.0</ele><time>2026-03-24T17:52:36.999Z</time></trkpt><trkpt lat="44.54239799584987" lon="7.928062280130281"><ele>261.0</ele><time>2026-03-24T17:52:37.999Z</time></trkpt><trkpt lat="44.54231208883403" lon="7.928135541945108"><ele>261.0</ele><time>2026-03-24T17:52:38.999Z</time></trkpt><trkpt lat="44.5422120486929" lon="7.9282087624059825"><ele>261.0</ele><time>2026-03-24T17:52:39.999Z</time></trkpt><trkpt lat="44.54211572581371" lon="7.928283420649588"><ele>261.0</ele><time>2026-03-24T17:52:40.999Z</time></trkpt><trkpt lat="44.54203052266462" lon="7.928357504215531"><ele>261.6</ele><time>2026-03-24T17:52:41.999Z</time></trkpt><trkpt lat="44.54195658211897" lon="7.928431629273386"><ele>262.20000000000005</ele><time>2026-03-24T17:52:42.999Z</time></trkpt><trkpt lat="44.54187287051326" lon="7.928513519692479"><ele>262.79999999999995</ele><time>2026-03-24T17:52:43.999Z</time></trkpt><trkpt lat="44.54179311295319" lon="7.928594203473363"><ele>263.4</ele><time>2026-03-24T17:52:44.998Z</time></trkpt><trkpt lat="44.54170692049359" lon="7.928680775028538"><ele>264.0</ele><time>2026-03-24T17:52:45.998Z</time></trkpt><trkpt lat="44.54162438243415" lon="7.928772322436319"><ele>264.0</ele><time>2026-03-24T17:52:46.998Z</time></trkpt><trkpt lat="44.54153490995526" lon="7.928842957736473"><ele>264.0</ele><time>2026-03-24T17:52:47.998Z</time></trkpt><trkpt lat="44.541451419985215" lon="7.928944404620686"><ele>264.0</ele><time>2026-03-24T17:52:48.998Z</time></trkpt><trkpt lat="44.54137160393413" lon="7.929038990392241"><ele>264.0</ele><time>2026-03-24T17:52:49.998Z</time></trkpt><trkpt lat="44.54128920380956" lon="7.929113217670028"><ele>264.0</ele><time>2026-03-24T17:52:50.998Z</time></trkpt><trkpt lat="44.54122091666018" lon="7.929199242623491"><ele>263.8</ele><time>2026-03-24T17:52:51.998Z</time></trkpt><trkpt lat="44.5411557669834" lon="7.9292880710833815"><ele>263.59999999999997</ele><time>2026-03-24T17:52:52.998Z</time></trkpt><trkpt lat="44.54107600506953" lon="7.929403776986124"><ele>263.4</ele><time>2026-03-24T17:52:53.998Z</time></trkpt><trkpt lat="44.54100079466608" lon="7.929493446475141"><ele>263.2</ele><time>2026-03-24T17:52:54.998Z</time></trkpt><trkpt lat="44.54092966411996" lon="7.929580347139577"><ele>263.0</ele><time>2026-03-24T17:52:55.998Z</time></trkpt><trkpt lat="44.54083572092604" lon="7.929666987260304"><ele>263.0</ele><time>2026-03-24T17:52:56.998Z</time></trkpt><trkpt lat="44.54075180884244" lon="7.92976365923854"><ele>263.0</ele><time>2026-03-24T17:52:57.998Z</time></trkpt><trkpt lat="44.54066575116635" lon="7.929868717662726"><ele>263.0</ele><time>2026-03-24T17:52:58.998Z</time></trkpt><trkpt lat="44.540587299224704" lon="7.929958192171563"><ele>263.0</ele><time>2026-03-24T17:52:59.998Z</time></trkpt><trkpt lat="44.54050409351743" lon="7.930046304061464"><ele>263.0</ele><time>2026-03-24T17:53:00.998Z</time></trkpt><trkpt lat="44.540417148300776" lon="7.930143328909398"><ele>263.4</ele><time>2026-03-24T17:53:02Z</time></trkpt><trkpt lat="44.5403273567861" lon="7.930236337043632"><ele>263.8</ele><time>2026-03-24T17:53:03Z</time></trkpt><trkpt lat="44.5402407567136" lon="7.930326810967061"><ele>264.2</ele><time>2026-03-24T17:53:04Z</time></trkpt><trkpt lat="44.54015105523503" lon="7.930420330360079"><ele>264.6</ele><time>2026-03-24T17:53:05Z</time></trkpt><trkpt lat="44.54007500260535" lon="7.930506712246717"><ele>265.0</ele><time>2026-03-24T17:53:06Z</time></trkpt><trkpt lat="44.5399865398921" lon="7.930602338308469"><ele>265.0</ele><time>2026-03-24T17:53:07Z</time></trkpt><trkpt lat="44.53988743465628" lon="7.930693886894147"><ele>265.0</ele><time>2026-03-24T17:53:08Z</time></trkpt><trkpt lat="44.53979830225273" lon="7.930808572862052"><ele>265.0</ele><time>2026-03-24T17:53:09Z</time></trkpt><trkpt lat="44.53972752383597" lon="7.930890911779803"><ele>265.0</ele><time>2026-03-24T17:53:10Z</time></trkpt><trkpt lat="44.53964981967295" lon="7.93098918461582"><ele>265.0</ele><time>2026-03-24T17:53:11Z</time></trkpt><trkpt lat="44.53956400671583" lon="7.931097587763969"><ele>265.5</ele><time>2026-03-24T17:53:12Z</time></trkpt><trkpt lat="44.539462547431135" lon="7.931232837841306"><ele>266.0</ele><time>2026-03-24T17:53:13Z</time></trkpt><trkpt lat="44.53937698443164" lon="7.931339323561129"><ele>266.5</ele><time>2026-03-24T17:53:14Z</time></trkpt><trkpt lat="44.53930970097389" lon="7.931439677819459"><ele>267.0</ele><time>2026-03-24T17:53:15Z</time></trkpt><trkpt lat="44.53922474317739" lon="7.93153672241244"><ele>267.0</ele><time>2026-03-24T17:53:16Z</time></trkpt><trkpt lat="44.5391492660312" lon="7.931641813886749"><ele>267.0</ele><time>2026-03-24T17:53:17Z</time></trkpt><trkpt lat="44.539059130788125" lon="7.93174964294685"><ele>267.0</ele><time>2026-03-24T17:53:18Z</time></trkpt><trkpt lat="44.53897963460891" lon="7.9318567895067265"><ele>267.0</ele><time>2026-03-24T17:53:19Z</time></trkpt><trkpt lat="44.53887564548726" lon="7.931934097208528"><ele>266.8</ele><time>2026-03-24T17:53:20Z</time></trkpt><trkpt lat="44.53879595132191" lon="7.932026145200224"><ele>266.6</ele><time>2026-03-24T17:53:21Z</time></trkpt><trkpt lat="44.53870109037721" lon="7.932121103399161"><ele>266.40000000000003</ele><time>2026-03-24T17:53:22Z</time></trkpt><trkpt lat="44.53860879323578" lon="7.932223000864723"><ele>266.2</ele><time>2026-03-24T17:53:23Z</time></trkpt><trkpt lat="44.53853095877499" lon="7.932311994624156"><ele>266.0</ele><time>2026-03-24T17:53:24Z</time></trkpt><trkpt lat="44.53844858345709" lon="7.9324055409944725"><ele>266.0</ele><time>2026-03-24T17:53:25Z</time></trkpt><trkpt lat="44.5383637029515" lon="7.932514919310756"><ele>266.0</ele><time>2026-03-24T17:53:26Z</time></trkpt><trkpt lat="44.53826954600156" lon="7.9326263308253795"><ele>266.0</ele><time>2026-03-24T17:53:27Z</time></trkpt><trkpt lat="44.53818793486595" lon="7.93272723444175"><ele>266.0</ele><time>2026-03-24T17:53:28Z</time></trkpt><trkpt lat="44.53809603013419" lon="7.932831690678023"><ele>266.40000000000003</ele><time>2026-03-24T17:53:29Z</time></trkpt><trkpt lat="44.53801159672978" lon="7.932936935955666"><ele>266.8</ele><time>2026-03-24T17:53:30Z</time></trkpt><trkpt lat="44.537926343003235" lon="7.933045330614265"><ele>267.20000000000005</ele><time>2026-03-24T17:53:31Z</time></trkpt><trkpt lat="44.5378494152494" lon="7.9331401493889455"><ele>267.6</ele><time>2026-03-24T17:53:32Z</time></trkpt><trkpt lat="44.53775781523022" lon="7.93323967211449"><ele>268.0</ele><time>2026-03-24T17:53:33Z</time></trkpt><trkpt lat="44.537677510715355" lon="7.933338143552695"><ele>268.6</ele><time>2026-03-24T17:53:34Z</time></trkpt><trkpt lat="44.53759754205848" lon="7.933436319674167"><ele>269.20000000000005</ele><time>2026-03-24T17:53:35Z</time></trkpt><trkpt lat="44.53751877102213" lon="7.933537489707673"><ele>269.8</ele><time>2026-03-24T17:53:36Z</time></trkpt><trkpt lat="44.53743340473988" lon="7.93363870090074"><ele>270.40000000000003</ele><time>2026-03-24T17:53:37Z</time></trkpt><trkpt lat="44.53735384906359" lon="7.933740717857633"><ele>271.0</ele><time>2026-03-24T17:53:38Z</time></trkpt><trkpt lat="44.53727886867739" lon="7.933838603844987"><ele>271.0</ele><time>2026-03-24T17:53:39Z</time></trkpt><trkpt lat="44.537211562940854" lon="7.933933862532846"><ele>271.0</ele><time>2026-03-24T17:53:40Z</time></trkpt><trkpt lat="44.53713625678903" lon="7.934036030853662"><ele>271.0</ele><time>2026-03-24T17:53:41Z</time></trkpt><trkpt lat="44.537065593191954" lon="7.934137867047543"><ele>271.0</ele><time>2026-03-24T17:53:42Z</time></trkpt><trkpt lat="44.537000726050614" lon="7.934234295071119"><ele>271.0</ele><time>2026-03-24T17:53:43Z</time></trkpt><trkpt lat="44.53693986070494" lon="7.934325566788425"><ele>271.16666666666663</ele><time>2026-03-24T17:53:44Z</time></trkpt><trkpt lat="44.53688038882471" lon="7.93441647732837"><ele>271.3333333333333</ele><time>2026-03-24T17:53:45Z</time></trkpt><trkpt lat="44.53681501789494" lon="7.934508574782196"><ele>271.5</ele><time>2026-03-24T17:53:46Z</time></trkpt><trkpt lat="44.53675740659888" lon="7.934590896235309"><ele>271.6666666666667</ele><time>2026-03-24T17:53:46.999Z</time></trkpt><trkpt lat="44.53670154185787" lon="7.934672543918305"><ele>271.83333333333337</ele><time>2026-03-24T17:53:47.999Z</time></trkpt><trkpt lat="44.536638997803145" lon="7.934750703826331"><ele>272.0</ele><time>2026-03-24T17:53:48.999Z</time></trkpt><trkpt lat="44.536584950714634" lon="7.934826564322737"><ele>272.0</ele><time>2026-03-24T17:53:49.999Z</time></trkpt><trkpt lat="44.53652905817214" lon="7.934896196722776"><ele>272.0</ele><time>2026-03-24T17:53:50.999Z</time></trkpt><trkpt lat="44.53647931252767" lon="7.934954780757169"><ele>272.0</ele><time>2026-03-24T17:53:51.999Z</time></trkpt><trkpt lat="44.53638859049115" lon="7.935041017268694"><ele>272.0</ele><time>2026-03-24T17:53:53.999Z</time></trkpt><trkpt lat="44.53628898551118" lon="7.93504704231556"><ele>272.0</ele><time>2026-03-24T17:53:55.999Z</time></trkpt><trkpt lat="44.53622049250625" lon="7.935014262406401"><ele>272.0</ele><time>2026-03-24T17:53:56.999Z</time></trkpt><trkpt lat="44.5361478984771" lon="7.934978616759542"><ele>272.0</ele><time>2026-03-24T17:53:57.999Z</time></trkpt><trkpt lat="44.53608436295072" lon="7.934950204975296"><ele>272.0</ele><time>2026-03-24T17:53:58.999Z</time></trkpt><trkpt lat="44.53603192165748" lon="7.9347925062495825"><ele>272.0</ele><time>2026-03-24T17:53:59.999Z</time></trkpt><trkpt lat="44.53595186669677" lon="7.934694585521797"><ele>272.0</ele><time>2026-03-24T17:54:00.999Z</time></trkpt><trkpt lat="44.53587365855805" lon="7.934597071106922"><ele>272.0</ele><time>2026-03-24T17:54:01.999Z</time></trkpt><trkpt lat="44.535796860280264" lon="7.934509301845154"><ele>272.0</ele><time>2026-03-24T17:54:02.999Z</time></trkpt><trkpt lat="44.53570509130272" lon="7.9344503132919515"><ele>272.0</ele><time>2026-03-24T17:54:03.999Z</time></trkpt><trkpt lat="44.53562182731767" lon="7.93439967976387"><ele>272.0</ele><time>2026-03-24T17:54:04.999Z</time></trkpt><trkpt lat="44.535537573384026" lon="7.934334687490284"><ele>272.0</ele><time>2026-03-24T17:54:05.999Z</time></trkpt><trkpt lat="44.535459944205755" lon="7.9342901757802595"><ele>272.0</ele><time>2026-03-24T17:54:06.999Z</time></trkpt><trkpt lat="44.53537371740053" lon="7.9342639380404805"><ele>271.6</ele><time>2026-03-24T17:54:07.999Z</time></trkpt><trkpt lat="44.535240450519886" lon="7.93421983983532"><ele>271.2</ele><time>2026-03-24T17:54:09.999Z</time></trkpt><trkpt lat="44.5351696859333" lon="7.93421904383419"><ele>270.8</ele><time>2026-03-24T17:54:10.999Z</time></trkpt><trkpt lat="44.53507189849632" lon="7.934232440172416"><ele>270.4</ele><time>2026-03-24T17:54:11.999Z</time></trkpt><trkpt lat="44.53499367692458" lon="7.934254454623012"><ele>270.0</ele><time>2026-03-24T17:54:12.999Z</time></trkpt><trkpt lat="44.53492182774153" lon="7.9344011885329895"><ele>270.0</ele><time>2026-03-24T17:54:13.999Z</time></trkpt><trkpt lat="44.534836328349115" lon="7.934448490660249"><ele>270.0</ele><time>2026-03-24T17:54:14.999Z</time></trkpt><trkpt lat="44.534733901249005" lon="7.934478192313522"><ele>270.0</ele><time>2026-03-24T17:54:15.999Z</time></trkpt><trkpt lat="44.53462400455545" lon="7.93450404597486"><ele>270.0</ele><time>2026-03-24T17:54:16.999Z</time></trkpt><trkpt lat="44.53451548723442" lon="7.934467681922401"><ele>270.0</ele><time>2026-03-24T17:54:17.999Z</time></trkpt><trkpt lat="44.53442497911913" lon="7.934516865735941"><ele>269.8</ele><time>2026-03-24T17:54:18.999Z</time></trkpt><trkpt lat="44.53433042703711" lon="7.934568822020015"><ele>269.6</ele><time>2026-03-24T17:54:19.999Z</time></trkpt><trkpt lat="44.534238074983406" lon="7.934619569391258"><ele>269.4</ele><time>2026-03-24T17:54:20.999Z</time></trkpt><trkpt lat="44.53415703653297" lon="7.934686311978828"><ele>269.2</ele><time>2026-03-24T17:54:21.999Z</time></trkpt><trkpt lat="44.53407962062704" lon="7.934719378870194"><ele>269.0</ele><time>2026-03-24T17:54:22.999Z</time></trkpt><trkpt lat="44.53398393226561" lon="7.9347526958329455"><ele>269.0</ele><time>2026-03-24T17:54:23.999Z</time></trkpt><trkpt lat="44.533880673514176" lon="7.934802949594368"><ele>269.0</ele><time>2026-03-24T17:54:24.999Z</time></trkpt><trkpt lat="44.53376895051039" lon="7.934857322624532"><ele>269.0</ele><time>2026-03-24T17:54:25.999Z</time></trkpt><trkpt lat="44.533649282701745" lon="7.934915963724696"><ele>269.0</ele><time>2026-03-24T17:54:26.999Z</time></trkpt><trkpt lat="44.53351892207759" lon="7.934980871237221"><ele>269.0</ele><time>2026-03-24T17:54:27.999Z</time></trkpt><trkpt lat="44.533381375347844" lon="7.9350527480517465"><ele>269.0</ele><time>2026-03-24T17:54:28.999Z</time></trkpt><trkpt lat="44.533240655154" lon="7.935125392261277"><ele>269.0</ele><time>2026-03-24T17:54:29.999Z</time></trkpt><trkpt lat="44.5330907541276" lon="7.935202775909393"><ele>269.75</ele><time>2026-03-24T17:54:30.999Z</time></trkpt><trkpt lat="44.532942011114564" lon="7.9352799635141125"><ele>270.5</ele><time>2026-03-24T17:54:31.999Z</time></trkpt><trkpt lat="44.53280082543772" lon="7.935354976548869"><ele>271.25</ele><time>2026-03-24T17:54:32.999Z</time></trkpt><trkpt lat="44.53267380961991" lon="7.935422461032507"><ele>272.0</ele><time>2026-03-24T17:54:33.999Z</time></trkpt><trkpt lat="44.53255105799042" lon="7.935487679917348"><ele>272.0</ele><time>2026-03-24T17:54:34.999Z</time></trkpt><trkpt lat="44.532444664491535" lon="7.935569071156561"><ele>272.0</ele><time>2026-03-24T17:54:35.999Z</time></trkpt><trkpt lat="44.532337785158155" lon="7.935622676912255"><ele>272.0</ele><time>2026-03-24T17:54:36.999Z</time></trkpt><trkpt lat="44.532232246885265" lon="7.935675113845688"><ele>272.0</ele><time>2026-03-24T17:54:37.999Z</time></trkpt><trkpt lat="44.53214224643941" lon="7.935717636421364"><ele>272.0</ele><time>2026-03-24T17:54:38.999Z</time></trkpt><trkpt lat="44.53206592655161" lon="7.935748216814417"><ele>272.0</ele><time>2026-03-24T17:54:39.999Z</time></trkpt><trkpt lat="44.53199872128224" lon="7.935779681960097"><ele>272.0</ele><time>2026-03-24T17:54:40.999Z</time></trkpt><trkpt lat="44.531936911589696" lon="7.935801429215036"><ele>272.0</ele><time>2026-03-24T17:54:41.999Z</time></trkpt><trkpt lat="44.53183643785708" lon="7.935908184174807"><ele>272.0</ele><time>2026-03-24T17:54:43.999Z</time></trkpt><trkpt lat="44.531803634457624" lon="7.936002720377724"><ele>272.0</ele><time>2026-03-24T17:54:44.999Z</time></trkpt><trkpt lat="44.53177877239876" lon="7.936114798341987"><ele>272.0</ele><time>2026-03-24T17:54:45.999Z</time></trkpt><trkpt lat="44.53176048244089" lon="7.936249237776035"><ele>272.0</ele><time>2026-03-24T17:54:46.999Z</time></trkpt><trkpt lat="44.53175787598661" lon="7.936404958960414"><ele>272.0</ele><time>2026-03-24T17:54:47.999Z</time></trkpt><trkpt lat="44.53174951357023" lon="7.936565623666714"><ele>272.0</ele><time>2026-03-24T17:54:48.999Z</time></trkpt><trkpt lat="44.53173774276646" lon="7.936733334178157"><ele>272.0</ele><time>2026-03-24T17:54:49.999Z</time></trkpt><trkpt lat="44.531722359996664" lon="7.936878900448515"><ele>272.4</ele><time>2026-03-24T17:54:50.999Z</time></trkpt><trkpt lat="44.531705266145686" lon="7.93701304719178"><ele>272.79999999999995</ele><time>2026-03-24T17:54:51.998Z</time></trkpt><trkpt lat="44.53169251958976" lon="7.937139925491573"><ele>273.2</ele><time>2026-03-24T17:54:52.998Z</time></trkpt><trkpt lat="44.531680912823305" lon="7.93725895996451"><ele>273.59999999999997</ele><time>2026-03-24T17:54:53.998Z</time></trkpt><trkpt lat="44.531669427849195" lon="7.937382504968819"><ele>274.0</ele><time>2026-03-24T17:54:54.998Z</time></trkpt><trkpt lat="44.53166201362275" lon="7.937504650787667"><ele>274.0</ele><time>2026-03-24T17:54:55.998Z</time></trkpt><trkpt lat="44.53165679435504" lon="7.937618605223759"><ele>274.0</ele><time>2026-03-24T17:54:56.998Z</time></trkpt><trkpt lat="44.5316509840797" lon="7.937719023540976"><ele>274.0</ele><time>2026-03-24T17:54:57.998Z</time></trkpt><trkpt lat="44.53164237063872" lon="7.937836611446161"><ele>274.0</ele><time>2026-03-24T17:54:58.998Z</time></trkpt><trkpt lat="44.53163538466088" lon="7.937953994079015"><ele>274.0</ele><time>2026-03-24T17:54:59.998Z</time></trkpt><trkpt lat="44.53162705707528" lon="7.938048216786783"><ele>274.0</ele><time>2026-03-24T17:55:00.998Z</time></trkpt><trkpt lat="44.53162204098596" lon="7.938145163510863"><ele>274.0</ele><time>2026-03-24T17:55:01.998Z</time></trkpt><trkpt lat="44.531615261419084" lon="7.938238783229469"><ele>274.0</ele><time>2026-03-24T17:55:02.998Z</time></trkpt><trkpt lat="44.531607189231366" lon="7.938330857461029"><ele>274.0</ele><time>2026-03-24T17:55:03.998Z</time></trkpt><trkpt lat="44.53158888515288" lon="7.938483096601083"><ele>274.0</ele><time>2026-03-24T17:55:05.998Z</time></trkpt><trkpt lat="44.53157044703162" lon="7.938662783804456"><ele>274.0</ele><time>2026-03-24T17:55:08Z</time></trkpt><trkpt lat="44.531553109846996" lon="7.9387811209921555"><ele>274.2</ele><time>2026-03-24T17:55:09Z</time></trkpt><trkpt lat="44.53154225023751" lon="7.938909175777824"><ele>274.4</ele><time>2026-03-24T17:55:10Z</time></trkpt><trkpt lat="44.531529890801735" lon="7.939057574687835"><ele>274.6</ele><time>2026-03-24T17:55:11Z</time></trkpt><trkpt lat="44.531514872662186" lon="7.939219369539632"><ele>274.8</ele><time>2026-03-24T17:55:12Z</time></trkpt><trkpt lat="44.5315043754441" lon="7.939366261810746"><ele>275.0</ele><time>2026-03-24T17:55:13Z</time></trkpt><trkpt lat="44.531493671022346" lon="7.939498848556934"><ele>275.0</ele><time>2026-03-24T17:55:14Z</time></trkpt><trkpt lat="44.531484354274056" lon="7.93962235168536"><ele>275.0</ele><time>2026-03-24T17:55:15Z</time></trkpt><trkpt lat="44.53147409477722" lon="7.939734276837881"><ele>275.0</ele><time>2026-03-24T17:55:16Z</time></trkpt><trkpt lat="44.531467483901515" lon="7.939836732910296"><ele>275.0</ele><time>2026-03-24T17:55:17Z</time></trkpt><trkpt lat="44.531464187532194" lon="7.9399455056037365"><ele>275.0</ele><time>2026-03-24T17:55:18Z</time></trkpt><trkpt lat="44.53145839404637" lon="7.940077602413905"><ele>275.0</ele><time>2026-03-24T17:55:19Z</time></trkpt><trkpt lat="44.531447191211704" lon="7.9402123486443745"><ele>275.4</ele><time>2026-03-24T17:55:20Z</time></trkpt><trkpt lat="44.531433471318955" lon="7.940370539195051"><ele>275.8</ele><time>2026-03-24T17:55:21Z</time></trkpt><trkpt lat="44.531424676884754" lon="7.940526846749686"><ele>276.2</ele><time>2026-03-24T17:55:22Z</time></trkpt><trkpt lat="44.53141263147157" lon="7.940665899524394"><ele>276.6</ele><time>2026-03-24T17:55:23Z</time></trkpt><trkpt lat="44.531402858730964" lon="7.940799120239566"><ele>277.0</ele><time>2026-03-24T17:55:24Z</time></trkpt><trkpt lat="44.531394096238785" lon="7.940937915300299"><ele>277.4</ele><time>2026-03-24T17:55:25Z</time></trkpt><trkpt lat="44.53138405881264" lon="7.941062282206886"><ele>277.79999999999995</ele><time>2026-03-24T17:55:26Z</time></trkpt><trkpt lat="44.531379273199526" lon="7.941152251258856"><ele>278.2</ele><time>2026-03-24T17:55:27Z</time></trkpt><trkpt lat="44.53136693511051" lon="7.941320309813621"><ele>278.59999999999997</ele><time>2026-03-24T17:55:29Z</time></trkpt><trkpt lat="44.531355067647" lon="7.941493788789041"><ele>279.0</ele><time>2026-03-24T17:55:31Z</time></trkpt><trkpt lat="44.53134859371795" lon="7.941594687364251"><ele>279.0</ele><time>2026-03-24T17:55:32Z</time></trkpt><trkpt lat="44.531342803356786" lon="7.9417040272620945"><ele>279.0</ele><time>2026-03-24T17:55:33Z</time></trkpt><trkpt lat="44.53133542582435" lon="7.941831761594029"><ele>279.0</ele><time>2026-03-24T17:55:34Z</time></trkpt><trkpt lat="44.5313288127217" lon="7.941955512640074"><ele>279.0</ele><time>2026-03-24T17:55:35Z</time></trkpt><trkpt lat="44.5313185450705" lon="7.942074977775477"><ele>279.0</ele><time>2026-03-24T17:55:36Z</time></trkpt><trkpt lat="44.531305621576095" lon="7.942196846047849"><ele>279.0</ele><time>2026-03-24T17:55:37Z</time></trkpt><trkpt lat="44.53129367493618" lon="7.942309922210507"><ele>279.1666666666667</ele><time>2026-03-24T17:55:38Z</time></trkpt><trkpt lat="44.53127945911795" lon="7.94243333709682"><ele>279.3333333333333</ele><time>2026-03-24T17:55:39Z</time></trkpt><trkpt lat="44.53126924889653" lon="7.9425606132605955"><ele>279.5</ele><time>2026-03-24T17:55:40Z</time></trkpt><trkpt lat="44.531264109138796" lon="7.942676457824041"><ele>279.66666666666663</ele><time>2026-03-24T17:55:41Z</time></trkpt><trkpt lat="44.531258251540706" lon="7.942799425906557"><ele>279.8333333333333</ele><time>2026-03-24T17:55:42Z</time></trkpt><trkpt lat="44.531242511804635" lon="7.942923867563539"><ele>280.0</ele><time>2026-03-24T17:55:43Z</time></trkpt><trkpt lat="44.53123671742688" lon="7.943064149082409"><ele>280.4</ele><time>2026-03-24T17:55:44Z</time></trkpt><trkpt lat="44.53122943585359" lon="7.943197709227897"><ele>280.8</ele><time>2026-03-24T17:55:45Z</time></trkpt><trkpt lat="44.53122318303263" lon="7.943321608870436"><ele>281.2</ele><time>2026-03-24T17:55:46Z</time></trkpt><trkpt lat="44.53121198146614" lon="7.9434496042594605"><ele>281.6</ele><time>2026-03-24T17:55:47Z</time></trkpt><trkpt lat="44.53120381520242" lon="7.94358560217378"><ele>282.0</ele><time>2026-03-24T17:55:48Z</time></trkpt><trkpt lat="44.53119863760558" lon="7.943706529830069"><ele>282.1666666666667</ele><time>2026-03-24T17:55:49Z</time></trkpt><trkpt lat="44.53119110236782" lon="7.943821744175374"><ele>282.3333333333333</ele><time>2026-03-24T17:55:50Z</time></trkpt><trkpt lat="44.53118309120768" lon="7.943934717778704"><ele>282.5</ele><time>2026-03-24T17:55:51Z</time></trkpt><trkpt lat="44.53117496471616" lon="7.944047156600853"><ele>282.66666666666663</ele><time>2026-03-24T17:55:52Z</time></trkpt><trkpt lat="44.53115811936182" lon="7.944155352928454"><ele>282.8333333333333</ele><time>2026-03-24T17:55:53Z</time></trkpt><trkpt lat="44.53115388017159" lon="7.944267403814982"><ele>283.0</ele><time>2026-03-24T17:55:54Z</time></trkpt><trkpt lat="44.53114386671428" lon="7.944370955512625"><ele>283.0</ele><time>2026-03-24T17:55:55Z</time></trkpt><trkpt lat="44.531132300278266" lon="7.944493457604718"><ele>283.0</ele><time>2026-03-24T17:55:55.999Z</time></trkpt><trkpt lat="44.53112545428994" lon="7.944614770267405"><ele>283.0</ele><time>2026-03-24T17:55:56.999Z</time></trkpt><trkpt lat="44.531117586273915" lon="7.944715971039448"><ele>283.0</ele><time>2026-03-24T17:55:57.999Z</time></trkpt><trkpt lat="44.531110909954045" lon="7.944808162337204"><ele>283.0</ele><time>2026-03-24T17:55:58.999Z</time></trkpt><trkpt lat="44.531099040021665" lon="7.944956075375558"><ele>283.0</ele><time>2026-03-24T17:56:00.999Z</time></trkpt><trkpt lat="44.53110432991129" lon="7.9450659538084905"><ele>283.25</ele><time>2026-03-24T17:56:03.999Z</time></trkpt><trkpt lat="44.53109555255177" lon="7.945185023072498"><ele>283.5</ele><time>2026-03-24T17:56:42.999Z</time></trkpt><trkpt lat="44.53117519933581" lon="7.9453994368933785"><ele>283.75</ele><time>2026-03-24T17:56:45.999Z</time></trkpt><trkpt lat="44.53123969729989" lon="7.945414244938536"><ele>284.0</ele><time>2026-03-24T17:56:46.999Z</time></trkpt><trkpt lat="44.5315519907667" lon="7.94541893402512"><ele>284.0</ele><time>2026-03-24T17:56:49.999Z</time></trkpt><trkpt lat="44.531673694022125" lon="7.945447699159865"><ele>284.0</ele><time>2026-03-24T17:56:50.999Z</time></trkpt><trkpt lat="44.53176248881624" lon="7.9454857964711465"><ele>284.0</ele><time>2026-03-24T17:56:51.999Z</time></trkpt><trkpt lat="44.53185873126096" lon="7.945515400786693"><ele>284.0</ele><time>2026-03-24T17:56:52.999Z</time></trkpt><trkpt lat="44.531940477943905" lon="7.94553556652393"><ele>284.0</ele><time>2026-03-24T17:56:53.999Z</time></trkpt><trkpt lat="44.532021633160824" lon="7.945569454011978"><ele>284.5</ele><time>2026-03-24T17:56:54.999Z</time></trkpt><trkpt lat="44.53209174904385" lon="7.945598701783937"><ele>285.0</ele><time>2026-03-24T17:56:55.999Z</time></trkpt><trkpt lat="44.53217354229914" lon="7.945633283780238"><ele>285.5</ele><time>2026-03-24T17:56:57.999Z</time></trkpt><trkpt lat="44.53225213720781" lon="7.945669945093118"><ele>286.0</ele><time>2026-03-24T17:56:59.998Z</time></trkpt><trkpt lat="44.53236002113361" lon="7.945685157747301"><ele>286.5</ele><time>2026-03-24T17:57:01.998Z</time></trkpt><trkpt lat="44.532425031334554" lon="7.945691180604231"><ele>287.0</ele><time>2026-03-24T17:57:02.998Z</time></trkpt><trkpt lat="44.532490423716965" lon="7.945753436958026"><ele>287.0</ele><time>2026-03-24T17:57:05.998Z</time></trkpt><trkpt lat="44.532477671509305" lon="7.945860435626444"><ele>287.0</ele><time>2026-03-24T17:57:07.998Z</time></trkpt><trkpt lat="44.532522830290596" lon="7.945928892167535"><ele>287.0</ele><time>2026-03-24T17:57:08.998Z</time></trkpt><trkpt lat="44.53252369006892" lon="7.946082762411392"><ele>287.0</ele><time>2026-03-24T17:57:10.998Z</time></trkpt><trkpt lat="44.532517948280116" lon="7.946203139218388"><ele>287.0</ele><time>2026-03-24T17:57:12.998Z</time></trkpt><trkpt lat="44.532512645130076" lon="7.946314319922924"><ele>287.0</ele><time>2026-03-24T17:57:15Z</time></trkpt><trkpt lat="44.532528057713364" lon="7.9464942925620665"><ele>287.1666666666667</ele><time>2026-03-24T17:57:17Z</time></trkpt><trkpt lat="44.532627480428786" lon="7.946518917799825"><ele>287.33333333333337</ele><time>2026-03-24T17:57:19Z</time></trkpt><trkpt lat="44.53271178126016" lon="7.946538147543986"><ele>287.5</ele><time>2026-03-24T17:57:22Z</time></trkpt><trkpt lat="44.5327745454631" lon="7.946552867318489"><ele>287.6666666666667</ele><time>2026-03-24T17:57:29Z</time></trkpt><trkpt lat="44.53283025053885" lon="7.946472822587651"><ele>287.8333333333333</ele><time>2026-03-24T18:03:36Z</time></trkpt><trkpt lat="44.53278614634958" lon="7.946536293907885"><ele>288.0</ele><time>2026-03-24T18:03:45Z</time></trkpt><trkpt lat="44.53275549838509" lon="7.946448405944187"><ele>288.0</ele><time>2026-03-24T18:03:52Z</time></trkpt><trkpt lat="44.532718942528405" lon="7.946373007060715"><ele>288.0</ele><time>2026-03-24T18:04:00Z</time></trkpt><trkpt lat="44.53266514413587" lon="7.946565438108832"><ele>288.0</ele><time>2026-03-24T18:04:30.999Z</time></trkpt><trkpt lat="44.532657472798036" lon="7.946780385554006"><ele>288.0</ele><time>2026-03-24T18:06:08Z</time></trkpt><trkpt lat="44.53258991711289" lon="7.946667065851341"><ele>288.0</ele><time>2026-03-24T18:06:25.999Z</time></trkpt><trkpt lat="44.53257977378522" lon="7.9465612226080085"><ele>288.0</ele><time>2026-03-24T18:06:29.999Z</time></trkpt><trkpt lat="44.53265761442631" lon="7.9462172257321795"><ele>288.0</ele><time>2026-03-24T18:06:30.999Z</time></trkpt><trkpt lat="44.53261988241674" lon="7.946649631492744"><ele>288.0</ele><time>2026-03-24T18:06:44.999Z</time></trkpt><trkpt lat="44.53267841987249" lon="7.946434016081229"><ele>288.0</ele><time>2026-03-24T18:07:46Z</time></trkpt><trkpt lat="44.53274825126379" lon="7.946639489389906"><ele>288.0</ele><time>2026-03-24T18:07:58Z</time></trkpt><trkpt lat="44.5326743641767" lon="7.946449176908709"><ele>288.0</ele><time>2026-03-24T18:09:23.198Z</time></trkpt><trkpt lat="44.53259843748681" lon="7.946592490599467"><ele>288.0</ele><time>2026-03-24T18:09:35.998Z</time></trkpt><trkpt lat="44.53256285870791" lon="7.946714407978939"><ele>288.0</ele><time>2026-03-24T18:09:36.998Z</time></trkpt><trkpt lat="44.5326652743117" lon="7.94648793297682"><ele>288.0</ele><time>2026-03-24T18:09:47.998Z</time></trkpt><trkpt lat="44.53266604855028" lon="7.946388004253277"><ele>288.0</ele><time>2026-03-24T18:12:06.998Z</time></trkpt><trkpt lat="44.53264156746192" lon="7.94647624732193"><ele>288.0</ele><time>2026-03-24T18:12:27Z</time></trkpt><trkpt lat="44.532685111634024" lon="7.946572444177319"><ele>288.0</ele><time>2026-03-24T18:12:40Z</time></trkpt><trkpt lat="44.532625513203186" lon="7.946463572175429"><ele>288.0</ele><time>2026-03-24T18:13:45.999Z</time></trkpt><trkpt lat="44.53268988959286" lon="7.946539032942549"><ele>288.0</ele><time>2026-03-24T18:13:46.999Z</time></trkpt><trkpt lat="44.532770688231054" lon="7.946531671567418"><ele>288.0</ele><time>2026-03-24T18:17:45.999Z</time></trkpt><trkpt lat="44.53271155816658" lon="7.946605187316794"><ele>288.00000000000006</ele><time>2026-03-24T18:18:06.998Z</time></trkpt><trkpt lat="44.532660707763334" lon="7.94654151805144"><ele>288.0</ele><time>2026-03-24T18:18:28Z</time></trkpt><trkpt lat="44.532681585069724" lon="7.946457582090351"><ele>288.0</ele><time>2026-03-24T18:25:14.337Z</time></trkpt><trkpt lat="44.532629865793254" lon="7.946517758025994"><ele>288.0</ele><time>2026-03-24T18:25:26.999Z</time></trkpt><trkpt lat="44.53270918174347" lon="7.946567043767748"><ele>288.0</ele><time>2026-03-24T18:26:30Z</time></trkpt><trkpt lat="44.53268476343737" lon="7.94646047992958"><ele>288.00000000000006</ele><time>2026-03-24T18:33:46.997Z</time></trkpt><trkpt lat="44.53263419938711" lon="7.9465132234495846"><ele>288.0</ele><time>2026-03-24T18:34:16Z</time></trkpt><trkpt lat="44.532706785533556" lon="7.946589475331543"><ele>288.0</ele><time>2026-03-24T18:37:10.999Z</time></trkpt><trkpt lat="44.5327049308118" lon="7.946719571141651"><ele>288.0</ele><time>2026-03-24T18:37:12.999Z</time></trkpt><trkpt lat="44.532655682608166" lon="7.946930740872741"><ele>288.0</ele><time>2026-03-24T18:38:01.998Z</time></trkpt><trkpt lat="44.532737432312516" lon="7.946849750785321"><ele>288.0</ele><time>2026-03-24T18:38:20Z</time></trkpt><trkpt lat="44.53268593823108" lon="7.946520937316437"><ele>288.0</ele><time>2026-03-24T18:38:21Z</time></trkpt><trkpt lat="44.53273900013397" lon="7.946454049213922"><ele>288.0</ele><time>2026-03-24T18:43:25.999Z</time></trkpt><trkpt lat="44.53276333441905" lon="7.946364163064063"><ele>288.0</ele><time>2026-03-24T18:43:26.999Z</time></trkpt><trkpt lat="44.532790518086955" lon="7.946283731701978"><ele>288.0</ele><time>2026-03-24T18:43:27.999Z</time></trkpt><trkpt lat="44.532783770145116" lon="7.946180982011929"><ele>288.0</ele><time>2026-03-24T18:43:29.999Z</time></trkpt><trkpt lat="44.53268847096284" lon="7.946124045715578"><ele>288.0</ele><time>2026-03-24T18:43:31.999Z</time></trkpt><trkpt lat="44.532620505945125" lon="7.946064447449797"><ele>288.0</ele><time>2026-03-24T18:43:33.999Z</time></trkpt><trkpt lat="44.532608743488645" lon="7.945963692029565"><ele>288.0</ele><time>2026-03-24T18:43:35.999Z</time></trkpt><trkpt lat="44.53258806931064" lon="7.945843784487519"><ele>288.0</ele><time>2026-03-24T18:43:38.999Z</time></trkpt><trkpt lat="44.5324783595465" lon="7.945762100583093"><ele>288.0</ele><time>2026-03-24T18:43:40.999Z</time></trkpt><trkpt lat="44.53240430059677" lon="7.9457429946653235"><ele>288.0</ele><time>2026-03-24T18:43:41.999Z</time></trkpt><trkpt lat="44.53232598361781" lon="7.945717378232969"><ele>288.0</ele><time>2026-03-24T18:43:42.999Z</time></trkpt><trkpt lat="44.5322436665689" lon="7.945621525716139"><ele>287.8</ele><time>2026-03-24T18:43:43.999Z</time></trkpt><trkpt lat="44.53213955198457" lon="7.945594674241665"><ele>287.6</ele><time>2026-03-24T18:43:44.999Z</time></trkpt><trkpt lat="44.53203495324145" lon="7.945567697908566"><ele>287.4</ele><time>2026-03-24T18:43:45.999Z</time></trkpt><trkpt lat="44.531936079325455" lon="7.945542198024077"><ele>287.2</ele><time>2026-03-24T18:43:46.999Z</time></trkpt><trkpt lat="44.53182788596393" lon="7.945514245300487"><ele>287.0</ele><time>2026-03-24T18:43:47.999Z</time></trkpt><trkpt lat="44.5317304117498" lon="7.945505219092343"><ele>286.4</ele><time>2026-03-24T18:43:48.999Z</time></trkpt><trkpt lat="44.53164933021736" lon="7.945445134401216"><ele>285.79999999999995</ele><time>2026-03-24T18:43:49.999Z</time></trkpt><trkpt lat="44.53155159521035" lon="7.945422693733589"><ele>285.2</ele><time>2026-03-24T18:43:50.999Z</time></trkpt><trkpt lat="44.53146486242186" lon="7.9453956946549855"><ele>284.59999999999997</ele><time>2026-03-24T18:43:51.999Z</time></trkpt><trkpt lat="44.53136887849541" lon="7.9453699334274255"><ele>284.0</ele><time>2026-03-24T18:43:52.999Z</time></trkpt><trkpt lat="44.53127629524004" lon="7.945375016070044"><ele>284.33333333333337</ele><time>2026-03-24T18:43:53.999Z</time></trkpt><trkpt lat="44.53118312551097" lon="7.945350486526504"><ele>284.6666666666667</ele><time>2026-03-24T18:43:54.999Z</time></trkpt><trkpt lat="44.53109098391659" lon="7.945331725338098"><ele>285.0</ele><time>2026-03-24T18:43:55.999Z</time></trkpt><trkpt lat="44.531000344866136" lon="7.945312618402533"><ele>285.3333333333333</ele><time>2026-03-24T18:43:56.999Z</time></trkpt><trkpt lat="44.53091850499387" lon="7.945288957719798"><ele>285.66666666666663</ele><time>2026-03-24T18:43:57.999Z</time></trkpt><trkpt lat="44.53083508822277" lon="7.945266815955626"><ele>286.0</ele><time>2026-03-24T18:43:58.998Z</time></trkpt><trkpt lat="44.53075646784194" lon="7.945248588080116"><ele>286.0</ele><time>2026-03-24T18:43:59.998Z</time></trkpt><trkpt lat="44.53069021114283" lon="7.945228292238973"><ele>286.0</ele><time>2026-03-24T18:44:00.998Z</time></trkpt><trkpt lat="44.530625617923874" lon="7.945200644649095"><ele>286.0</ele><time>2026-03-24T18:44:01.998Z</time></trkpt><trkpt lat="44.530527587300675" lon="7.945069014257204"><ele>286.0</ele><time>2026-03-24T18:44:03.998Z</time></trkpt><trkpt lat="44.53049367607156" lon="7.94497556000153"><ele>286.0</ele><time>2026-03-24T18:44:04.998Z</time></trkpt><trkpt lat="44.530471383822835" lon="7.9448601142507655"><ele>286.0</ele><time>2026-03-24T18:44:05.998Z</time></trkpt><trkpt lat="44.53045867777231" lon="7.944735982167706"><ele>285.6</ele><time>2026-03-24T18:44:06.998Z</time></trkpt><trkpt lat="44.5304488999064" lon="7.9446008113074456"><ele>285.20000000000005</ele><time>2026-03-24T18:44:07.998Z</time></trkpt><trkpt lat="44.530435497175226" lon="7.944453974201714"><ele>284.79999999999995</ele><time>2026-03-24T18:44:08.998Z</time></trkpt><trkpt lat="44.53042082760748" lon="7.944300735149568"><ele>284.4</ele><time>2026-03-24T18:44:09.998Z</time></trkpt><trkpt lat="44.53041337733353" lon="7.944155172165553"><ele>284.0</ele><time>2026-03-24T18:44:10.998Z</time></trkpt><trkpt lat="44.530411374568814" lon="7.9439999612992995"><ele>285.0</ele><time>2026-03-24T18:44:11.998Z</time></trkpt><trkpt lat="44.530389528148525" lon="7.943863739436036"><ele>286.0</ele><time>2026-03-24T18:44:12.998Z</time></trkpt><trkpt lat="44.53037546674354" lon="7.943723116053775"><ele>287.0</ele><time>2026-03-24T18:44:13.998Z</time></trkpt><trkpt lat="44.53036740313093" lon="7.943587395778467"><ele>288.0</ele><time>2026-03-24T18:44:14.998Z</time></trkpt><trkpt lat="44.530362361233706" lon="7.943463227012856"><ele>289.0</ele><time>2026-03-24T18:44:15.998Z</time></trkpt><trkpt lat="44.530349410502744" lon="7.943351288216893"><ele>289.0</ele><time>2026-03-24T18:44:16.998Z</time></trkpt><trkpt lat="44.530336198741466" lon="7.943238222334112"><ele>289.0</ele><time>2026-03-24T18:44:17.998Z</time></trkpt><trkpt lat="44.53031042199098" lon="7.943136942369345"><ele>289.0</ele><time>2026-03-24T18:44:18.998Z</time></trkpt><trkpt lat="44.53027794937652" lon="7.943044472119121"><ele>289.0</ele><time>2026-03-24T18:44:19.998Z</time></trkpt><trkpt lat="44.53025170896944" lon="7.942951963155706"><ele>289.0</ele><time>2026-03-24T18:44:20.998Z</time></trkpt><trkpt lat="44.5301891455558" lon="7.9428776571096105"><ele>289.0</ele><time>2026-03-24T18:44:21.998Z</time></trkpt><trkpt lat="44.53011826185671" lon="7.94282464882447"><ele>289.0</ele><time>2026-03-24T18:44:23Z</time></trkpt><trkpt lat="44.53004504728234" lon="7.942815468801271"><ele>289.0</ele><time>2026-03-24T18:44:24Z</time></trkpt><trkpt lat="44.529980461166296" lon="7.94277520108182"><ele>289.0</ele><time>2026-03-24T18:44:25Z</time></trkpt><trkpt lat="44.5299009714094" lon="7.942779426984419"><ele>289.0</ele><time>2026-03-24T18:44:26Z</time></trkpt><trkpt lat="44.52982606154644" lon="7.942801637931787"><ele>289.0</ele><time>2026-03-24T18:44:27Z</time></trkpt><trkpt lat="44.52975172377014" lon="7.942847215573055"><ele>289.0</ele><time>2026-03-24T18:44:28Z</time></trkpt><trkpt lat="44.529692214494446" lon="7.942908226848126"><ele>289.0</ele><time>2026-03-24T18:44:29Z</time></trkpt><trkpt lat="44.52963415030389" lon="7.94300611245385"><ele>289.0</ele><time>2026-03-24T18:44:30Z</time></trkpt><trkpt lat="44.52960018203614" lon="7.943117267396517"><ele>289.0</ele><time>2026-03-24T18:44:31Z</time></trkpt><trkpt lat="44.52957959805825" lon="7.943246164954385"><ele>289.0</ele><time>2026-03-24T18:44:32Z</time></trkpt><trkpt lat="44.529564354915074" lon="7.943373888212163"><ele>289.0</ele><time>2026-03-24T18:44:33Z</time></trkpt><trkpt lat="44.52954971420415" lon="7.943505328577563"><ele>294.2</ele><time>2026-03-24T18:44:34Z</time></trkpt><trkpt lat="44.529535832854506" lon="7.9436455963433446"><ele>299.4</ele><time>2026-03-24T18:44:35Z</time></trkpt><trkpt lat="44.52952180628486" lon="7.943791223177448"><ele>304.6</ele><time>2026-03-24T18:44:36Z</time></trkpt><trkpt lat="44.52950723258383" lon="7.943942530446284"><ele>309.8</ele><time>2026-03-24T18:44:37Z</time></trkpt><trkpt lat="44.52949444343814" lon="7.944095085031726"><ele>315.0</ele><time>2026-03-24T18:44:38Z</time></trkpt><trkpt lat="44.529475136421574" lon="7.9442582759011255"><ele>316.0</ele><time>2026-03-24T18:44:39Z</time></trkpt><trkpt lat="44.529455424446525" lon="7.944427873908425"><ele>317.0</ele><time>2026-03-24T18:44:40Z</time></trkpt><trkpt lat="44.529436862183914" lon="7.944598670559147"><ele>318.0</ele><time>2026-03-24T18:44:41Z</time></trkpt><trkpt lat="44.52941922962394" lon="7.94474831298913"><ele>319.0</ele><time>2026-03-24T18:44:42Z</time></trkpt><trkpt lat="44.529407329795994" lon="7.944916145265649"><ele>317.3333333333333</ele><time>2026-03-24T18:44:43Z</time></trkpt><trkpt lat="44.52939019487091" lon="7.945067125171262"><ele>315.66666666666663</ele><time>2026-03-24T18:44:44Z</time></trkpt><trkpt lat="44.52936889908881" lon="7.945199068260645"><ele>314.0</ele><time>2026-03-24T18:44:45Z</time></trkpt><trkpt lat="44.52935840027063" lon="7.945315852345005"><ele>312.3333333333333</ele><time>2026-03-24T18:44:46Z</time></trkpt><trkpt lat="44.52934496333229" lon="7.945420233654484"><ele>310.6666666666667</ele><time>2026-03-24T18:44:47Z</time></trkpt><trkpt lat="44.52932017122551" lon="7.945511059279761"><ele>309.0</ele><time>2026-03-24T18:44:48Z</time></trkpt><trkpt lat="44.52927997915593" lon="7.945607168577274"><ele>309.0</ele><time>2026-03-24T18:44:49Z</time></trkpt><trkpt lat="44.52923162003639" lon="7.945692129683868"><ele>309.0</ele><time>2026-03-24T18:44:50Z</time></trkpt><trkpt lat="44.52916286366658" lon="7.9457638432343956"><ele>309.0</ele><time>2026-03-24T18:44:51Z</time></trkpt><trkpt lat="44.529085441598056" lon="7.945840896023094"><ele>309.0</ele><time>2026-03-24T18:44:52Z</time></trkpt><trkpt lat="44.52900721530545" lon="7.9459114232708465"><ele>309.0</ele><time>2026-03-24T18:44:53Z</time></trkpt><trkpt lat="44.528915760495956" lon="7.945975220312703"><ele>308.59999999999997</ele><time>2026-03-24T18:44:54Z</time></trkpt><trkpt lat="44.52882526818054" lon="7.946051389124313"><ele>308.2</ele><time>2026-03-24T18:44:55Z</time></trkpt><trkpt lat="44.5287322805804" lon="7.946135420975077"><ele>307.79999999999995</ele><time>2026-03-24T18:44:56Z</time></trkpt><trkpt lat="44.52864108592255" lon="7.9462236093956164"><ele>307.4</ele><time>2026-03-24T18:44:57Z</time></trkpt><trkpt lat="44.528553125632214" lon="7.946313347659086"><ele>307.0</ele><time>2026-03-24T18:44:58Z</time></trkpt><trkpt lat="44.52846356489405" lon="7.946414324000423"><ele>310.0</ele><time>2026-03-24T18:44:59Z</time></trkpt><trkpt lat="44.528383653678006" lon="7.946528809025835"><ele>313.0</ele><time>2026-03-24T18:45:00Z</time></trkpt><trkpt lat="44.52829397701074" lon="7.946639911748998"><ele>316.0</ele><time>2026-03-24T18:45:01Z</time></trkpt><trkpt lat="44.528220876346424" lon="7.946768094053051"><ele>319.0</ele><time>2026-03-24T18:45:02Z</time></trkpt><trkpt lat="44.52814718175059" lon="7.946898137551198"><ele>320.0</ele><time>2026-03-24T18:45:03Z</time></trkpt><trkpt lat="44.52809340098914" lon="7.94699530753914"><ele>321.0</ele><time>2026-03-24T18:45:04Z</time></trkpt><trkpt lat="44.5280424994219" lon="7.947080862081465"><ele>322.0</ele><time>2026-03-24T18:45:05Z</time></trkpt><trkpt lat="44.527987215118785" lon="7.947156021347705"><ele>323.0</ele><time>2026-03-24T18:45:06Z</time></trkpt><trkpt lat="44.527915820907346" lon="7.947233392904782"><ele>324.0</ele><time>2026-03-24T18:45:06.999Z</time></trkpt><trkpt lat="44.527838277549066" lon="7.947294904959152"><ele>325.0</ele><time>2026-03-24T18:45:07.999Z</time></trkpt><trkpt lat="44.52774633534539" lon="7.947339861483336"><ele>325.66666666666663</ele><time>2026-03-24T18:45:08.999Z</time></trkpt><trkpt lat="44.527669980899084" lon="7.947371169595341"><ele>326.3333333333333</ele><time>2026-03-24T18:45:09.999Z</time></trkpt><trkpt lat="44.52759308160227" lon="7.947418821087587"><ele>327.0</ele><time>2026-03-24T18:45:10.999Z</time></trkpt><trkpt lat="44.52752668875998" lon="7.947463404109212"><ele>327.6666666666667</ele><time>2026-03-24T18:45:11.999Z</time></trkpt><trkpt lat="44.52749174055098" lon="7.9475671478436425"><ele>328.33333333333337</ele><time>2026-03-24T18:45:12.999Z</time></trkpt><trkpt lat="44.527449996175726" lon="7.947663653188838"><ele>329.0</ele><time>2026-03-24T18:45:13.999Z</time></trkpt><trkpt lat="44.527443327913645" lon="7.947785500975252"><ele>330.0</ele><time>2026-03-24T18:45:14.999Z</time></trkpt><trkpt lat="44.52744273281453" lon="7.947913294212536"><ele>331.0</ele><time>2026-03-24T18:45:15.999Z</time></trkpt><trkpt lat="44.52744611454793" lon="7.948022918793082"><ele>332.0</ele><time>2026-03-24T18:45:16.999Z</time></trkpt><trkpt lat="44.52742699737006" lon="7.948185191100882"><ele>333.0</ele><time>2026-03-24T18:45:18.999Z</time></trkpt><trkpt lat="44.527372393582645" lon="7.9483240098295855"><ele>334.0</ele><time>2026-03-24T18:45:20.999Z</time></trkpt><trkpt lat="44.527260202983285" lon="7.9483418942586646"><ele>334.0</ele><time>2026-03-24T18:45:22.999Z</time></trkpt><trkpt lat="44.52714020123213" lon="7.948237376206505"><ele>334.0</ele><time>2026-03-24T18:45:24.999Z</time></trkpt><trkpt lat="44.527053417825776" lon="7.948171602705627"><ele>334.0</ele><time>2026-03-24T18:45:25.999Z</time></trkpt><trkpt lat="44.526955070500826" lon="7.948101812289115"><ele>334.0</ele><time>2026-03-24T18:45:26.999Z</time></trkpt><trkpt lat="44.52686689434543" lon="7.948040387424011"><ele>334.0</ele><time>2026-03-24T18:45:27.999Z</time></trkpt><trkpt lat="44.52677039248647" lon="7.947983354728504"><ele>335.5</ele><time>2026-03-24T18:45:28.999Z</time></trkpt><trkpt lat="44.526667008033854" lon="7.947946723891122"><ele>337.0</ele><time>2026-03-24T18:45:29.999Z</time></trkpt><trkpt lat="44.52655553609287" lon="7.947904485459033"><ele>338.5</ele><time>2026-03-24T18:45:30.999Z</time></trkpt><trkpt lat="44.526438498338074" lon="7.947855336956073"><ele>340.0</ele><time>2026-03-24T18:45:31.999Z</time></trkpt><trkpt lat="44.526317998478426" lon="7.9478107025764295"><ele>340.8</ele><time>2026-03-24T18:45:32.999Z</time></trkpt><trkpt lat="44.52620564004813" lon="7.947766549015951"><ele>341.6</ele><time>2026-03-24T18:45:33.999Z</time></trkpt><trkpt lat="44.52610801557526" lon="7.947741876865364"><ele>342.4</ele><time>2026-03-24T18:45:34.999Z</time></trkpt><trkpt lat="44.52601163999046" lon="7.947698510610732"><ele>343.2</ele><time>2026-03-24T18:45:35.999Z</time></trkpt><trkpt lat="44.52592072243501" lon="7.947655157651406"><ele>344.0</ele><time>2026-03-24T18:45:36.999Z</time></trkpt><trkpt lat="44.5258303707704" lon="7.947571336945841"><ele>344.0</ele><time>2026-03-24T18:45:37.999Z</time></trkpt><trkpt lat="44.525755339747604" lon="7.947471790737581"><ele>344.0</ele><time>2026-03-24T18:45:38.999Z</time></trkpt><trkpt lat="44.525688836233485" lon="7.947344417120097"><ele>344.0</ele><time>2026-03-24T18:45:39.999Z</time></trkpt><trkpt lat="44.52564209195523" lon="7.947196023609024"><ele>344.0</ele><time>2026-03-24T18:45:40.999Z</time></trkpt><trkpt lat="44.525592572880356" lon="7.947042035749958"><ele>344.0</ele><time>2026-03-24T18:45:41.999Z</time></trkpt><trkpt lat="44.525543051341344" lon="7.946890911151089"><ele>344.0</ele><time>2026-03-24T18:45:42.999Z</time></trkpt><trkpt lat="44.52548762027332" lon="7.9467325513533265"><ele>344.0</ele><time>2026-03-24T18:45:43.999Z</time></trkpt><trkpt lat="44.52543145908862" lon="7.946569465805173"><ele>344.0</ele><time>2026-03-24T18:45:44.999Z</time></trkpt><trkpt lat="44.52537854356939" lon="7.946398430975181"><ele>346.5</ele><time>2026-03-24T18:45:45.999Z</time></trkpt><trkpt lat="44.52532609590372" lon="7.946228314621948"><ele>349.0</ele><time>2026-03-24T18:45:46.999Z</time></trkpt><trkpt lat="44.52527396131489" lon="7.946057790525741"><ele>351.5</ele><time>2026-03-24T18:45:47.999Z</time></trkpt><trkpt lat="44.52522945716352" lon="7.945912069769592"><ele>354.0</ele><time>2026-03-24T18:45:48.999Z</time></trkpt><trkpt lat="44.525168799901" lon="7.945766042920696"><ele>354.0</ele><time>2026-03-24T18:45:49.999Z</time></trkpt><trkpt lat="44.525090264403055" lon="7.9456346691332485"><ele>354.0</ele><time>2026-03-24T18:45:50.999Z</time></trkpt><trkpt lat="44.524996128022835" lon="7.945505056361124"><ele>354.0</ele><time>2026-03-24T18:45:51.999Z</time></trkpt><trkpt lat="44.524894243822345" lon="7.945384342242493"><ele>354.0</ele><time>2026-03-24T18:45:52.999Z</time></trkpt><trkpt lat="44.524790467331364" lon="7.945260920851644"><ele>354.0</ele><time>2026-03-24T18:45:53.999Z</time></trkpt><trkpt lat="44.524699262299734" lon="7.945150248123481"><ele>354.0</ele><time>2026-03-24T18:45:54.999Z</time></trkpt><trkpt lat="44.52461666922729" lon="7.945046529093339"><ele>354.0</ele><time>2026-03-24T18:45:55.999Z</time></trkpt><trkpt lat="44.524536045604165" lon="7.944951934313916"><ele>354.0</ele><time>2026-03-24T18:45:56.999Z</time></trkpt><trkpt lat="44.524459149148356" lon="7.944862595518683"><ele>354.0</ele><time>2026-03-24T18:45:57.999Z</time></trkpt><trkpt lat="44.52438181320249" lon="7.944753097244628"><ele>356.0</ele><time>2026-03-24T18:45:58.999Z</time></trkpt><trkpt lat="44.524293004382834" lon="7.944691070503247"><ele>358.0</ele><time>2026-03-24T18:45:59.999Z</time></trkpt><trkpt lat="44.52419516229204" lon="7.9446426737063796"><ele>360.0</ele><time>2026-03-24T18:46:00.999Z</time></trkpt><trkpt lat="44.52408419887104" lon="7.944626730836473"><ele>362.0</ele><time>2026-03-24T18:46:01.999Z</time></trkpt><trkpt lat="44.52398078681027" lon="7.944594086689534"><ele>364.0</ele><time>2026-03-24T18:46:02.999Z</time></trkpt><trkpt lat="44.52386399074998" lon="7.94460184384684"><ele>364.0</ele><time>2026-03-24T18:46:03.999Z</time></trkpt><trkpt lat="44.52373904504089" lon="7.944569110079251"><ele>364.0</ele><time>2026-03-24T18:46:04.999Z</time></trkpt><trkpt lat="44.52362069374831" lon="7.9445416411984215"><ele>364.0</ele><time>2026-03-24T18:46:05.998Z</time></trkpt><trkpt lat="44.5234947146675" lon="7.944527063463031"><ele>364.0</ele><time>2026-03-24T18:46:06.998Z</time></trkpt><trkpt lat="44.52336166987978" lon="7.9445130424423684"><ele>366.75</ele><time>2026-03-24T18:46:07.998Z</time></trkpt><trkpt lat="44.523228558878074" lon="7.9444984074"><ele>369.5</ele><time>2026-03-24T18:46:08.998Z</time></trkpt><trkpt lat="44.52309773700833" lon="7.94448598168032"><ele>372.25</ele><time>2026-03-24T18:46:09.998Z</time></trkpt><trkpt lat="44.522971577622755" lon="7.944472070419967"><ele>375.0</ele><time>2026-03-24T18:46:10.998Z</time></trkpt><trkpt lat="44.5228376436544" lon="7.944454975082207"><ele>377.0</ele><time>2026-03-24T18:46:11.998Z</time></trkpt><trkpt lat="44.52270151884303" lon="7.944438082207784"><ele>379.0</ele><time>2026-03-24T18:46:12.998Z</time></trkpt><trkpt lat="44.52256473550752" lon="7.94442160246114"><ele>381.0</ele><time>2026-03-24T18:46:13.998Z</time></trkpt><trkpt lat="44.52243976197573" lon="7.9444020911754984"><ele>383.0</ele><time>2026-03-24T18:46:14.998Z</time></trkpt><trkpt lat="44.52233327139321" lon="7.944376329034868"><ele>383.0</ele><time>2026-03-24T18:46:15.998Z</time></trkpt><trkpt lat="44.52223299727615" lon="7.944338956460411"><ele>383.0</ele><time>2026-03-24T18:46:16.998Z</time></trkpt><trkpt lat="44.52213099728978" lon="7.944287360211886"><ele>383.0</ele><time>2026-03-24T18:46:17.998Z</time></trkpt><trkpt lat="44.522027465139" lon="7.94422527957605"><ele>383.0</ele><time>2026-03-24T18:46:18.998Z</time></trkpt><trkpt lat="44.52192757031756" lon="7.944165166909112"><ele>383.0</ele><time>2026-03-24T18:46:19.998Z</time></trkpt><trkpt lat="44.52184542379427" lon="7.944117134628045"><ele>383.4</ele><time>2026-03-24T18:46:20.998Z</time></trkpt><trkpt lat="44.52175555894698" lon="7.944080990350783"><ele>383.79999999999995</ele><time>2026-03-24T18:46:21.998Z</time></trkpt><trkpt lat="44.52166113319394" lon="7.944073431725341"><ele>384.2</ele><time>2026-03-24T18:46:22.998Z</time></trkpt><trkpt lat="44.52156580246864" lon="7.944077273698238"><ele>384.6</ele><time>2026-03-24T18:46:23.998Z</time></trkpt><trkpt lat="44.52145969010331" lon="7.944102867552727"><ele>385.0</ele><time>2026-03-24T18:46:24.998Z</time></trkpt><trkpt lat="44.52135061559301" lon="7.944147285644488"><ele>385.0</ele><time>2026-03-24T18:46:25.998Z</time></trkpt><trkpt lat="44.52123930991742" lon="7.944198672497077"><ele>385.0</ele><time>2026-03-24T18:46:26.998Z</time></trkpt><trkpt lat="44.52112896270895" lon="7.9442669848679195"><ele>385.0</ele><time>2026-03-24T18:46:27.998Z</time></trkpt><trkpt lat="44.52100787896678" lon="7.944338330228744"><ele>385.0</ele><time>2026-03-24T18:46:29Z</time></trkpt><trkpt lat="44.52090257820867" lon="7.944395439259924"><ele>387.2</ele><time>2026-03-24T18:46:30Z</time></trkpt><trkpt lat="44.52079959505012" lon="7.944441617977573"><ele>389.4</ele><time>2026-03-24T18:46:31Z</time></trkpt><trkpt lat="44.520693709512564" lon="7.9444596929388185"><ele>391.6</ele><time>2026-03-24T18:46:32Z</time></trkpt><trkpt lat="44.52060329412001" lon="7.9445016135422115"><ele>393.8</ele><time>2026-03-24T18:46:33Z</time></trkpt><trkpt lat="44.52052306680023" lon="7.944539046668987"><ele>396.0</ele><time>2026-03-24T18:46:34Z</time></trkpt><trkpt lat="44.52042965934205" lon="7.944581127087761"><ele>393.4</ele><time>2026-03-24T18:46:35Z</time></trkpt><trkpt lat="44.520344279538705" lon="7.944603624562661"><ele>390.8</ele><time>2026-03-24T18:46:36Z</time></trkpt><trkpt lat="44.52025259389507" lon="7.944609183853297"><ele>388.2</ele><time>2026-03-24T18:46:37Z</time></trkpt><trkpt lat="44.52015446033951" lon="7.944587459593988"><ele>385.59999999999997</ele><time>2026-03-24T18:46:38Z</time></trkpt><trkpt lat="44.520041746553055" lon="7.944540051105541"><ele>383.0</ele><time>2026-03-24T18:46:39Z</time></trkpt><trkpt lat="44.51992768718246" lon="7.944481136126894"><ele>383.0</ele><time>2026-03-24T18:46:40Z</time></trkpt><trkpt lat="44.51980383706312" lon="7.944412230850979"><ele>383.0</ele><time>2026-03-24T18:46:41Z</time></trkpt><trkpt lat="44.51966503297822" lon="7.944332955083993"><ele>383.0</ele><time>2026-03-24T18:46:42Z</time></trkpt><trkpt lat="44.51952291229622" lon="7.944251876876846"><ele>383.0</ele><time>2026-03-24T18:46:43Z</time></trkpt><trkpt lat="44.519384024901576" lon="7.944170400288148"><ele>382.25</ele><time>2026-03-24T18:46:44Z</time></trkpt><trkpt lat="44.51924367360411" lon="7.944112273764925"><ele>381.5</ele><time>2026-03-24T18:46:45Z</time></trkpt><trkpt lat="44.51911986653428" lon="7.944030496197543"><ele>380.75</ele><time>2026-03-24T18:46:46Z</time></trkpt><trkpt lat="44.519000248335594" lon="7.943951187592822"><ele>380.0</ele><time>2026-03-24T18:46:47Z</time></trkpt><trkpt lat="44.518876754460436" lon="7.943854680152194"><ele>380.0</ele><time>2026-03-24T18:46:48Z</time></trkpt><trkpt lat="44.51875719738619" lon="7.943749422287464"><ele>380.0</ele><time>2026-03-24T18:46:49Z</time></trkpt><trkpt lat="44.51863654046883" lon="7.943638436264749"><ele>380.0</ele><time>2026-03-24T18:46:50Z</time></trkpt><trkpt lat="44.518510780191725" lon="7.943509082633099"><ele>380.0</ele><time>2026-03-24T18:46:51Z</time></trkpt><trkpt lat="44.51838047017192" lon="7.9433613820151905"><ele>377.6666666666667</ele><time>2026-03-24T18:46:52Z</time></trkpt><trkpt lat="44.5182463698476" lon="7.943208168719693"><ele>375.3333333333333</ele><time>2026-03-24T18:46:53Z</time></trkpt><trkpt lat="44.51810446858193" lon="7.943041088851679"><ele>373.0</ele><time>2026-03-24T18:46:54Z</time></trkpt><trkpt lat="44.517950960055124" lon="7.942861705982429"><ele>371.66666666666663</ele><time>2026-03-24T18:46:55Z</time></trkpt><trkpt lat="44.51780719654727" lon="7.942700079175987"><ele>370.3333333333333</ele><time>2026-03-24T18:46:56Z</time></trkpt><trkpt lat="44.51767602712174" lon="7.942541285990124"><ele>369.0</ele><time>2026-03-24T18:46:57Z</time></trkpt><trkpt lat="44.51754388934013" lon="7.942394730852683"><ele>368.3333333333333</ele><time>2026-03-24T18:46:58Z</time></trkpt><trkpt lat="44.51741035943651" lon="7.942238051694191"><ele>367.66666666666663</ele><time>2026-03-24T18:46:59Z</time></trkpt><trkpt lat="44.517275950470825" lon="7.942087599395801"><ele>367.0</ele><time>2026-03-24T18:47:00Z</time></trkpt><trkpt lat="44.51714796039004" lon="7.941940076260511"><ele>367.0</ele><time>2026-03-24T18:47:01Z</time></trkpt><trkpt lat="44.51702322046396" lon="7.941796096354197"><ele>367.0</ele><time>2026-03-24T18:47:02Z</time></trkpt><trkpt lat="44.51689639143472" lon="7.941652793442449"><ele>367.0</ele><time>2026-03-24T18:47:03Z</time></trkpt><trkpt lat="44.51676384019666" lon="7.941508333795165"><ele>365.5</ele><time>2026-03-24T18:47:04Z</time></trkpt><trkpt lat="44.516640018660354" lon="7.941367045277065"><ele>364.0</ele><time>2026-03-24T18:47:05Z</time></trkpt><trkpt lat="44.516530129864" lon="7.941231813154843"><ele>362.5</ele><time>2026-03-24T18:47:06Z</time></trkpt><trkpt lat="44.51641888039037" lon="7.9411071239153115"><ele>361.0</ele><time>2026-03-24T18:47:07Z</time></trkpt><trkpt lat="44.51630878495402" lon="7.94098671452842"><ele>359.25</ele><time>2026-03-24T18:47:08Z</time></trkpt><trkpt lat="44.516205746546326" lon="7.940869029654268"><ele>357.5</ele><time>2026-03-24T18:47:09Z</time></trkpt><trkpt lat="44.5161016273558" lon="7.940751400774152"><ele>355.75</ele><time>2026-03-24T18:47:10Z</time></trkpt><trkpt lat="44.51600390676368" lon="7.94063590995516"><ele>354.0</ele><time>2026-03-24T18:47:11Z</time></trkpt><trkpt lat="44.515904552809" lon="7.940515849353507"><ele>354.0</ele><time>2026-03-24T18:47:12Z</time></trkpt><trkpt lat="44.51581802227287" lon="7.940392064412724"><ele>354.0</ele><time>2026-03-24T18:47:12.999Z</time></trkpt><trkpt lat="44.51572687274425" lon="7.940237296799592"><ele>354.0</ele><time>2026-03-24T18:47:13.999Z</time></trkpt><trkpt lat="44.51563641128451" lon="7.940072475159444"><ele>354.0</ele><time>2026-03-24T18:47:14.999Z</time></trkpt><trkpt lat="44.51554689157331" lon="7.939906411884045"><ele>354.3333333333333</ele><time>2026-03-24T18:47:15.999Z</time></trkpt><trkpt lat="44.515464333698674" lon="7.93972390356664"><ele>354.66666666666663</ele><time>2026-03-24T18:47:16.999Z</time></trkpt><trkpt lat="44.51538669168147" lon="7.939532357047804"><ele>355.0</ele><time>2026-03-24T18:47:17.999Z</time></trkpt><trkpt lat="44.51531165901719" lon="7.939336023663262"><ele>352.66666666666663</ele><time>2026-03-24T18:47:18.999Z</time></trkpt><trkpt lat="44.51522672622696" lon="7.939130041560946"><ele>350.3333333333333</ele><time>2026-03-24T18:47:19.999Z</time></trkpt><trkpt lat="44.51515024887836" lon="7.938929812795428"><ele>348.0</ele><time>2026-03-24T18:47:20.999Z</time></trkpt><trkpt lat="44.51507780363905" lon="7.938743156917677"><ele>348.0</ele><time>2026-03-24T18:47:21.999Z</time></trkpt><trkpt lat="44.51500960470742" lon="7.938572626812249"><ele>348.0</ele><time>2026-03-24T18:47:22.999Z</time></trkpt><trkpt lat="44.51494364656196" lon="7.938405737239334"><ele>348.0</ele><time>2026-03-24T18:47:23.999Z</time></trkpt><trkpt lat="44.51488787614244" lon="7.938236867691544"><ele>348.0</ele><time>2026-03-24T18:47:24.999Z</time></trkpt><trkpt lat="44.514856391190484" lon="7.938055078030258"><ele>348.0</ele><time>2026-03-24T18:47:25.999Z</time></trkpt><trkpt lat="44.514823280425844" lon="7.937879419560957"><ele>348.0</ele><time>2026-03-24T18:47:26.999Z</time></trkpt><trkpt lat="44.51480163602128" lon="7.937688297200754"><ele>348.0</ele><time>2026-03-24T18:47:27.999Z</time></trkpt><trkpt lat="44.51477738722924" lon="7.937495500752318"><ele>348.0</ele><time>2026-03-24T18:47:28.999Z</time></trkpt><trkpt lat="44.514752212161014" lon="7.937289692360739"><ele>348.0</ele><time>2026-03-24T18:47:29.999Z</time></trkpt><trkpt lat="44.514724944388696" lon="7.937068520574761"><ele>348.0</ele><time>2026-03-24T18:47:30.999Z</time></trkpt><trkpt lat="44.51469449273978" lon="7.93684085779533"><ele>348.0</ele><time>2026-03-24T18:47:31.999Z</time></trkpt><trkpt lat="44.514667379473764" lon="7.93662181372841"><ele>348.75</ele><time>2026-03-24T18:47:32.999Z</time></trkpt><trkpt lat="44.51463928811267" lon="7.93641932670868"><ele>349.5</ele><time>2026-03-24T18:47:33.999Z</time></trkpt><trkpt lat="44.514612315897956" lon="7.936218354699675"><ele>350.25</ele><time>2026-03-24T18:47:34.999Z</time></trkpt><trkpt lat="44.51459969856268" lon="7.936015166324998"><ele>351.0</ele><time>2026-03-24T18:47:35.999Z</time></trkpt><trkpt lat="44.51457046840727" lon="7.935827142238055"><ele>348.25</ele><time>2026-03-24T18:47:36.999Z</time></trkpt><trkpt lat="44.51453526052016" lon="7.935637074964947"><ele>345.5</ele><time>2026-03-24T18:47:37.999Z</time></trkpt><trkpt lat="44.514481173552284" lon="7.935448898712784"><ele>342.75</ele><time>2026-03-24T18:47:38.999Z</time></trkpt><trkpt lat="44.51445558931509" lon="7.935262684645193"><ele>340.0</ele><time>2026-03-24T18:47:39.999Z</time></trkpt><trkpt lat="44.51441173216093" lon="7.935090862575983"><ele>340.0</ele><time>2026-03-24T18:47:40.999Z</time></trkpt><trkpt lat="44.514364315655264" lon="7.934925358774815"><ele>340.0</ele><time>2026-03-24T18:47:41.999Z</time></trkpt><trkpt lat="44.51430586241114" lon="7.93474758041941"><ele>340.0</ele><time>2026-03-24T18:47:42.999Z</time></trkpt><trkpt lat="44.514243676694676" lon="7.934581319309456"><ele>340.0</ele><time>2026-03-24T18:47:43.999Z</time></trkpt><trkpt lat="44.51417697947476" lon="7.934415249886953"><ele>340.0</ele><time>2026-03-24T18:47:44.999Z</time></trkpt><trkpt lat="44.514106310960905" lon="7.934248041687782"><ele>340.0</ele><time>2026-03-24T18:47:45.999Z</time></trkpt><trkpt lat="44.514026907329686" lon="7.93410578032786"><ele>340.0</ele><time>2026-03-24T18:47:46.999Z</time></trkpt><trkpt lat="44.513967645043216" lon="7.933934953469649"><ele>340.0</ele><time>2026-03-24T18:47:47.999Z</time></trkpt><trkpt lat="44.513899047563946" lon="7.933769832968276"><ele>340.0</ele><time>2026-03-24T18:47:48.999Z</time></trkpt><trkpt lat="44.513834830708504" lon="7.933614369169946"><ele>340.0</ele><time>2026-03-24T18:47:49.999Z</time></trkpt><trkpt lat="44.51377236683569" lon="7.933464414190371"><ele>340.0</ele><time>2026-03-24T18:47:50.999Z</time></trkpt><trkpt lat="44.513717670802215" lon="7.933327460841339"><ele>340.0</ele><time>2026-03-24T18:47:51.999Z</time></trkpt><trkpt lat="44.513667587627495" lon="7.933188067110067"><ele>339.4</ele><time>2026-03-24T18:47:52.999Z</time></trkpt><trkpt lat="44.51362133658008" lon="7.9330610058449045"><ele>338.8</ele><time>2026-03-24T18:47:53.999Z</time></trkpt><trkpt lat="44.51358389528372" lon="7.9329264013036225"><ele>338.20000000000005</ele><time>2026-03-24T18:47:54.999Z</time></trkpt><trkpt lat="44.513559153146986" lon="7.932770720798495"><ele>337.6</ele><time>2026-03-24T18:47:55.999Z</time></trkpt><trkpt lat="44.51353744426435" lon="7.932603391539639"><ele>337.0</ele><time>2026-03-24T18:47:56.999Z</time></trkpt><trkpt lat="44.51352540348526" lon="7.93242194888232"><ele>335.75</ele><time>2026-03-24T18:47:57.999Z</time></trkpt><trkpt lat="44.513533528064684" lon="7.9322274905393675"><ele>334.5</ele><time>2026-03-24T18:47:58.999Z</time></trkpt><trkpt lat="44.51354673670995" lon="7.932018842467871"><ele>333.25</ele><time>2026-03-24T18:47:59.999Z</time></trkpt><trkpt lat="44.51355763739388" lon="7.93182409664235"><ele>332.0</ele><time>2026-03-24T18:48:00.999Z</time></trkpt><trkpt lat="44.51356515175589" lon="7.931621754377458"><ele>331.33333333333337</ele><time>2026-03-24T18:48:01.999Z</time></trkpt><trkpt lat="44.513561303359516" lon="7.9314134652933985"><ele>330.6666666666667</ele><time>2026-03-24T18:48:02.999Z</time></trkpt><trkpt lat="44.51355208837166" lon="7.9311946959158055"><ele>330.0</ele><time>2026-03-24T18:48:03.999Z</time></trkpt><trkpt lat="44.513526047372316" lon="7.9309832487625185"><ele>331.0</ele><time>2026-03-24T18:48:04.999Z</time></trkpt><trkpt lat="44.51349377017636" lon="7.930767045891639"><ele>332.0</ele><time>2026-03-24T18:48:05.999Z</time></trkpt><trkpt lat="44.513468107173416" lon="7.930547770199825"><ele>333.0</ele><time>2026-03-24T18:48:06.999Z</time></trkpt><trkpt lat="44.51344118207306" lon="7.930311819325305"><ele>333.0</ele><time>2026-03-24T18:48:07.999Z</time></trkpt><trkpt lat="44.51340583956625" lon="7.930109902865321"><ele>333.0</ele><time>2026-03-24T18:48:08.999Z</time></trkpt><trkpt lat="44.51337374676127" lon="7.929878312636228"><ele>333.0</ele><time>2026-03-24T18:48:09.999Z</time></trkpt><trkpt lat="44.513338156568544" lon="7.9296513556706385"><ele>333.6666666666667</ele><time>2026-03-24T18:48:10.999Z</time></trkpt><trkpt lat="44.513300399031586" lon="7.929394313163033"><ele>334.33333333333337</ele><time>2026-03-24T18:48:11.999Z</time></trkpt><trkpt lat="44.51326367187018" lon="7.929145504495568"><ele>335.0</ele><time>2026-03-24T18:48:12.998Z</time></trkpt><trkpt lat="44.513230951727245" lon="7.928902394317303"><ele>335.0</ele><time>2026-03-24T18:48:13.998Z</time></trkpt><trkpt lat="44.51318882064481" lon="7.928666406357647"><ele>335.0</ele><time>2026-03-24T18:48:14.998Z</time></trkpt><trkpt lat="44.513150364854255" lon="7.928411506058639"><ele>335.0</ele><time>2026-03-24T18:48:15.998Z</time></trkpt><trkpt lat="44.51311090343081" lon="7.928135044194098"><ele>335.33333333333337</ele><time>2026-03-24T18:48:16.998Z</time></trkpt><trkpt lat="44.51306836161145" lon="7.927864073198494"><ele>335.6666666666667</ele><time>2026-03-24T18:48:17.998Z</time></trkpt><trkpt lat="44.51302691309913" lon="7.927603592983532"><ele>336.0</ele><time>2026-03-24T18:48:18.998Z</time></trkpt><trkpt lat="44.51298797946339" lon="7.927368451477387"><ele>336.0</ele><time>2026-03-24T18:48:19.998Z</time></trkpt><trkpt lat="44.5129554877668" lon="7.927143906515329"><ele>336.0</ele><time>2026-03-24T18:48:20.998Z</time></trkpt><trkpt lat="44.512916875785685" lon="7.926924369940363"><ele>336.0</ele><time>2026-03-24T18:48:21.998Z</time></trkpt><trkpt lat="44.51288208965454" lon="7.926708426389961"><ele>336.25</ele><time>2026-03-24T18:48:22.998Z</time></trkpt><trkpt lat="44.512856955229104" lon="7.926519155042825"><ele>336.5</ele><time>2026-03-24T18:48:23.998Z</time></trkpt><trkpt lat="44.512839731627835" lon="7.926335511272541"><ele>336.75</ele><time>2026-03-24T18:48:24.998Z</time></trkpt><trkpt lat="44.51282388960263" lon="7.926145897753797"><ele>337.0</ele><time>2026-03-24T18:48:25.998Z</time></trkpt><trkpt lat="44.51281113058167" lon="7.925938808195279"><ele>337.0</ele><time>2026-03-24T18:48:26.998Z</time></trkpt><trkpt lat="44.51280740863274" lon="7.925723023398334"><ele>337.0</ele><time>2026-03-24T18:48:27.998Z</time></trkpt><trkpt lat="44.51281340436635" lon="7.925522389240417"><ele>337.0</ele><time>2026-03-24T18:48:28.998Z</time></trkpt><trkpt lat="44.51283108982327" lon="7.925328191545598"><ele>337.0</ele><time>2026-03-24T18:48:29.998Z</time></trkpt><trkpt lat="44.512855678966055" lon="7.9251294800629015"><ele>336.66666666666663</ele><time>2026-03-24T18:48:30.998Z</time></trkpt><trkpt lat="44.51288901944102" lon="7.924925805203231"><ele>336.3333333333333</ele><time>2026-03-24T18:48:31.998Z</time></trkpt><trkpt lat="44.5129312163595" lon="7.924712544652065"><ele>336.0</ele><time>2026-03-24T18:48:32.998Z</time></trkpt><trkpt lat="44.5129630800696" lon="7.924463675334583"><ele>335.3333333333333</ele><time>2026-03-24T18:48:33.998Z</time></trkpt><trkpt lat="44.51302227892532" lon="7.924234167729038"><ele>334.66666666666663</ele><time>2026-03-24T18:48:35Z</time></trkpt><trkpt lat="44.51306646683458" lon="7.924003855252402"><ele>334.0</ele><time>2026-03-24T18:48:36Z</time></trkpt><trkpt lat="44.51310540869025" lon="7.923800882043005"><ele>334.0</ele><time>2026-03-24T18:48:37Z</time></trkpt><trkpt lat="44.513143748937736" lon="7.923598395326992"><ele>334.0</ele><time>2026-03-24T18:48:38Z</time></trkpt><trkpt lat="44.51317890130566" lon="7.923413330667315"><ele>334.0</ele><time>2026-03-24T18:48:39Z</time></trkpt><trkpt lat="44.51321336568553" lon="7.92323070842389"><ele>334.0</ele><time>2026-03-24T18:48:40Z</time></trkpt><trkpt lat="44.51323173144691" lon="7.9230447878465355"><ele>334.25</ele><time>2026-03-24T18:48:41Z</time></trkpt><trkpt lat="44.513289187349514" lon="7.922853299438541"><ele>334.5</ele><time>2026-03-24T18:48:42Z</time></trkpt><trkpt lat="44.51332025860331" lon="7.922683179626805"><ele>334.75</ele><time>2026-03-24T18:48:43Z</time></trkpt><trkpt lat="44.513349563480766" lon="7.922503955126507"><ele>335.0</ele><time>2026-03-24T18:48:44Z</time></trkpt><trkpt lat="44.513375407256426" lon="7.922349291192679"><ele>334.5</ele><time>2026-03-24T18:48:45Z</time></trkpt><trkpt lat="44.51342355705086" lon="7.922162627833654"><ele>334.0</ele><time>2026-03-24T18:48:46Z</time></trkpt><trkpt lat="44.51345466149177" lon="7.921989514633149"><ele>333.5</ele><time>2026-03-24T18:48:47Z</time></trkpt><trkpt lat="44.51348853204801" lon="7.921822410649219"><ele>333.0</ele><time>2026-03-24T18:48:48Z</time></trkpt><trkpt lat="44.51351712909455" lon="7.921649920134982"><ele>333.0</ele><time>2026-03-24T18:48:49Z</time></trkpt><trkpt lat="44.513546032655114" lon="7.921494919269638"><ele>333.0</ele><time>2026-03-24T18:48:50Z</time></trkpt><trkpt lat="44.51357211087828" lon="7.921348143306012"><ele>333.0</ele><time>2026-03-24T18:48:51Z</time></trkpt><trkpt lat="44.51360126523116" lon="7.921202817859826"><ele>333.0</ele><time>2026-03-24T18:48:52Z</time></trkpt><trkpt lat="44.513631003747896" lon="7.921058412270068"><ele>333.0</ele><time>2026-03-24T18:48:53Z</time></trkpt><trkpt lat="44.513660532261135" lon="7.9209211088628395"><ele>333.0</ele><time>2026-03-24T18:48:54Z</time></trkpt><trkpt lat="44.51369357090851" lon="7.920788049538512"><ele>333.0</ele><time>2026-03-24T18:48:55Z</time></trkpt><trkpt lat="44.51372841521666" lon="7.920652202352896"><ele>333.0</ele><time>2026-03-24T18:48:56Z</time></trkpt><trkpt lat="44.5137685658362" lon="7.920520222970029"><ele>333.0</ele><time>2026-03-24T18:48:57Z</time></trkpt><trkpt lat="44.513819514113834" lon="7.920383087189104"><ele>333.0</ele><time>2026-03-24T18:48:58Z</time></trkpt><trkpt lat="44.51387281056827" lon="7.920258840970647"><ele>332.79999999999995</ele><time>2026-03-24T18:48:59Z</time></trkpt><trkpt lat="44.513931699693664" lon="7.9201369445588305"><ele>332.6</ele><time>2026-03-24T18:49:00Z</time></trkpt><trkpt lat="44.5139954215683" lon="7.92001823584307"><ele>332.4</ele><time>2026-03-24T18:49:01Z</time></trkpt><trkpt lat="44.51405796652153" lon="7.919921712537722"><ele>332.20000000000005</ele><time>2026-03-24T18:49:02Z</time></trkpt><trkpt lat="44.5141324811521" lon="7.919828264675525"><ele>332.0</ele><time>2026-03-24T18:49:03Z</time></trkpt><trkpt lat="44.51420225301041" lon="7.919741139683846"><ele>331.40000000000003</ele><time>2026-03-24T18:49:04Z</time></trkpt><trkpt lat="44.51427641750109" lon="7.91966262506006"><ele>330.8</ele><time>2026-03-24T18:49:05Z</time></trkpt><trkpt lat="44.51434779291248" lon="7.919588262273205"><ele>330.2</ele><time>2026-03-24T18:49:06Z</time></trkpt><trkpt lat="44.5144222065297" lon="7.919496596505851"><ele>329.6</ele><time>2026-03-24T18:49:07Z</time></trkpt><trkpt lat="44.514492152072194" lon="7.919406155502959"><ele>329.0</ele><time>2026-03-24T18:49:08Z</time></trkpt><trkpt lat="44.514556732071824" lon="7.919299771578817"><ele>328.2</ele><time>2026-03-24T18:49:09Z</time></trkpt><trkpt lat="44.514613451483235" lon="7.919175718378282"><ele>327.4</ele><time>2026-03-24T18:49:10Z</time></trkpt><trkpt lat="44.51465549879832" lon="7.919033730490905"><ele>326.6</ele><time>2026-03-24T18:49:11Z</time></trkpt><trkpt lat="44.51468816396753" lon="7.918876078739608"><ele>325.8</ele><time>2026-03-24T18:49:12Z</time></trkpt><trkpt lat="44.51472639896083" lon="7.918728933471091"><ele>325.0</ele><time>2026-03-24T18:49:13Z</time></trkpt><trkpt lat="44.51478291335037" lon="7.918583664620822"><ele>325.0</ele><time>2026-03-24T18:49:14Z</time></trkpt><trkpt lat="44.51481709606715" lon="7.918457718617056"><ele>325.0</ele><time>2026-03-24T18:49:15Z</time></trkpt><trkpt lat="44.51485834470959" lon="7.918340696827202"><ele>325.0</ele><time>2026-03-24T18:49:15.999Z</time></trkpt><trkpt lat="44.51490260061271" lon="7.918226827561931"><ele>325.0</ele><time>2026-03-24T18:49:16.999Z</time></trkpt><trkpt lat="44.51496090293252" lon="7.918114187108638"><ele>325.0</ele><time>2026-03-24T18:49:17.999Z</time></trkpt><trkpt lat="44.51502631843917" lon="7.918008183390497"><ele>324.8333333333333</ele><time>2026-03-24T18:49:18.999Z</time></trkpt><trkpt lat="44.51509942907589" lon="7.917916139660575"><ele>324.66666666666663</ele><time>2026-03-24T18:49:19.999Z</time></trkpt><trkpt lat="44.51517200781651" lon="7.917842328174343"><ele>324.5</ele><time>2026-03-24T18:49:20.999Z</time></trkpt><trkpt lat="44.515254008874244" lon="7.917776254159377"><ele>324.3333333333333</ele><time>2026-03-24T18:49:21.999Z</time></trkpt><trkpt lat="44.51531995415548" lon="7.9177215753695025"><ele>324.1666666666667</ele><time>2026-03-24T18:49:22.999Z</time></trkpt><trkpt lat="44.51538851313424" lon="7.91766339941529"><ele>324.0</ele><time>2026-03-24T18:49:23.999Z</time></trkpt><trkpt lat="44.51549152316167" lon="7.917585452217258"><ele>321.2</ele><time>2026-03-24T18:49:25.999Z</time></trkpt><trkpt lat="44.51555715918322" lon="7.917496295992083"><ele>318.4</ele><time>2026-03-24T18:49:27.999Z</time></trkpt><trkpt lat="44.51555919072202" lon="7.917377117041466"><ele>315.6</ele><time>2026-03-24T18:49:29.999Z</time></trkpt><trkpt lat="44.51547586648129" lon="7.917286869997"><ele>312.8</ele><time>2026-03-24T18:49:31.999Z</time></trkpt><trkpt lat="44.51533544655958" lon="7.917257149176352"><ele>310.0</ele><time>2026-03-24T18:49:33.999Z</time></trkpt><trkpt lat="44.5152481620244" lon="7.917308789968336"><ele>311.4</ele><time>2026-03-24T18:49:34.999Z</time></trkpt><trkpt lat="44.515160915843204" lon="7.917376491604332"><ele>312.8</ele><time>2026-03-24T18:49:35.999Z</time></trkpt><trkpt lat="44.515063339244975" lon="7.9174527152239955"><ele>314.2</ele><time>2026-03-24T18:49:36.999Z</time></trkpt><trkpt lat="44.51498165511209" lon="7.917540708991938"><ele>315.6</ele><time>2026-03-24T18:49:37.999Z</time></trkpt><trkpt lat="44.514882697636715" lon="7.917600001473481"><ele>317.0</ele><time>2026-03-24T18:49:38.999Z</time></trkpt><trkpt lat="44.51480840915366" lon="7.917657203573485"><ele>317.0</ele><time>2026-03-24T18:49:39.999Z</time></trkpt><trkpt lat="44.51472966804397" lon="7.9177271778326315"><ele>317.0</ele><time>2026-03-24T18:49:40.999Z</time></trkpt><trkpt lat="44.51466450371613" lon="7.917783115996808"><ele>317.0</ele><time>2026-03-24T18:49:41.999Z</time></trkpt><trkpt lat="44.51459688870209" lon="7.917825614607251"><ele>317.0</ele><time>2026-03-24T18:49:42.999Z</time></trkpt><trkpt lat="44.514528026763074" lon="7.917851783936341"><ele>317.0</ele><time>2026-03-24T18:49:43.999Z</time></trkpt><trkpt lat="44.51445728751476" lon="7.917845950432358"><ele>317.0</ele><time>2026-03-24T18:49:44.999Z</time></trkpt><trkpt lat="44.51439211080466" lon="7.917832074490599"><ele>315.83333333333337</ele><time>2026-03-24T18:49:45.999Z</time></trkpt><trkpt lat="44.51431233209924" lon="7.917782640131572"><ele>314.6666666666667</ele><time>2026-03-24T18:49:46.999Z</time></trkpt><trkpt lat="44.514254091998254" lon="7.91771741713828"><ele>313.5</ele><time>2026-03-24T18:49:47.999Z</time></trkpt><trkpt lat="44.51420509954346" lon="7.917649039751103"><ele>312.3333333333333</ele><time>2026-03-24T18:49:48.999Z</time></trkpt><trkpt lat="44.51413618521887" lon="7.917574314805985"><ele>311.16666666666663</ele><time>2026-03-24T18:49:49.999Z</time></trkpt><trkpt lat="44.51406789690267" lon="7.917489295520389"><ele>310.0</ele><time>2026-03-24T18:49:50.999Z</time></trkpt><trkpt lat="44.513970212446935" lon="7.917429059245836"><ele>306.8</ele><time>2026-03-24T18:49:51.999Z</time></trkpt><trkpt lat="44.513875090729165" lon="7.917393102867892"><ele>303.6</ele><time>2026-03-24T18:49:52.999Z</time></trkpt><trkpt lat="44.51378796114349" lon="7.917370553880598"><ele>300.4</ele><time>2026-03-24T18:49:53.999Z</time></trkpt><trkpt lat="44.513697611192924" lon="7.917350732365245"><ele>297.2</ele><time>2026-03-24T18:49:54.999Z</time></trkpt><trkpt lat="44.51360757319664" lon="7.917339106587861"><ele>294.0</ele><time>2026-03-24T18:49:55.999Z</time></trkpt><trkpt lat="44.51351962533122" lon="7.917328436740642"><ele>293.4</ele><time>2026-03-24T18:49:56.999Z</time></trkpt><trkpt lat="44.51342279688274" lon="7.917319325982085"><ele>292.79999999999995</ele><time>2026-03-24T18:49:57.999Z</time></trkpt><trkpt lat="44.51333313527771" lon="7.91731335810887"><ele>292.20000000000005</ele><time>2026-03-24T18:49:58.999Z</time></trkpt><trkpt lat="44.513251028755434" lon="7.917312686561554"><ele>291.6</ele><time>2026-03-24T18:49:59.999Z</time></trkpt><trkpt lat="44.51314781514249" lon="7.9172967934576475"><ele>291.0</ele><time>2026-03-24T18:50:00.999Z</time></trkpt><trkpt lat="44.513056820751146" lon="7.9172958451804485"><ele>291.0</ele><time>2026-03-24T18:50:01.999Z</time></trkpt><trkpt lat="44.51296826992534" lon="7.917298021222555"><ele>291.0</ele><time>2026-03-24T18:50:02.999Z</time></trkpt><trkpt lat="44.51287552851577" lon="7.917301898751226"><ele>291.0</ele><time>2026-03-24T18:50:03.999Z</time></trkpt><trkpt lat="44.51279351831486" lon="7.9173292234087596"><ele>291.0</ele><time>2026-03-24T18:50:04.999Z</time></trkpt><trkpt lat="44.51271322904096" lon="7.917358109830799"><ele>291.0</ele><time>2026-03-24T18:50:05.999Z</time></trkpt><trkpt lat="44.51264086116567" lon="7.91739849134228"><ele>291.0</ele><time>2026-03-24T18:50:06.999Z</time></trkpt><trkpt lat="44.51257938991079" lon="7.917433579948955"><ele>290.0</ele><time>2026-03-24T18:50:07.999Z</time></trkpt><trkpt lat="44.51251400146123" lon="7.917448929365929"><ele>289.0</ele><time>2026-03-24T18:50:08.999Z</time></trkpt><trkpt lat="44.51245402149619" lon="7.917480644445484"><ele>288.0</ele><time>2026-03-24T18:50:09.999Z</time></trkpt><trkpt lat="44.512387206085414" lon="7.91751497165919"><ele>287.0</ele><time>2026-03-24T18:50:10.999Z</time></trkpt><trkpt lat="44.51232003787686" lon="7.917549734916186"><ele>286.0</ele><time>2026-03-24T18:50:11.999Z</time></trkpt><trkpt lat="44.51225245547671" lon="7.917572945184983"><ele>285.0</ele><time>2026-03-24T18:50:12.999Z</time></trkpt><trkpt lat="44.512183061899314" lon="7.917602776132048"><ele>284.0</ele><time>2026-03-24T18:50:13.999Z</time></trkpt><trkpt lat="44.51211200189138" lon="7.917619397599004"><ele>283.7142857142857</ele><time>2026-03-24T18:50:14.999Z</time></trkpt><trkpt lat="44.51201842890327" lon="7.9176389619049825"><ele>283.4285714285714</ele><time>2026-03-24T18:50:15.999Z</time></trkpt><trkpt lat="44.5119495465146" lon="7.9176536338577925"><ele>283.1428571428571</ele><time>2026-03-24T18:50:16.998Z</time></trkpt><trkpt lat="44.511880968562465" lon="7.917669698788683"><ele>282.85714285714283</ele><time>2026-03-24T18:50:17.998Z</time></trkpt><trkpt lat="44.51180623051713" lon="7.917667971391561"><ele>282.57142857142856</ele><time>2026-03-24T18:50:18.998Z</time></trkpt><trkpt lat="44.51173910628056" lon="7.917657262484323"><ele>282.2857142857143</ele><time>2026-03-24T18:50:19.998Z</time></trkpt><trkpt lat="44.51167569812791" lon="7.917606604236953"><ele>282.0</ele><time>2026-03-24T18:50:20.998Z</time></trkpt><trkpt lat="44.511575069290544" lon="7.917510527223987"><ele>281.14285714285717</ele><time>2026-03-24T18:50:22.998Z</time></trkpt><trkpt lat="44.51152980787428" lon="7.917435193154411"><ele>280.2857142857143</ele><time>2026-03-24T18:50:23.998Z</time></trkpt><trkpt lat="44.511501191447074" lon="7.917349539650096"><ele>279.42857142857144</ele><time>2026-03-24T18:50:24.998Z</time></trkpt><trkpt lat="44.511478924347756" lon="7.917259471666378"><ele>278.57142857142856</ele><time>2026-03-24T18:50:25.998Z</time></trkpt><trkpt lat="44.51145433776705" lon="7.917164620940021"><ele>277.7142857142857</ele><time>2026-03-24T18:50:26.998Z</time></trkpt><trkpt lat="44.51143232107951" lon="7.9170657022703965"><ele>276.8571428571429</ele><time>2026-03-24T18:50:27.998Z</time></trkpt><trkpt lat="44.51141499614768" lon="7.916970495354022"><ele>276.0</ele><time>2026-03-24T18:50:28.998Z</time></trkpt><trkpt lat="44.51137890195577" lon="7.916790678909414"><ele>275.42857142857144</ele><time>2026-03-24T18:50:30.998Z</time></trkpt><trkpt lat="44.51136167613206" lon="7.9166951480254655"><ele>274.8571428571429</ele><time>2026-03-24T18:50:31.998Z</time></trkpt><trkpt lat="44.511347617805306" lon="7.916607476743853"><ele>274.2857142857143</ele><time>2026-03-24T18:50:32.998Z</time></trkpt><trkpt lat="44.51132878173568" lon="7.916511548991546"><ele>273.7142857142857</ele><time>2026-03-24T18:50:33.998Z</time></trkpt><trkpt lat="44.511308488551194" lon="7.916417831579754"><ele>273.1428571428571</ele><time>2026-03-24T18:50:34.998Z</time></trkpt><trkpt lat="44.51128492885814" lon="7.916307225298805"><ele>272.57142857142856</ele><time>2026-03-24T18:50:35.998Z</time></trkpt><trkpt lat="44.51126615490128" lon="7.9162125947778375"><ele>272.0</ele><time>2026-03-24T18:50:36.998Z</time></trkpt><trkpt lat="44.51124502367876" lon="7.916108658547089"><ele>272.0</ele><time>2026-03-24T18:50:37.998Z</time></trkpt><trkpt lat="44.51122295679146" lon="7.916000825056327"><ele>272.0</ele><time>2026-03-24T18:50:38.998Z</time></trkpt><trkpt lat="44.511204334171566" lon="7.915897760618143"><ele>272.0</ele><time>2026-03-24T18:50:39.998Z</time></trkpt><trkpt lat="44.51118641216309" lon="7.9158052066124105"><ele>272.0</ele><time>2026-03-24T18:50:41Z</time></trkpt><trkpt lat="44.511169608978285" lon="7.91570898065491"><ele>272.0</ele><time>2026-03-24T18:50:42Z</time></trkpt><trkpt lat="44.51112695271167" lon="7.915544014483422"><ele>272.0</ele><time>2026-03-24T18:50:44Z</time></trkpt><trkpt lat="44.511089342800176" lon="7.915456023454296"><ele>272.0</ele><time>2026-03-24T18:50:45Z</time></trkpt><trkpt lat="44.51103953578045" lon="7.915368509102418"><ele>272.0</ele><time>2026-03-24T18:50:46Z</time></trkpt><trkpt lat="44.51098795760531" lon="7.915290520162594"><ele>272.0</ele><time>2026-03-24T18:50:47Z</time></trkpt><trkpt lat="44.51093616329999" lon="7.9152219767543315"><ele>272.0</ele><time>2026-03-24T18:50:48Z</time></trkpt><trkpt lat="44.51088497077852" lon="7.915158000578288"><ele>272.0</ele><time>2026-03-24T18:50:49Z</time></trkpt><trkpt lat="44.5108328260274" lon="7.915081009032844"><ele>272.0</ele><time>2026-03-24T18:50:50Z</time></trkpt><trkpt lat="44.51077633603074" lon="7.915000283958588"><ele>271.1666666666667</ele><time>2026-03-24T18:50:51Z</time></trkpt><trkpt lat="44.510722443159565" lon="7.914923416444632"><ele>270.33333333333337</ele><time>2026-03-24T18:50:52Z</time></trkpt><trkpt lat="44.51066610533758" lon="7.914837184185852"><ele>269.5</ele><time>2026-03-24T18:50:53Z</time></trkpt><trkpt lat="44.510613070626356" lon="7.91474828667784"><ele>268.6666666666667</ele><time>2026-03-24T18:50:54Z</time></trkpt><trkpt lat="44.5105524170608" lon="7.914649139349318"><ele>267.8333333333333</ele><time>2026-03-24T18:50:55Z</time></trkpt><trkpt lat="44.51052583019079" lon="7.914536960830842"><ele>267.0</ele><time>2026-03-24T18:50:56Z</time></trkpt><trkpt lat="44.51052177645116" lon="7.914408884852445"><ele>267.0</ele><time>2026-03-24T18:50:57Z</time></trkpt><trkpt lat="44.51053184209424" lon="7.914278816058079"><ele>267.0</ele><time>2026-03-24T18:50:58Z</time></trkpt><trkpt lat="44.510557569080156" lon="7.914140709506154"><ele>267.0</ele><time>2026-03-24T18:50:59Z</time></trkpt><trkpt lat="44.51058254516789" lon="7.914020944333166"><ele>267.0</ele><time>2026-03-24T18:51:00Z</time></trkpt><trkpt lat="44.51061023778618" lon="7.913911148255494"><ele>267.0</ele><time>2026-03-24T18:51:01Z</time></trkpt><trkpt lat="44.510638583391604" lon="7.913790499890136"><ele>266.2</ele><time>2026-03-24T18:51:02Z</time></trkpt><trkpt lat="44.51066553067204" lon="7.913675979189099"><ele>265.4</ele><time>2026-03-24T18:51:03Z</time></trkpt><trkpt lat="44.5106999251568" lon="7.913542188629454"><ele>264.6</ele><time>2026-03-24T18:51:04Z</time></trkpt><trkpt lat="44.51073325604714" lon="7.913434140102363"><ele>263.8</ele><time>2026-03-24T18:51:05Z</time></trkpt><trkpt lat="44.51077294239047" lon="7.91331680652541"><ele>263.0</ele><time>2026-03-24T18:51:06Z</time></trkpt><trkpt lat="44.51081020031107" lon="7.913191461829171"><ele>261.6</ele><time>2026-03-24T18:51:07Z</time></trkpt><trkpt lat="44.51085639642616" lon="7.913058590122838"><ele>260.20000000000005</ele><time>2026-03-24T18:51:08Z</time></trkpt><trkpt lat="44.51089898864288" lon="7.91293372211158"><ele>258.8</ele><time>2026-03-24T18:51:09Z</time></trkpt><trkpt lat="44.510933126690254" lon="7.912789136585389"><ele>257.40000000000003</ele><time>2026-03-24T18:51:10Z</time></trkpt><trkpt lat="44.510973324290596" lon="7.912633037212811"><ele>256.0</ele><time>2026-03-24T18:51:11Z</time></trkpt><trkpt lat="44.51100644902261" lon="7.91248572483534"><ele>255.0</ele><time>2026-03-24T18:51:12Z</time></trkpt><trkpt lat="44.51105899427621" lon="7.912359830183819"><ele>254.00000000000003</ele><time>2026-03-24T18:51:13Z</time></trkpt><trkpt lat="44.51109158990826" lon="7.912223685389983"><ele>253.00000000000003</ele><time>2026-03-24T18:51:14Z</time></trkpt><trkpt lat="44.51112986076079" lon="7.912094996349177"><ele>252.0</ele><time>2026-03-24T18:51:15Z</time></trkpt><trkpt lat="44.51116595744358" lon="7.911965920396945"><ele>251.0</ele><time>2026-03-24T18:51:16Z</time></trkpt><trkpt lat="44.51118961559815" lon="7.91185015854443"><ele>250.66666666666669</ele><time>2026-03-24T18:51:17Z</time></trkpt><trkpt lat="44.51121593499215" lon="7.911713586382726"><ele>250.33333333333334</ele><time>2026-03-24T18:51:18Z</time></trkpt><trkpt lat="44.51124585085922" lon="7.911582939133154"><ele>250.0</ele><time>2026-03-24T18:51:19Z</time></trkpt><trkpt lat="44.51126231897666" lon="7.911461336061113"><ele>249.66666666666669</ele><time>2026-03-24T18:51:20Z</time></trkpt><trkpt lat="44.511282437272" lon="7.911347320375665"><ele>249.33333333333334</ele><time>2026-03-24T18:51:21Z</time></trkpt><trkpt lat="44.51127724384459" lon="7.911256301745047"><ele>249.0</ele><time>2026-03-24T18:51:22Z</time></trkpt><trkpt lat="44.511264482342334" lon="7.911149358596118"><ele>249.0</ele><time>2026-03-24T18:51:22.999Z</time></trkpt><trkpt lat="44.51123101894088" lon="7.911049485039463"><ele>248.99999999999997</ele><time>2026-03-24T18:51:23.999Z</time></trkpt><trkpt lat="44.51116528998222" lon="7.910953236370944"><ele>248.99999999999997</ele><time>2026-03-24T18:51:24.999Z</time></trkpt><trkpt lat="44.51108512134942" lon="7.910873143216756"><ele>249.0</ele><time>2026-03-24T18:51:25.999Z</time></trkpt><trkpt lat="44.51100366784262" lon="7.910792535904531"><ele>249.0</ele><time>2026-03-24T18:51:26.999Z</time></trkpt><trkpt lat="44.510916604665745" lon="7.910733277424684"><ele>248.39999999999998</ele><time>2026-03-24T18:51:27.999Z</time></trkpt><trkpt lat="44.510823381938906" lon="7.910653451919535"><ele>247.79999999999998</ele><time>2026-03-24T18:51:28.999Z</time></trkpt><trkpt lat="44.51072091937178" lon="7.910553283225903"><ele>247.20000000000002</ele><time>2026-03-24T18:51:29.999Z</time></trkpt><trkpt lat="44.51062871628839" lon="7.910488509572315"><ele>246.60000000000002</ele><time>2026-03-24T18:51:30.999Z</time></trkpt><trkpt lat="44.51054536656184" lon="7.9104157369480905"><ele>246.0</ele><time>2026-03-24T18:51:31.999Z</time></trkpt><trkpt lat="44.510451539635646" lon="7.910324475260946"><ele>245.0</ele><time>2026-03-24T18:51:32.999Z</time></trkpt><trkpt lat="44.51036012815003" lon="7.91024680497944"><ele>244.00000000000003</ele><time>2026-03-24T18:51:33.999Z</time></trkpt><trkpt lat="44.510271313744546" lon="7.910183630875284"><ele>243.00000000000003</ele><time>2026-03-24T18:51:34.999Z</time></trkpt><trkpt lat="44.51017776045957" lon="7.910112097063579"><ele>242.0</ele><time>2026-03-24T18:51:35.999Z</time></trkpt><trkpt lat="44.5101022795253" lon="7.910021192977642"><ele>241.0</ele><time>2026-03-24T18:51:36.999Z</time></trkpt><trkpt lat="44.51001616145335" lon="7.909945036720447"><ele>241.0</ele><time>2026-03-24T18:51:37.999Z</time></trkpt><trkpt lat="44.50992440687131" lon="7.909863896197657"><ele>241.00000000000003</ele><time>2026-03-24T18:51:38.999Z</time></trkpt><trkpt lat="44.5098369078133" lon="7.9097863190228095"><ele>241.00000000000003</ele><time>2026-03-24T18:51:39.999Z</time></trkpt><trkpt lat="44.5097451416096" lon="7.909704905609809"><ele>241.0</ele><time>2026-03-24T18:51:40.999Z</time></trkpt><trkpt lat="44.50964569314174" lon="7.909646689162003"><ele>241.0</ele><time>2026-03-24T18:51:41.999Z</time></trkpt><trkpt lat="44.50958527339094" lon="7.909558022305444"><ele>241.8</ele><time>2026-03-24T18:51:42.999Z</time></trkpt><trkpt lat="44.50949628189162" lon="7.90947729885056"><ele>242.60000000000002</ele><time>2026-03-24T18:51:43.999Z</time></trkpt><trkpt lat="44.50941954136111" lon="7.909382243594019"><ele>243.4</ele><time>2026-03-24T18:51:44.999Z</time></trkpt><trkpt lat="44.509330429282684" lon="7.909290273515059"><ele>244.2</ele><time>2026-03-24T18:51:45.999Z</time></trkpt><trkpt lat="44.50925631270094" lon="7.90917626950821"><ele>245.0</ele><time>2026-03-24T18:51:46.999Z</time></trkpt><trkpt lat="44.509203305526235" lon="7.909061783490413"><ele>245.25</ele><time>2026-03-24T18:51:47.999Z</time></trkpt><trkpt lat="44.50913549827671" lon="7.90894103573806"><ele>245.5</ele><time>2026-03-24T18:51:48.999Z</time></trkpt><trkpt lat="44.50904251673554" lon="7.908838218434011"><ele>245.75</ele><time>2026-03-24T18:51:49.999Z</time></trkpt><trkpt lat="44.5089271158428" lon="7.908756960255824"><ele>246.0</ele><time>2026-03-24T18:51:50.999Z</time></trkpt><trkpt lat="44.508792628076165" lon="7.908671016213293"><ele>246.25</ele><time>2026-03-24T18:51:51.999Z</time></trkpt><trkpt lat="44.508667145370865" lon="7.908597148118256"><ele>246.5</ele><time>2026-03-24T18:51:52.999Z</time></trkpt><trkpt lat="44.50853740399925" lon="7.9084931821192335"><ele>246.75</ele><time>2026-03-24T18:51:53.999Z</time></trkpt><trkpt lat="44.508408326649516" lon="7.908388235201285"><ele>247.0</ele><time>2026-03-24T18:51:54.999Z</time></trkpt><trkpt lat="44.5082787853197" lon="7.908298826293514"><ele>248.0</ele><time>2026-03-24T18:51:55.999Z</time></trkpt><trkpt lat="44.508137743322806" lon="7.908195253752299"><ele>249.0</ele><time>2026-03-24T18:51:56.999Z</time></trkpt><trkpt lat="44.50799365111617" lon="7.908110049803917"><ele>250.0</ele><time>2026-03-24T18:51:57.999Z</time></trkpt><trkpt lat="44.507863148290674" lon="7.9080167285725675"><ele>252.5</ele><time>2026-03-24T18:51:58.999Z</time></trkpt><trkpt lat="44.50772931830598" lon="7.90791802426874"><ele>255.0</ele><time>2026-03-24T18:51:59.999Z</time></trkpt><trkpt lat="44.5076133078983" lon="7.907827476576366"><ele>257.5</ele><time>2026-03-24T18:52:00.999Z</time></trkpt><trkpt lat="44.50749061330676" lon="7.907730775560501"><ele>260.0</ele><time>2026-03-24T18:52:01.999Z</time></trkpt><trkpt lat="44.50739516568273" lon="7.907628447645362"><ele>260.5</ele><time>2026-03-24T18:52:02.999Z</time></trkpt><trkpt lat="44.507294924118014" lon="7.907482800064779"><ele>261.0</ele><time>2026-03-24T18:52:03.999Z</time></trkpt><trkpt lat="44.50720785268741" lon="7.907314680688642"><ele>261.5</ele><time>2026-03-24T18:52:04.999Z</time></trkpt><trkpt lat="44.50713016806306" lon="7.907168026448801"><ele>262.0</ele><time>2026-03-24T18:52:05.999Z</time></trkpt><trkpt lat="44.50705460375295" lon="7.907001816768565"><ele>262.0</ele><time>2026-03-24T18:52:06.999Z</time></trkpt><trkpt lat="44.506991659637535" lon="7.9068016387584965"><ele>262.0</ele><time>2026-03-24T18:52:07.999Z</time></trkpt><trkpt lat="44.506935846269414" lon="7.906617520900725"><ele>262.0</ele><time>2026-03-24T18:52:08.999Z</time></trkpt><trkpt lat="44.5069003879605" lon="7.9064288683117265"><ele>262.0</ele><time>2026-03-24T18:52:09.999Z</time></trkpt><trkpt lat="44.50686511835053" lon="7.906226479360826"><ele>261.66666666666663</ele><time>2026-03-24T18:52:10.999Z</time></trkpt><trkpt lat="44.506828339217996" lon="7.906007841208896"><ele>261.3333333333333</ele><time>2026-03-24T18:52:11.999Z</time></trkpt><trkpt lat="44.506789814189396" lon="7.905794356583244"><ele>261.0</ele><time>2026-03-24T18:52:12.999Z</time></trkpt><trkpt lat="44.50675207325405" lon="7.905570553563458"><ele>260.5</ele><time>2026-03-24T18:52:13.999Z</time></trkpt><trkpt lat="44.5067237872167" lon="7.905368270263209"><ele>260.0</ele><time>2026-03-24T18:52:14.999Z</time></trkpt><trkpt lat="44.50671025936178" lon="7.905165997236826"><ele>259.5</ele><time>2026-03-24T18:52:15.999Z</time></trkpt><trkpt lat="44.506696053300445" lon="7.904962035224252"><ele>259.0</ele><time>2026-03-24T18:52:16.999Z</time></trkpt><trkpt lat="44.50669714418777" lon="7.904736630797499"><ele>259.0</ele><time>2026-03-24T18:52:17.999Z</time></trkpt><trkpt lat="44.506702939726544" lon="7.9045351736674565"><ele>259.0</ele><time>2026-03-24T18:52:18.999Z</time></trkpt><trkpt lat="44.5067049984583" lon="7.904339272286469"><ele>259.0</ele><time>2026-03-24T18:52:19.999Z</time></trkpt><trkpt lat="44.50670439431726" lon="7.904129679940535"><ele>259.0</ele><time>2026-03-24T18:52:20.999Z</time></trkpt><trkpt lat="44.50670787937682" lon="7.903938012047913"><ele>259.25</ele><time>2026-03-24T18:52:21.999Z</time></trkpt><trkpt lat="44.506706939647536" lon="7.903759340164843"><ele>259.5</ele><time>2026-03-24T18:52:22.999Z</time></trkpt><trkpt lat="44.50670726503727" lon="7.903573560107321"><ele>259.75</ele><time>2026-03-24T18:52:23.998Z</time></trkpt><trkpt lat="44.50671189188763" lon="7.903378440050734"><ele>260.0</ele><time>2026-03-24T18:52:24.998Z</time></trkpt><trkpt lat="44.50671595228638" lon="7.903181712631714"><ele>260.0</ele><time>2026-03-24T18:52:25.998Z</time></trkpt><trkpt lat="44.506718561857454" lon="7.902999884585689"><ele>260.0</ele><time>2026-03-24T18:52:26.998Z</time></trkpt><trkpt lat="44.506713223919256" lon="7.9028016336784965"><ele>260.0</ele><time>2026-03-24T18:52:27.998Z</time></trkpt><trkpt lat="44.50671283369823" lon="7.902598123584532"><ele>260.0</ele><time>2026-03-24T18:52:28.998Z</time></trkpt><trkpt lat="44.50671009415022" lon="7.902398691182402"><ele>260.0</ele><time>2026-03-24T18:52:29.998Z</time></trkpt><trkpt lat="44.50670744375929" lon="7.902199306628976"><ele>260.0</ele><time>2026-03-24T18:52:30.998Z</time></trkpt><trkpt lat="44.5067005052516" lon="7.902009140699425"><ele>260.0</ele><time>2026-03-24T18:52:31.998Z</time></trkpt><trkpt lat="44.50668788960975" lon="7.901819984715217"><ele>260.0</ele><time>2026-03-24T18:52:32.998Z</time></trkpt><trkpt lat="44.506676178433416" lon="7.901625205495882"><ele>261.25</ele><time>2026-03-24T18:52:33.998Z</time></trkpt><trkpt lat="44.50665417935795" lon="7.901435517350602"><ele>262.5</ele><time>2026-03-24T18:52:34.998Z</time></trkpt><trkpt lat="44.5066417244872" lon="7.901241119208559"><ele>263.75</ele><time>2026-03-24T18:52:35.998Z</time></trkpt><trkpt lat="44.50662568081169" lon="7.90106547337458"><ele>265.0</ele><time>2026-03-24T18:52:36.998Z</time></trkpt><trkpt lat="44.50661150979673" lon="7.900901213896178"><ele>266.5</ele><time>2026-03-24T18:52:37.998Z</time></trkpt><trkpt lat="44.506596577689265" lon="7.900729874263817"><ele>268.0</ele><time>2026-03-24T18:52:38.998Z</time></trkpt><trkpt lat="44.506575641190615" lon="7.900572564217193"><ele>269.5</ele><time>2026-03-24T18:52:39.998Z</time></trkpt><trkpt lat="44.506545895182605" lon="7.900418124597958"><ele>271.0</ele><time>2026-03-24T18:52:40.998Z</time></trkpt><trkpt lat="44.50650416876754" lon="7.900252064242006"><ele>271.0</ele><time>2026-03-24T18:52:41.998Z</time></trkpt><trkpt lat="44.50644912802085" lon="7.900092712367589"><ele>271.0</ele><time>2026-03-24T18:52:42.998Z</time></trkpt><trkpt lat="44.50638595765237" lon="7.899933852351319"><ele>271.0</ele><time>2026-03-24T18:52:43.998Z</time></trkpt><trkpt lat="44.50631295638028" lon="7.899779328465756"><ele>271.0</ele><time>2026-03-24T18:52:44.998Z</time></trkpt><trkpt lat="44.506243449568856" lon="7.899622612799352"><ele>271.75</ele><time>2026-03-24T18:52:45.998Z</time></trkpt><trkpt lat="44.506168397751594" lon="7.899458935241022"><ele>272.5</ele><time>2026-03-24T18:52:47Z</time></trkpt><trkpt lat="44.50610573462032" lon="7.899299643675128"><ele>273.25</ele><time>2026-03-24T18:52:48Z</time></trkpt><trkpt lat="44.50604171926921" lon="7.8991309437251775"><ele>274.0</ele><time>2026-03-24T18:52:49Z</time></trkpt><trkpt lat="44.50597976133745" lon="7.89894299470846"><ele>274.0</ele><time>2026-03-24T18:52:50Z</time></trkpt><trkpt lat="44.50592278034568" lon="7.898745177426851"><ele>274.0</ele><time>2026-03-24T18:52:51Z</time></trkpt><trkpt lat="44.50584739414594" lon="7.898525695143861"><ele>274.0</ele><time>2026-03-24T18:52:52Z</time></trkpt><trkpt lat="44.505782940584844" lon="7.898299862283495"><ele>276.66666666666663</ele><time>2026-03-24T18:52:53Z</time></trkpt><trkpt lat="44.5057296768835" lon="7.898071544907078"><ele>279.3333333333333</ele><time>2026-03-24T18:52:54Z</time></trkpt><trkpt lat="44.505672503290704" lon="7.897799503273234"><ele>282.0</ele><time>2026-03-24T18:52:55Z</time></trkpt><trkpt lat="44.505612208715405" lon="7.89755403052339"><ele>282.3333333333333</ele><time>2026-03-24T18:52:56Z</time></trkpt><trkpt lat="44.50554978739499" lon="7.8973013099864"><ele>282.66666666666663</ele><time>2026-03-24T18:52:57Z</time></trkpt><trkpt lat="44.50548341658164" lon="7.897028356947996"><ele>283.0</ele><time>2026-03-24T18:52:58Z</time></trkpt><trkpt lat="44.50541563488654" lon="7.89676235554042"><ele>280.66666666666663</ele><time>2026-03-24T18:52:59Z</time></trkpt><trkpt lat="44.505352062756344" lon="7.896522535056598"><ele>278.3333333333333</ele><time>2026-03-24T18:53:00Z</time></trkpt><trkpt lat="44.50529182973893" lon="7.896293783180075"><ele>276.0</ele><time>2026-03-24T18:53:01Z</time></trkpt><trkpt lat="44.505236357044424" lon="7.896080586919977"><ele>277.25</ele><time>2026-03-24T18:53:02Z</time></trkpt><trkpt lat="44.50518313937169" lon="7.89591170086053"><ele>278.5</ele><time>2026-03-24T18:53:03Z</time></trkpt><trkpt lat="44.50513003184902" lon="7.895739987688795"><ele>279.75</ele><time>2026-03-24T18:53:04Z</time></trkpt><trkpt lat="44.505077954194846" lon="7.895568293025079"><ele>281.0</ele><time>2026-03-24T18:53:05Z</time></trkpt><trkpt lat="44.5050054746906" lon="7.8954073873324315"><ele>281.0</ele><time>2026-03-24T18:53:06Z</time></trkpt><trkpt lat="44.504927122241384" lon="7.895262936154864"><ele>281.0</ele><time>2026-03-24T18:53:07Z</time></trkpt><trkpt lat="44.50483421032223" lon="7.895127364377371"><ele>281.0</ele><time>2026-03-24T18:53:08Z</time></trkpt><trkpt lat="44.504731497016884" lon="7.895006962236331"><ele>281.0</ele><time>2026-03-24T18:53:09Z</time></trkpt><trkpt lat="44.504617809181816" lon="7.894879430434513"><ele>282.6666666666667</ele><time>2026-03-24T18:53:10Z</time></trkpt><trkpt lat="44.50447904412053" lon="7.894794217400649"><ele>284.3333333333333</ele><time>2026-03-24T18:53:11Z</time></trkpt><trkpt lat="44.504341821010925" lon="7.8947059001987165"><ele>286.0</ele><time>2026-03-24T18:53:12Z</time></trkpt><trkpt lat="44.50420377260212" lon="7.894620015430547"><ele>286.0</ele><time>2026-03-24T18:53:13Z</time></trkpt><trkpt lat="44.50402618975204" lon="7.894509534916308"><ele>286.0</ele><time>2026-03-24T18:53:14Z</time></trkpt><trkpt lat="44.503877445146436" lon="7.894418667702323"><ele>286.0</ele><time>2026-03-24T18:53:15Z</time></trkpt><trkpt lat="44.503728970286325" lon="7.894312440162496"><ele>290.66666666666663</ele><time>2026-03-24T18:53:16Z</time></trkpt><trkpt lat="44.50357082638902" lon="7.894238330779089"><ele>295.3333333333333</ele><time>2026-03-24T18:53:17Z</time></trkpt><trkpt lat="44.5034110560187" lon="7.894181090240618"><ele>300.0</ele><time>2026-03-24T18:53:18Z</time></trkpt><trkpt lat="44.50324322889416" lon="7.894133867099743"><ele>300.0</ele><time>2026-03-24T18:53:19Z</time></trkpt><trkpt lat="44.50307045829386" lon="7.89410330089389"><ele>300.0</ele><time>2026-03-24T18:53:20Z</time></trkpt><trkpt lat="44.50289206448519" lon="7.894078787698803"><ele>300.0</ele><time>2026-03-24T18:53:21Z</time></trkpt><trkpt lat="44.502715920761766" lon="7.894040956532416"><ele>300.6666666666667</ele><time>2026-03-24T18:53:22Z</time></trkpt><trkpt lat="44.502540293945444" lon="7.8940158195835135"><ele>301.33333333333337</ele><time>2026-03-24T18:53:23Z</time></trkpt><trkpt lat="44.50236203841273" lon="7.893978651541935"><ele>302.0</ele><time>2026-03-24T18:53:24Z</time></trkpt><trkpt lat="44.50219003314171" lon="7.893938825075066"><ele>302.33333333333337</ele><time>2026-03-24T18:53:25Z</time></trkpt><trkpt lat="44.50203849109182" lon="7.893917430416912"><ele>302.6666666666667</ele><time>2026-03-24T18:53:26Z</time></trkpt><trkpt lat="44.501885526387944" lon="7.893897897241426"><ele>303.0</ele><time>2026-03-24T18:53:27Z</time></trkpt><trkpt lat="44.50173979036812" lon="7.893885492247735"><ele>303.0</ele><time>2026-03-24T18:53:28Z</time></trkpt><trkpt lat="44.50160104698031" lon="7.893881634687196"><ele>303.0</ele><time>2026-03-24T18:53:29Z</time></trkpt><trkpt lat="44.5014547299574" lon="7.893879177776002"><ele>303.0</ele><time>2026-03-24T18:53:30Z</time></trkpt><trkpt lat="44.50127797682882" lon="7.893915852792603"><ele>304.6666666666667</ele><time>2026-03-24T18:53:30.999Z</time></trkpt><trkpt lat="44.501108498777434" lon="7.893947081475657"><ele>306.33333333333337</ele><time>2026-03-24T18:53:31.999Z</time></trkpt><trkpt lat="44.500958927661486" lon="7.893959328621083"><ele>308.0</ele><time>2026-03-24T18:53:32.999Z</time></trkpt><trkpt lat="44.500795652416464" lon="7.893972071827727"><ele>308.0</ele><time>2026-03-24T18:53:33.999Z</time></trkpt><trkpt lat="44.50062915219459" lon="7.893985085018471"><ele>308.0</ele><time>2026-03-24T18:53:34.999Z</time></trkpt><trkpt lat="44.500471484034335" lon="7.893986158124064"><ele>308.0</ele><time>2026-03-24T18:53:35.999Z</time></trkpt><trkpt lat="44.500314006090726" lon="7.893988324849354"><ele>311.0</ele><time>2026-03-24T18:53:36.999Z</time></trkpt><trkpt lat="44.500139334098066" lon="7.893989839286922"><ele>314.0</ele><time>2026-03-24T18:53:37.999Z</time></trkpt><trkpt lat="44.499979595843676" lon="7.893988348093931"><ele>317.0</ele><time>2026-03-24T18:53:38.999Z</time></trkpt><trkpt lat="44.49980909969142" lon="7.894009220811769"><ele>317.0</ele><time>2026-03-24T18:53:39.999Z</time></trkpt><trkpt lat="44.499637006374215" lon="7.894031654103101"><ele>317.0</ele><time>2026-03-24T18:53:40.999Z</time></trkpt><trkpt lat="44.49946364548985" lon="7.894070481443781"><ele>317.0</ele><time>2026-03-24T18:53:41.999Z</time></trkpt><trkpt lat="44.49930324558457" lon="7.894123346176061"><ele>319.33333333333337</ele><time>2026-03-24T18:53:42.999Z</time></trkpt><trkpt lat="44.49912853326663" lon="7.89418998485332"><ele>321.6666666666667</ele><time>2026-03-24T18:53:43.999Z</time></trkpt><trkpt lat="44.498973281502174" lon="7.894264684945817"><ele>324.0</ele><time>2026-03-24T18:53:44.999Z</time></trkpt><trkpt lat="44.49882873574131" lon="7.894326122035527"><ele>323.75</ele><time>2026-03-24T18:53:45.999Z</time></trkpt><trkpt lat="44.49868287896116" lon="7.894385093557293"><ele>323.5</ele><time>2026-03-24T18:53:46.999Z</time></trkpt><trkpt lat="44.498557097131176" lon="7.89444101757586"><ele>323.25</ele><time>2026-03-24T18:53:47.999Z</time></trkpt><trkpt lat="44.49843671584268" lon="7.89448198948338"><ele>323.0</ele><time>2026-03-24T18:53:48.999Z</time></trkpt><trkpt lat="44.498331665898164" lon="7.894508582084609"><ele>323.0</ele><time>2026-03-24T18:53:49.999Z</time></trkpt><trkpt lat="44.49821065587965" lon="7.8945272090380145"><ele>323.0</ele><time>2026-03-24T18:53:50.999Z</time></trkpt><trkpt lat="44.4980889742355" lon="7.894534954747119"><ele>323.0</ele><time>2026-03-24T18:53:51.999Z</time></trkpt><trkpt lat="44.49796459711856" lon="7.894529880146198"><ele>323.0</ele><time>2026-03-24T18:53:52.999Z</time></trkpt><trkpt lat="44.49786469985385" lon="7.894513835811875"><ele>324.59999999999997</ele><time>2026-03-24T18:53:53.999Z</time></trkpt><trkpt lat="44.49776741647771" lon="7.894482474553135"><ele>326.2</ele><time>2026-03-24T18:53:54.999Z</time></trkpt><trkpt lat="44.4976628413868" lon="7.89444487266779"><ele>327.8</ele><time>2026-03-24T18:53:55.999Z</time></trkpt><trkpt lat="44.49756077755583" lon="7.894398579884529"><ele>329.4</ele><time>2026-03-24T18:53:56.999Z</time></trkpt><trkpt lat="44.49745668190663" lon="7.894355879535771"><ele>331.0</ele><time>2026-03-24T18:53:57.999Z</time></trkpt><trkpt lat="44.497358865938075" lon="7.89430698482294"><ele>331.0</ele><time>2026-03-24T18:53:58.999Z</time></trkpt><trkpt lat="44.497267378749946" lon="7.894270194581196"><ele>331.0</ele><time>2026-03-24T18:53:59.999Z</time></trkpt><trkpt lat="44.497169466581965" lon="7.894235848654778"><ele>331.0</ele><time>2026-03-24T18:54:00.999Z</time></trkpt><trkpt lat="44.49706540466047" lon="7.894197686273333"><ele>331.0</ele><time>2026-03-24T18:54:01.999Z</time></trkpt><trkpt lat="44.49693673756025" lon="7.8941440113185966"><ele>331.0</ele><time>2026-03-24T18:54:02.999Z</time></trkpt><trkpt lat="44.49680400169005" lon="7.894090665437566"><ele>332.0</ele><time>2026-03-24T18:54:03.999Z</time></trkpt><trkpt lat="44.496658861893216" lon="7.894027548497021"><ele>333.0</ele><time>2026-03-24T18:54:04.999Z</time></trkpt><trkpt lat="44.496505884310935" lon="7.893963794554203"><ele>334.0</ele><time>2026-03-24T18:54:05.999Z</time></trkpt><trkpt lat="44.49634645588586" lon="7.893905037010837"><ele>334.0</ele><time>2026-03-24T18:54:06.999Z</time></trkpt><trkpt lat="44.496179725173086" lon="7.893836333413842"><ele>334.0</ele><time>2026-03-24T18:54:07.999Z</time></trkpt><trkpt lat="44.49600752494759" lon="7.893747349394136"><ele>334.0</ele><time>2026-03-24T18:54:08.999Z</time></trkpt><trkpt lat="44.495827429426974" lon="7.893668778765703"><ele>334.0</ele><time>2026-03-24T18:54:09.999Z</time></trkpt><trkpt lat="44.49564499997336" lon="7.893594884640694"><ele>334.0</ele><time>2026-03-24T18:54:10.999Z</time></trkpt><trkpt lat="44.49545444999975" lon="7.893519528997388"><ele>334.0</ele><time>2026-03-24T18:54:11.999Z</time></trkpt><trkpt lat="44.495264161377065" lon="7.893435484874002"><ele>334.0</ele><time>2026-03-24T18:54:12.999Z</time></trkpt><trkpt lat="44.49508690810756" lon="7.893352922876043"><ele>334.0</ele><time>2026-03-24T18:54:13.999Z</time></trkpt><trkpt lat="44.49491061086532" lon="7.893251301514665"><ele>334.0</ele><time>2026-03-24T18:54:14.999Z</time></trkpt><trkpt lat="44.49472459495499" lon="7.893132223425183"><ele>334.3333333333333</ele><time>2026-03-24T18:54:15.999Z</time></trkpt><trkpt lat="44.49454132314166" lon="7.893014606089511"><ele>334.6666666666667</ele><time>2026-03-24T18:54:16.999Z</time></trkpt><trkpt lat="44.49434322258486" lon="7.89289860402159"><ele>335.0</ele><time>2026-03-24T18:54:17.999Z</time></trkpt><trkpt lat="44.49414625520461" lon="7.89277595236605"><ele>335.0</ele><time>2026-03-24T18:54:18.999Z</time></trkpt><trkpt lat="44.49394722002664" lon="7.892651950123239"><ele>335.0</ele><time>2026-03-24T18:54:19.999Z</time></trkpt><trkpt lat="44.49376235563925" lon="7.892533596773944"><ele>335.0</ele><time>2026-03-24T18:54:20.999Z</time></trkpt><trkpt lat="44.49358694125995" lon="7.8924242955997235"><ele>335.0</ele><time>2026-03-24T18:54:21.999Z</time></trkpt><trkpt lat="44.493420240599505" lon="7.892322337509214"><ele>335.0</ele><time>2026-03-24T18:54:22.999Z</time></trkpt><trkpt lat="44.49325687705458" lon="7.892218497198911"><ele>335.0</ele><time>2026-03-24T18:54:23.999Z</time></trkpt><trkpt lat="44.493098617956136" lon="7.892122982574711"><ele>335.0</ele><time>2026-03-24T18:54:24.999Z</time></trkpt><trkpt lat="44.492942381953355" lon="7.892038356765989"><ele>335.0</ele><time>2026-03-24T18:54:25.999Z</time></trkpt><trkpt lat="44.492775708070695" lon="7.891968623372339"><ele>335.0</ele><time>2026-03-24T18:54:26.999Z</time></trkpt><trkpt lat="44.49260473899161" lon="7.891900660338377"><ele>335.0</ele><time>2026-03-24T18:54:27.999Z</time></trkpt><trkpt lat="44.492424581688596" lon="7.891819189102812"><ele>335.0</ele><time>2026-03-24T18:54:28.999Z</time></trkpt><trkpt lat="44.49223675441359" lon="7.8917646856440875"><ele>335.0</ele><time>2026-03-24T18:54:29.999Z</time></trkpt><trkpt lat="44.492040641038244" lon="7.891718226806027"><ele>335.6666666666667</ele><time>2026-03-24T18:54:30.999Z</time></trkpt><trkpt lat="44.49184072169256" lon="7.8916740285918765"><ele>336.3333333333333</ele><time>2026-03-24T18:54:31.999Z</time></trkpt><trkpt lat="44.49163533434075" lon="7.891631372061063"><ele>337.0</ele><time>2026-03-24T18:54:32.998Z</time></trkpt><trkpt lat="44.49142681748991" lon="7.891587999798491"><ele>336.3333333333333</ele><time>2026-03-24T18:54:33.998Z</time></trkpt><trkpt lat="44.49120609361341" lon="7.891563996269492"><ele>335.6666666666667</ele><time>2026-03-24T18:54:34.998Z</time></trkpt><trkpt lat="44.49098299632974" lon="7.891515566436885"><ele>335.0</ele><time>2026-03-24T18:54:35.998Z</time></trkpt><trkpt lat="44.49075670584657" lon="7.891464780899035"><ele>335.0</ele><time>2026-03-24T18:54:36.998Z</time></trkpt><trkpt lat="44.49053605699162" lon="7.891408235753032"><ele>335.0</ele><time>2026-03-24T18:54:37.998Z</time></trkpt><trkpt lat="44.490326171094594" lon="7.89135611585526"><ele>335.0</ele><time>2026-03-24T18:54:38.998Z</time></trkpt><trkpt lat="44.49010665916958" lon="7.8913082859447305"><ele>335.0</ele><time>2026-03-24T18:54:39.998Z</time></trkpt><trkpt lat="44.489881174344866" lon="7.891261523959938"><ele>335.0</ele><time>2026-03-24T18:54:40.998Z</time></trkpt><trkpt lat="44.48966228893185" lon="7.891217486401148"><ele>335.0</ele><time>2026-03-24T18:54:41.998Z</time></trkpt><trkpt lat="44.489459920735165" lon="7.891173405229757"><ele>335.0</ele><time>2026-03-24T18:54:42.998Z</time></trkpt><trkpt lat="44.48926949915586" lon="7.891129983752443"><ele>335.0</ele><time>2026-03-24T18:54:43.998Z</time></trkpt><trkpt lat="44.489093528638236" lon="7.891091138387019"><ele>335.0</ele><time>2026-03-24T18:54:44.998Z</time></trkpt><trkpt lat="44.488926324289" lon="7.891055679659781"><ele>335.0</ele><time>2026-03-24T18:54:45.998Z</time></trkpt><trkpt lat="44.48875030738426" lon="7.891005914173282"><ele>335.0</ele><time>2026-03-24T18:54:46.998Z</time></trkpt><trkpt lat="44.488569469930134" lon="7.8909393665874745"><ele>335.0</ele><time>2026-03-24T18:54:47.998Z</time></trkpt><trkpt lat="44.48838756236855" lon="7.890854208177052"><ele>335.6666666666667</ele><time>2026-03-24T18:54:48.998Z</time></trkpt><trkpt lat="44.48820248114158" lon="7.890743267607586"><ele>336.3333333333333</ele><time>2026-03-24T18:54:49.998Z</time></trkpt><trkpt lat="44.488016545653906" lon="7.890619200065137"><ele>337.0</ele><time>2026-03-24T18:54:50.998Z</time></trkpt><trkpt lat="44.487831533610134" lon="7.890492494185583"><ele>337.0</ele><time>2026-03-24T18:54:51.998Z</time></trkpt><trkpt lat="44.48763438154702" lon="7.890356652450707"><ele>337.0</ele><time>2026-03-24T18:54:53Z</time></trkpt><trkpt lat="44.4874464754269" lon="7.890201046731568"><ele>337.0</ele><time>2026-03-24T18:54:54Z</time></trkpt><trkpt lat="44.48724515140218" lon="7.890058324356073"><ele>337.0</ele><time>2026-03-24T18:54:55Z</time></trkpt><trkpt lat="44.48704114092442" lon="7.8899132536118195"><ele>337.0</ele><time>2026-03-24T18:54:56Z</time></trkpt><trkpt lat="44.4868308683522" lon="7.88976378549871"><ele>337.0</ele><time>2026-03-24T18:54:57Z</time></trkpt><trkpt lat="44.48663485671775" lon="7.889624454458857"><ele>337.0</ele><time>2026-03-24T18:54:58Z</time></trkpt><trkpt lat="44.48644382494244" lon="7.889489420115283"><ele>337.0</ele><time>2026-03-24T18:54:59Z</time></trkpt><trkpt lat="44.48624082429219" lon="7.889346766309415"><ele>336.66666666666663</ele><time>2026-03-24T18:55:00Z</time></trkpt><trkpt lat="44.48605011695334" lon="7.889212751166376"><ele>336.3333333333333</ele><time>2026-03-24T18:55:01Z</time></trkpt><trkpt lat="44.48587074382233" lon="7.889086701062619"><ele>336.0</ele><time>2026-03-24T18:55:02Z</time></trkpt><trkpt lat="44.48570139018338" lon="7.888967691763417"><ele>336.0</ele><time>2026-03-24T18:55:03Z</time></trkpt><trkpt lat="44.485544602460145" lon="7.888857512895727"><ele>336.0</ele><time>2026-03-24T18:55:04Z</time></trkpt><trkpt lat="44.4853948059663" lon="7.88875354265429"><ele>336.0</ele><time>2026-03-24T18:55:05Z</time></trkpt><trkpt lat="44.48525216116456" lon="7.888655012550105"><ele>336.0</ele><time>2026-03-24T18:55:06Z</time></trkpt><trkpt lat="44.4851056253899" lon="7.888564653675677"><ele>336.0</ele><time>2026-03-24T18:55:07Z</time></trkpt><trkpt lat="44.48498726273529" lon="7.888458667068204"><ele>336.0</ele><time>2026-03-24T18:55:08Z</time></trkpt><trkpt lat="44.48488132417726" lon="7.888350989829218"><ele>336.0</ele><time>2026-03-24T18:55:09Z</time></trkpt><trkpt lat="44.48478357799368" lon="7.888242630556936"><ele>336.4</ele><time>2026-03-24T18:55:10Z</time></trkpt><trkpt lat="44.48470036655542" lon="7.8881338392596865"><ele>336.8</ele><time>2026-03-24T18:55:11Z</time></trkpt><trkpt lat="44.48462130575009" lon="7.888030647983005"><ele>337.2</ele><time>2026-03-24T18:55:12Z</time></trkpt><trkpt lat="44.48454798176341" lon="7.887931899776126"><ele>337.59999999999997</ele><time>2026-03-24T18:55:13Z</time></trkpt><trkpt lat="44.48448499373916" lon="7.887842806603091"><ele>338.0</ele><time>2026-03-24T18:55:14Z</time></trkpt><trkpt lat="44.4844267446016" lon="7.887764607268855"><ele>338.0</ele><time>2026-03-24T18:55:15Z</time></trkpt><trkpt lat="44.4843723889005" lon="7.887680471527629"><ele>338.0</ele><time>2026-03-24T18:55:16Z</time></trkpt><trkpt lat="44.4843210070762" lon="7.887571840550282"><ele>338.0</ele><time>2026-03-24T18:55:17Z</time></trkpt><trkpt lat="44.484273012235235" lon="7.887449072156584"><ele>338.0</ele><time>2026-03-24T18:55:18Z</time></trkpt><trkpt lat="44.484228755644594" lon="7.8873211119953845"><ele>338.0</ele><time>2026-03-24T18:55:19Z</time></trkpt><trkpt lat="44.484194085397675" lon="7.887190277585492"><ele>338.0</ele><time>2026-03-24T18:55:20Z</time></trkpt><trkpt lat="44.48415134576421" lon="7.88704330872425"><ele>338.0</ele><time>2026-03-24T18:55:21Z</time></trkpt><trkpt lat="44.48415648220925" lon="7.886843063720255"><ele>338.0</ele><time>2026-03-24T18:55:22Z</time></trkpt><trkpt lat="44.48414679131765" lon="7.886644902614594"><ele>338.0</ele><time>2026-03-24T18:55:23Z</time></trkpt><trkpt lat="44.484144396567075" lon="7.886433107100722"><ele>338.0</ele><time>2026-03-24T18:55:24Z</time></trkpt><trkpt lat="44.48414215964092" lon="7.886203151075953"><ele>338.0</ele><time>2026-03-24T18:55:25Z</time></trkpt><trkpt lat="44.48414622057603" lon="7.885969430264694"><ele>338.0</ele><time>2026-03-24T18:55:26Z</time></trkpt><trkpt lat="44.48414890197089" lon="7.885730908990147"><ele>338.0</ele><time>2026-03-24T18:55:27Z</time></trkpt><trkpt lat="44.48415991160433" lon="7.885468076015234"><ele>338.0</ele><time>2026-03-24T18:55:28Z</time></trkpt><trkpt lat="44.48416829599683" lon="7.885210412800701"><ele>338.0</ele><time>2026-03-24T18:55:29Z</time></trkpt><trkpt lat="44.484179562892386" lon="7.884945549050834"><ele>338.33333333333337</ele><time>2026-03-24T18:55:30Z</time></trkpt><trkpt lat="44.48419365737108" lon="7.884674188949697"><ele>338.6666666666667</ele><time>2026-03-24T18:55:31Z</time></trkpt><trkpt lat="44.48420193036223" lon="7.884397991268026"><ele>339.0</ele><time>2026-03-24T18:55:32Z</time></trkpt><trkpt lat="44.48421534178505" lon="7.884125941957626"><ele>340.0</ele><time>2026-03-24T18:55:33Z</time></trkpt><trkpt lat="44.48422726518737" lon="7.883876777349228"><ele>341.0</ele><time>2026-03-24T18:55:34Z</time></trkpt><trkpt lat="44.484240118194705" lon="7.883631755474789"><ele>342.0</ele><time>2026-03-24T18:55:35Z</time></trkpt><trkpt lat="44.48425344095961" lon="7.883382998908873"><ele>344.0</ele><time>2026-03-24T18:55:35.999Z</time></trkpt><trkpt lat="44.48426483917253" lon="7.883144896296132"><ele>346.0</ele><time>2026-03-24T18:55:36.999Z</time></trkpt><trkpt lat="44.48427876037905" lon="7.882928976824275"><ele>348.0</ele><time>2026-03-24T18:55:37.999Z</time></trkpt><trkpt lat="44.484290792136996" lon="7.8827246955761145"><ele>348.75</ele><time>2026-03-24T18:55:38.999Z</time></trkpt><trkpt lat="44.484292536410685" lon="7.882538419775617"><ele>349.5</ele><time>2026-03-24T18:55:39.999Z</time></trkpt><trkpt lat="44.484300515183385" lon="7.882332936788497"><ele>350.25</ele><time>2026-03-24T18:55:40.999Z</time></trkpt><trkpt lat="44.48430810065521" lon="7.882131403157405"><ele>351.0</ele><time>2026-03-24T18:55:41.999Z</time></trkpt><trkpt lat="44.48431866792836" lon="7.881930690466278"><ele>352.0</ele><time>2026-03-24T18:55:42.999Z</time></trkpt><trkpt lat="44.48433027114622" lon="7.881721639604682"><ele>353.0</ele><time>2026-03-24T18:55:43.999Z</time></trkpt><trkpt lat="44.484340325909415" lon="7.881506063105922"><ele>354.0</ele><time>2026-03-24T18:55:44.999Z</time></trkpt><trkpt lat="44.484349613242195" lon="7.881284535169387"><ele>354.0</ele><time>2026-03-24T18:55:45.999Z</time></trkpt><trkpt lat="44.48435845028093" lon="7.88106436194551"><ele>354.0</ele><time>2026-03-24T18:55:46.999Z</time></trkpt><trkpt lat="44.484371004500275" lon="7.880843780272088"><ele>354.0</ele><time>2026-03-24T18:55:47.999Z</time></trkpt><trkpt lat="44.48437961873271" lon="7.880624719707147"><ele>354.3333333333333</ele><time>2026-03-24T18:55:48.999Z</time></trkpt><trkpt lat="44.484389847450146" lon="7.880399156035337"><ele>354.66666666666663</ele><time>2026-03-24T18:55:49.999Z</time></trkpt><trkpt lat="44.484396716661585" lon="7.880166162227491"><ele>355.0</ele><time>2026-03-24T18:55:50.999Z</time></trkpt><trkpt lat="44.48440705862229" lon="7.879929114047367"><ele>355.3333333333333</ele><time>2026-03-24T18:55:51.999Z</time></trkpt><trkpt lat="44.484415848213416" lon="7.879708787484073"><ele>355.6666666666667</ele><time>2026-03-24T18:55:52.999Z</time></trkpt><trkpt lat="44.484425653685186" lon="7.879492671511239"><ele>356.0</ele><time>2026-03-24T18:55:53.999Z</time></trkpt><trkpt lat="44.484453333037536" lon="7.879261806629952"><ele>356.0</ele><time>2026-03-24T18:55:54.999Z</time></trkpt><trkpt lat="44.48446742993081" lon="7.879046911848609"><ele>356.0</ele><time>2026-03-24T18:55:55.999Z</time></trkpt><trkpt lat="44.48448108526233" lon="7.878837290748003"><ele>356.0</ele><time>2026-03-24T18:55:56.999Z</time></trkpt><trkpt lat="44.484483121638" lon="7.878623157959411"><ele>356.5</ele><time>2026-03-24T18:55:57.999Z</time></trkpt><trkpt lat="44.48448314700312" lon="7.878428581346599"><ele>357.0</ele><time>2026-03-24T18:55:58.999Z</time></trkpt><trkpt lat="44.484484726145794" lon="7.878251007365005"><ele>357.5</ele><time>2026-03-24T18:55:59.999Z</time></trkpt><trkpt lat="44.484484499504696" lon="7.878086610496614"><ele>358.0</ele><time>2026-03-24T18:56:00.999Z</time></trkpt><trkpt lat="44.48446251058238" lon="7.877957737021174"><ele>358.0</ele><time>2026-03-24T18:56:01.999Z</time></trkpt><trkpt lat="44.48445682746883" lon="7.877820146964069"><ele>358.0</ele><time>2026-03-24T18:56:02.999Z</time></trkpt><trkpt lat="44.484451718513725" lon="7.877696776565127"><ele>358.0</ele><time>2026-03-24T18:56:03.999Z</time></trkpt><trkpt lat="44.48445002939696" lon="7.877580367668432"><ele>358.0</ele><time>2026-03-24T18:56:04.999Z</time></trkpt><trkpt lat="44.48446068716273" lon="7.877463931296188"><ele>358.0</ele><time>2026-03-24T18:56:05.999Z</time></trkpt><trkpt lat="44.48447041874454" lon="7.877360117516763"><ele>358.0</ele><time>2026-03-24T18:56:06.999Z</time></trkpt><trkpt lat="44.48448356266984" lon="7.877185523274855"><ele>358.0</ele><time>2026-03-24T18:56:08.999Z</time></trkpt><trkpt lat="44.484466909281885" lon="7.877070814787043"><ele>358.0</ele><time>2026-03-24T18:56:09.999Z</time></trkpt><trkpt lat="44.48442853576213" lon="7.876954097374072"><ele>358.0</ele><time>2026-03-24T18:56:10.999Z</time></trkpt><trkpt lat="44.48438571025865" lon="7.8768249170735976"><ele>358.0</ele><time>2026-03-24T18:56:11.999Z</time></trkpt><trkpt lat="44.484338074095035" lon="7.876676118272954"><ele>358.0</ele><time>2026-03-24T18:56:12.999Z</time></trkpt><trkpt lat="44.48429584619736" lon="7.876519697817887"><ele>358.25</ele><time>2026-03-24T18:56:13.999Z</time></trkpt><trkpt lat="44.484254045807624" lon="7.87633708233104"><ele>358.5</ele><time>2026-03-24T18:56:14.999Z</time></trkpt><trkpt lat="44.48420508448014" lon="7.876149008769383"><ele>358.75</ele><time>2026-03-24T18:56:15.999Z</time></trkpt><trkpt lat="44.48415404651073" lon="7.875958122756155"><ele>359.0</ele><time>2026-03-24T18:56:16.999Z</time></trkpt><trkpt lat="44.48409323065903" lon="7.875753486327313"><ele>359.0</ele><time>2026-03-24T18:56:17.999Z</time></trkpt><trkpt lat="44.484028441523016" lon="7.8755521538510385"><ele>359.0</ele><time>2026-03-24T18:56:18.999Z</time></trkpt><trkpt lat="44.48395535033489" lon="7.875342417288433"><ele>359.0</ele><time>2026-03-24T18:56:19.999Z</time></trkpt><trkpt lat="44.48387279633031" lon="7.875129816324248"><ele>359.0</ele><time>2026-03-24T18:56:20.999Z</time></trkpt><trkpt lat="44.4837878941174" lon="7.874929568703283"><ele>359.0</ele><time>2026-03-24T18:56:21.999Z</time></trkpt><trkpt lat="44.483706563150726" lon="7.874737815546735"><ele>359.0</ele><time>2026-03-24T18:56:22.999Z</time></trkpt><trkpt lat="44.48361518616384" lon="7.874558700182667"><ele>359.0</ele><time>2026-03-24T18:56:23.999Z</time></trkpt><trkpt lat="44.48352651761723" lon="7.874387068802032"><ele>359.0</ele><time>2026-03-24T18:56:24.999Z</time></trkpt><trkpt lat="44.48344827026431" lon="7.874230590884108"><ele>359.0</ele><time>2026-03-24T18:56:25.999Z</time></trkpt><trkpt lat="44.48335988466294" lon="7.874077632272784"><ele>359.0</ele><time>2026-03-24T18:56:26.999Z</time></trkpt><trkpt lat="44.48327487338178" lon="7.873933502298906"><ele>359.25</ele><time>2026-03-24T18:56:27.999Z</time></trkpt><trkpt lat="44.483191310544946" lon="7.873789263948685"><ele>359.5</ele><time>2026-03-24T18:56:28.999Z</time></trkpt><trkpt lat="44.48312072024082" lon="7.873656712729777"><ele>359.75</ele><time>2026-03-24T18:56:29.999Z</time></trkpt><trkpt lat="44.483054465444035" lon="7.873538425005833"><ele>360.0</ele><time>2026-03-24T18:56:30.999Z</time></trkpt><trkpt lat="44.48299234136477" lon="7.873418013049701"><ele>360.0</ele><time>2026-03-24T18:56:31.999Z</time></trkpt><trkpt lat="44.482929136208746" lon="7.873303299091808"><ele>360.0</ele><time>2026-03-24T18:56:32.999Z</time></trkpt><trkpt lat="44.48285310206472" lon="7.873171249185368"><ele>360.0</ele><time>2026-03-24T18:56:33.999Z</time></trkpt><trkpt lat="44.482770695435" lon="7.873034635585076"><ele>360.0</ele><time>2026-03-24T18:56:34.999Z</time></trkpt><trkpt lat="44.48267236642795" lon="7.87287949749418"><ele>360.0</ele><time>2026-03-24T18:56:35.999Z</time></trkpt><trkpt lat="44.48257993868742" lon="7.8727316035819745"><ele>360.0</ele><time>2026-03-24T18:56:36.999Z</time></trkpt><trkpt lat="44.48248542813568" lon="7.8725782467800105"><ele>360.0</ele><time>2026-03-24T18:56:37.998Z</time></trkpt><trkpt lat="44.4823934420393" lon="7.872407868980027"><ele>360.0</ele><time>2026-03-24T18:56:38.998Z</time></trkpt><trkpt lat="44.48231313723336" lon="7.872252982512119"><ele>360.25</ele><time>2026-03-24T18:56:39.998Z</time></trkpt><trkpt lat="44.482232177406786" lon="7.872115748261276"><ele>360.5</ele><time>2026-03-24T18:56:40.998Z</time></trkpt><trkpt lat="44.48215110487841" lon="7.871986356573694"><ele>360.75</ele><time>2026-03-24T18:56:41.998Z</time></trkpt><trkpt lat="44.4820720108973" lon="7.871843172373954"><ele>361.0</ele><time>2026-03-24T18:56:42.998Z</time></trkpt><trkpt lat="44.48199101041448" lon="7.8717079173556685"><ele>361.75</ele><time>2026-03-24T18:56:43.998Z</time></trkpt><trkpt lat="44.48190827523415" lon="7.871568243285054"><ele>362.5</ele><time>2026-03-24T18:56:44.998Z</time></trkpt><trkpt lat="44.48182849967167" lon="7.8713823179806255"><ele>363.25</ele><time>2026-03-24T18:56:45.998Z</time></trkpt><trkpt lat="44.48175435967878" lon="7.871244670017831"><ele>364.0</ele><time>2026-03-24T18:56:46.998Z</time></trkpt><trkpt lat="44.48167440431388" lon="7.87110592223945"><ele>364.0</ele><time>2026-03-24T18:56:47.998Z</time></trkpt><trkpt lat="44.48159246251307" lon="7.870970840872887"><ele>364.0</ele><time>2026-03-24T18:56:48.998Z</time></trkpt><trkpt lat="44.481497352328496" lon="7.87079596752621"><ele>364.0</ele><time>2026-03-24T18:56:49.998Z</time></trkpt><trkpt lat="44.48140745303542" lon="7.8706385155028595"><ele>364.0</ele><time>2026-03-24T18:56:50.998Z</time></trkpt><trkpt lat="44.481311464709336" lon="7.870488726089175"><ele>364.0</ele><time>2026-03-24T18:56:51.998Z</time></trkpt><trkpt lat="44.481203890758884" lon="7.870322197342529"><ele>364.0</ele><time>2026-03-24T18:56:52.998Z</time></trkpt><trkpt lat="44.48108832514498" lon="7.870146116278719"><ele>364.0</ele><time>2026-03-24T18:56:53.998Z</time></trkpt><trkpt lat="44.480962658648664" lon="7.869968802177552"><ele>364.0</ele><time>2026-03-24T18:56:54.998Z</time></trkpt><trkpt lat="44.480834198192355" lon="7.8697956265800135"><ele>364.0</ele><time>2026-03-24T18:56:55.998Z</time></trkpt><trkpt lat="44.480716967408114" lon="7.869636957603817"><ele>364.0</ele><time>2026-03-24T18:56:56.998Z</time></trkpt><trkpt lat="44.48059941727824" lon="7.869485903796144"><ele>364.0</ele><time>2026-03-24T18:56:57.998Z</time></trkpt><trkpt lat="44.48049376300113" lon="7.869343921129253"><ele>364.0</ele><time>2026-03-24T18:56:59Z</time></trkpt><trkpt lat="44.48039120601179" lon="7.869208375508959"><ele>364.0</ele><time>2026-03-24T18:57:00Z</time></trkpt><trkpt lat="44.48029736412561" lon="7.869105133512216"><ele>364.0</ele><time>2026-03-24T18:57:01Z</time></trkpt><trkpt lat="44.48021010603147" lon="7.868987535623785"><ele>363.8333333333333</ele><time>2026-03-24T18:57:02Z</time></trkpt><trkpt lat="44.48013687149901" lon="7.86888909660285"><ele>363.66666666666663</ele><time>2026-03-24T18:57:03Z</time></trkpt><trkpt lat="44.480075268517915" lon="7.868808471546193"><ele>363.5</ele><time>2026-03-24T18:57:04Z</time></trkpt><trkpt lat="44.48000808733057" lon="7.868718533328406"><ele>363.3333333333333</ele><time>2026-03-24T18:57:05Z</time></trkpt><trkpt lat="44.47996266756405" lon="7.868636861171413"><ele>363.1666666666667</ele><time>2026-03-24T18:57:06Z</time></trkpt><trkpt lat="44.47992473289859" lon="7.86855549304165"><ele>363.0</ele><time>2026-03-24T18:57:07Z</time></trkpt><trkpt lat="44.479885440196114" lon="7.868477528635322"><ele>363.0</ele><time>2026-03-24T18:57:08Z</time></trkpt><trkpt lat="44.47981988290453" lon="7.868378755158351"><ele>363.0</ele><time>2026-03-24T18:57:10Z</time></trkpt><trkpt lat="44.47974355305168" lon="7.86830358946057"><ele>363.0</ele><time>2026-03-24T18:57:12Z</time></trkpt><trkpt lat="44.479679651151976" lon="7.868339350793384"><ele>363.0</ele><time>2026-03-24T18:57:13Z</time></trkpt><trkpt lat="44.479650965092475" lon="7.868440708501654"><ele>363.0</ele><time>2026-03-24T18:57:14Z</time></trkpt><trkpt lat="44.479629179849915" lon="7.868549327261305"><ele>363.0</ele><time>2026-03-24T18:57:15Z</time></trkpt><trkpt lat="44.479600292769604" lon="7.8686613898197"><ele>362.75</ele><time>2026-03-24T18:57:16Z</time></trkpt><trkpt lat="44.47956102553267" lon="7.86878702197669"><ele>362.5</ele><time>2026-03-24T18:57:17Z</time></trkpt><trkpt lat="44.47950674030221" lon="7.8689195931459865"><ele>362.25</ele><time>2026-03-24T18:57:18Z</time></trkpt><trkpt lat="44.47944276180509" lon="7.869064639629578"><ele>362.0</ele><time>2026-03-24T18:57:19Z</time></trkpt><trkpt lat="44.479369752531234" lon="7.869212120755326"><ele>362.20000000000005</ele><time>2026-03-24T18:57:20Z</time></trkpt><trkpt lat="44.479299517332535" lon="7.869354681999809"><ele>362.4</ele><time>2026-03-24T18:57:21Z</time></trkpt><trkpt lat="44.479234158820454" lon="7.86948232363644"><ele>362.6</ele><time>2026-03-24T18:57:22Z</time></trkpt><trkpt lat="44.479185723594746" lon="7.86956884623869"><ele>362.79999999999995</ele><time>2026-03-24T18:57:23Z</time></trkpt><trkpt lat="44.47914826833267" lon="7.86965036821716"><ele>363.0</ele><time>2026-03-24T18:57:24Z</time></trkpt><trkpt lat="44.479089724388544" lon="7.869772428499643"><ele>363.0</ele><time>2026-03-24T18:57:26Z</time></trkpt><trkpt lat="44.47905471599464" lon="7.869846786447105"><ele>363.0</ele><time>2026-03-24T18:57:28Z</time></trkpt><trkpt lat="44.47917013206546" lon="7.869971375137236"><ele>363.0</ele><time>2026-03-24T18:57:30Z</time></trkpt><trkpt lat="44.47923008999946" lon="7.870050081757209"><ele>363.0</ele><time>2026-03-24T18:57:31Z</time></trkpt><trkpt lat="44.479296344358836" lon="7.870115179766773"><ele>363.0</ele><time>2026-03-24T18:57:32Z</time></trkpt><trkpt lat="44.479388789066704" lon="7.8702060110205085"><ele>363.0</ele><time>2026-03-24T18:57:33Z</time></trkpt><trkpt lat="44.47949789904427" lon="7.870289797132905"><ele>363.0</ele><time>2026-03-24T18:57:34Z</time></trkpt><trkpt lat="44.47960201306387" lon="7.8704124120570365"><ele>363.0</ele><time>2026-03-24T18:57:35Z</time></trkpt><trkpt lat="44.47972855432366" lon="7.870525802950831"><ele>363.0</ele><time>2026-03-24T18:57:36Z</time></trkpt><trkpt lat="44.47983057921715" lon="7.870625747953647"><ele>363.0</ele><time>2026-03-24T18:57:37Z</time></trkpt><trkpt lat="44.479923260212814" lon="7.8707217980139745"><ele>363.0</ele><time>2026-03-24T18:57:38Z</time></trkpt><trkpt lat="44.48002924213482" lon="7.870827838395615"><ele>363.0</ele><time>2026-03-24T18:57:39Z</time></trkpt><trkpt lat="44.480150004537755" lon="7.8709388577067365"><ele>363.0</ele><time>2026-03-24T18:57:40Z</time></trkpt><trkpt lat="44.48024916821202" lon="7.871068598899799"><ele>363.0</ele><time>2026-03-24T18:57:41Z</time></trkpt><trkpt lat="44.48034348591998" lon="7.871171904039503"><ele>363.0</ele><time>2026-03-24T18:57:42Z</time></trkpt><trkpt lat="44.48043317725392" lon="7.871294280612073"><ele>363.0</ele><time>2026-03-24T18:57:42.999Z</time></trkpt><trkpt lat="44.48052929052894" lon="7.871419350013773"><ele>363.0</ele><time>2026-03-24T18:57:43.999Z</time></trkpt><trkpt lat="44.480581363433245" lon="7.87157181645056"><ele>363.0</ele><time>2026-03-24T18:57:44.999Z</time></trkpt><trkpt lat="44.480630296604325" lon="7.871703809540021"><ele>363.0</ele><time>2026-03-24T18:57:45.999Z</time></trkpt><trkpt lat="44.480672400079854" lon="7.871812688691032"><ele>363.0</ele><time>2026-03-24T18:57:46.999Z</time></trkpt><trkpt lat="44.48072598938943" lon="7.871903238788889"><ele>363.0</ele><time>2026-03-24T18:57:47.999Z</time></trkpt><trkpt lat="44.480753509159115" lon="7.872006473344339"><ele>363.0</ele><time>2026-03-24T18:57:48.999Z</time></trkpt><trkpt lat="44.48077758102" lon="7.872127743266496"><ele>363.0</ele><time>2026-03-24T18:57:50.999Z</time></trkpt><trkpt lat="44.480748221639416" lon="7.872261719555902"><ele>363.0</ele><time>2026-03-24T18:57:52.999Z</time></trkpt><trkpt lat="44.48062776356953" lon="7.87227123934621"><ele>363.0</ele><time>2026-03-24T18:57:53.999Z</time></trkpt><trkpt lat="44.48053776520311" lon="7.872340444040273"><ele>363.0</ele><time>2026-03-24T18:57:54.999Z</time></trkpt><trkpt lat="44.480438618097025" lon="7.872390839680326"><ele>363.0</ele><time>2026-03-24T18:57:55.999Z</time></trkpt><trkpt lat="44.48033193143327" lon="7.872451471993859"><ele>363.0</ele><time>2026-03-24T18:57:56.999Z</time></trkpt><trkpt lat="44.48020766119271" lon="7.87247173473969"><ele>363.0</ele><time>2026-03-24T18:57:57.999Z</time></trkpt><trkpt lat="44.48006976276348" lon="7.872508604505093"><ele>363.0</ele><time>2026-03-24T18:57:58.999Z</time></trkpt><trkpt lat="44.479944558931955" lon="7.872542080132279"><ele>363.0</ele><time>2026-03-24T18:57:59.999Z</time></trkpt><trkpt lat="44.47985433537832" lon="7.8725856533951735"><ele>363.0</ele><time>2026-03-24T18:58:00.999Z</time></trkpt><trkpt lat="44.47976871979906" lon="7.872599401528223"><ele>363.0</ele><time>2026-03-24T18:58:01.999Z</time></trkpt><trkpt lat="44.479678921112836" lon="7.872619833031718"><ele>363.0</ele><time>2026-03-24T18:58:02.999Z</time></trkpt><trkpt lat="44.47957958125338" lon="7.872647263222204"><ele>363.0</ele><time>2026-03-24T18:58:04.999Z</time></trkpt><trkpt lat="44.47951080513044" lon="7.872646580218751"><ele>363.0</ele><time>2026-03-24T18:58:06.999Z</time></trkpt><trkpt lat="44.479580162271375" lon="7.872967920931453"><ele>363.0</ele><time>2026-03-24T18:58:32.999Z</time></trkpt><trkpt lat="44.479645039313674" lon="7.8729686492250055"><ele>363.0</ele><time>2026-03-24T18:58:39.015Z</time></trkpt><trkpt lat="44.479609653251835" lon="7.872820026126731"><ele>363.0</ele><time>2026-03-24T19:00:16.018Z</time></trkpt><trkpt lat="44.479589644680274" lon="7.87257623054341"><ele>363.0</ele><time>2026-03-24T19:02:19.998Z</time></trkpt><trkpt lat="44.47956848912888" lon="7.872841515200501"><ele>364.0</ele><time>2026-03-24T19:02:20.998Z</time></trkpt><trkpt lat="44.47964736018272" lon="7.872804968808215"><ele>363.0</ele><time>2026-03-24T19:03:54.999Z</time></trkpt><trkpt lat="44.479669670099284" lon="7.872897921997446"><ele>363.0</ele><time>2026-03-24T19:04:36Z</time></trkpt></trkseg></trk></gpx>